﻿<?xml version="1.0" encoding="utf-8"?><gpx creator="Garmin Desktop App" version="1.1" xsi:schemaLocation="http://www.topografix.com/GPX/1/1 http://www.topografix.com/GPX/1/1/gpx.xsd http://www.garmin.com/xmlschemas/WaypointExtension/v1 http://www8.garmin.com/xmlschemas/WaypointExtensionv1.xsd http://www.garmin.com/xmlschemas/TrackPointExtension/v1 http://www.garmin.com/xmlschemas/TrackPointExtensionv1.xsd http://www.garmin.com/xmlschemas/GpxExtensions/v3 http://www8.garmin.com/xmlschemas/GpxExtensionsv3.xsd http://www.garmin.com/xmlschemas/ActivityExtension/v1 http://www8.garmin.com/xmlschemas/ActivityExtensionv1.xsd http://www.garmin.com/xmlschemas/AdventuresExtensions/v1 http://www8.garmin.com/xmlschemas/AdventuresExtensionv1.xsd http://www.garmin.com/xmlschemas/PressureExtension/v1 http://www.garmin.com/xmlschemas/PressureExtensionv1.xsd http://www.garmin.com/xmlschemas/TripExtensions/v1 http://www.garmin.com/xmlschemas/TripExtensionsv1.xsd http://www.garmin.com/xmlschemas/TripMetaDataExtensions/v1 http://www.garmin.com/xmlschemas/TripMetaDataExtensionsv1.xsd http://www.garmin.com/xmlschemas/ViaPointTransportationModeExtensions/v1 http://www.garmin.com/xmlschemas/ViaPointTransportationModeExtensionsv1.xsd http://www.garmin.com/xmlschemas/CreationTimeExtension/v1 http://www.garmin.com/xmlschemas/CreationTimeExtensionsv1.xsd http://www.garmin.com/xmlschemas/AccelerationExtension/v1 http://www.garmin.com/xmlschemas/AccelerationExtensionv1.xsd http://www.garmin.com/xmlschemas/PowerExtension/v1 http://www.garmin.com/xmlschemas/PowerExtensionv1.xsd http://www.garmin.com/xmlschemas/VideoExtension/v1 http://www.garmin.com/xmlschemas/VideoExtensionv1.xsd" xmlns="http://www.topografix.com/GPX/1/1" xmlns:xsi="http://www.w3.org/2001/XMLSchema-instance" xmlns:wptx1="http://www.garmin.com/xmlschemas/WaypointExtension/v1" xmlns:gpxtrx="http://www.garmin.com/xmlschemas/GpxExtensions/v3" xmlns:gpxtpx="http://www.garmin.com/xmlschemas/TrackPointExtension/v1" xmlns:gpxx="http://www.garmin.com/xmlschemas/GpxExtensions/v3" xmlns:trp="http://www.garmin.com/xmlschemas/TripExtensions/v1" xmlns:adv="http://www.garmin.com/xmlschemas/AdventuresExtensions/v1" xmlns:prs="http://www.garmin.com/xmlschemas/PressureExtension/v1" xmlns:tmd="http://www.garmin.com/xmlschemas/TripMetaDataExtensions/v1" xmlns:vptm="http://www.garmin.com/xmlschemas/ViaPointTransportationModeExtensions/v1" xmlns:ctx="http://www.garmin.com/xmlschemas/CreationTimeExtension/v1" xmlns:gpxacc="http://www.garmin.com/xmlschemas/AccelerationExtension/v1" xmlns:gpxpx="http://www.garmin.com/xmlschemas/PowerExtension/v1" xmlns:vidx1="http://www.garmin.com/xmlschemas/VideoExtension/v1">

  <metadata>
    <link href="http://www.garmin.com">
      <text>Garmin International</text>
    </link>
    <time>2021-11-07T17:03:39Z</time>
    <bounds maxlat="45.886784233152866" maxlon="8.373106783255935" minlat="45.871544927358627" minlon="8.342181332409382" />
  </metadata>

  <trk>
    <name>monte-mazzoccone2021-11-078</name>
    <extensions>
      <gpxx:TrackExtension>
        <gpxx:DisplayColor>Yellow</gpxx:DisplayColor>
      </gpxx:TrackExtension>
      <gpxtrkx:TrackStatsExtension xmlns:gpxtrkx="http://www.garmin.com/xmlschemas/TrackStatsExtension/v1">
        <gpxtrkx:Distance>9255</gpxtrkx:Distance>
        <gpxtrkx:TotalElapsedTime>19342</gpxtrkx:TotalElapsedTime>
        <gpxtrkx:MovingTime>10597</gpxtrkx:MovingTime>
        <gpxtrkx:StoppedTime>8738</gpxtrkx:StoppedTime>
        <gpxtrkx:MovingSpeed>0.873</gpxtrkx:MovingSpeed>
        <gpxtrkx:MaxSpeed>2.179</gpxtrkx:MaxSpeed>
        <gpxtrkx:MaxElevation>1433.197</gpxtrkx:MaxElevation>
        <gpxtrkx:MinElevation>843.588</gpxtrkx:MinElevation>
        <gpxtrkx:Ascent>629</gpxtrkx:Ascent>
        <gpxtrkx:Descent>633.278</gpxtrkx:Descent>
        <gpxtrkx:AvgAscentRate>0.043</gpxtrkx:AvgAscentRate>
        <gpxtrkx:MaxAscentRate>0.268</gpxtrkx:MaxAscentRate>
        <gpxtrkx:AvgDescentRate>0.059</gpxtrkx:AvgDescentRate>
        <gpxtrkx:MaxDescentRate>-0.746</gpxtrkx:MaxDescentRate>
      </gpxtrkx:TrackStatsExtension>
    </extensions>
    <trkseg>
      <trkpt lat="45.871704267337918" lon="8.371466360986233">
        <ele>898.16999999999996</ele>
        <time>2021-11-07T08:12:58Z</time>
      </trkpt>
      <trkpt lat="45.871704518795013" lon="8.371465355157852">
        <ele>898.16999999999996</ele>
        <time>2021-11-07T08:12:59Z</time>
      </trkpt>
      <trkpt lat="45.871705189347267" lon="8.371463008224964">
        <ele>849.37</ele>
        <time>2021-11-07T08:13:03Z</time>
      </trkpt>
      <trkpt lat="45.871706698089838" lon="8.371461415663362">
        <ele>848.66999999999996</ele>
        <time>2021-11-07T08:13:05Z</time>
      </trkpt>
      <trkpt lat="45.871728993952274" lon="8.371472982689738">
        <ele>848.78999999999996</ele>
        <time>2021-11-07T08:13:38Z</time>
      </trkpt>
      <trkpt lat="45.871719690039754" lon="8.371479855850339">
        <ele>848.74000000000001</ele>
        <time>2021-11-07T08:14:03Z</time>
      </trkpt>
      <trkpt lat="45.871717510744929" lon="8.371471893042326">
        <ele>848.78999999999996</ele>
        <time>2021-11-07T08:14:56Z</time>
      </trkpt>
      <trkpt lat="45.871715666726232" lon="8.371445657685399">
        <ele>849</ele>
        <time>2021-11-07T08:15:39Z</time>
      </trkpt>
      <trkpt lat="45.871726647019386" lon="8.371451860293746">
        <ele>849.13</ele>
        <time>2021-11-07T08:16:16Z</time>
      </trkpt>
      <trkpt lat="45.871736370027065" lon="8.371456051245332">
        <ele>849.13</ele>
        <time>2021-11-07T08:17:02Z</time>
      </trkpt>
      <trkpt lat="45.871741734445095" lon="8.371466947719455">
        <ele>849.41999999999996</ele>
        <time>2021-11-07T08:17:43Z</time>
      </trkpt>
      <trkpt lat="45.871721869334579" lon="8.371492680162191">
        <ele>849.87</ele>
        <time>2021-11-07T08:18:03Z</time>
      </trkpt>
      <trkpt lat="45.871696136891842" lon="8.371424786746502">
        <ele>850.17999999999995</ele>
        <time>2021-11-07T08:18:16Z</time>
      </trkpt>
      <trkpt lat="45.871679373085499" lon="8.371371142566204">
        <ele>850.07000000000005</ele>
        <time>2021-11-07T08:18:27Z</time>
      </trkpt>
      <trkpt lat="45.871663866564631" lon="8.371354294940829">
        <ele>850.26999999999998</ele>
        <time>2021-11-07T08:18:35Z</time>
      </trkpt>
      <trkpt lat="45.871639307588339" lon="8.371337531134486">
        <ele>850.24000000000001</ele>
        <time>2021-11-07T08:18:43Z</time>
      </trkpt>
      <trkpt lat="45.871634110808372" lon="8.371347673237324">
        <ele>850.15999999999997</ele>
        <time>2021-11-07T08:18:56Z</time>
      </trkpt>
      <trkpt lat="45.871625728905201" lon="8.371350187808275">
        <ele>850.12</ele>
        <time>2021-11-07T08:19:06Z</time>
      </trkpt>
      <trkpt lat="45.871603516861796" lon="8.371360413730145">
        <ele>849.95000000000005</ele>
        <time>2021-11-07T08:19:10Z</time>
      </trkpt>
      <trkpt lat="45.871604271233082" lon="8.371363934129477">
        <ele>848.99000000000001</ele>
        <time>2021-11-07T08:19:19Z</time>
      </trkpt>
      <trkpt lat="45.871601169928908" lon="8.371362844482064">
        <ele>849.57000000000005</ele>
        <time>2021-11-07T08:19:36Z</time>
      </trkpt>
      <trkpt lat="45.871624806895852" lon="8.37136753834784">
        <ele>849.39999999999998</ele>
        <time>2021-11-07T08:20:02Z</time>
      </trkpt>
      <trkpt lat="45.871626902371645" lon="8.37136946618557">
        <ele>849.46000000000004</ele>
        <time>2021-11-07T08:20:21Z</time>
      </trkpt>
      <trkpt lat="45.871631093323231" lon="8.371370723471046">
        <ele>849.62</ele>
        <time>2021-11-07T08:20:34Z</time>
      </trkpt>
      <trkpt lat="45.871626064181328" lon="8.371359240263701">
        <ele>849.62</ele>
        <time>2021-11-07T08:21:20Z</time>
      </trkpt>
      <trkpt lat="45.871625896543264" lon="8.371360162273049">
        <ele>849.59000000000003</ele>
        <time>2021-11-07T08:21:30Z</time>
      </trkpt>
      <trkpt lat="45.871625812724233" lon="8.371357563883066">
        <ele>849.66999999999996</ele>
        <time>2021-11-07T08:21:46Z</time>
      </trkpt>
      <trkpt lat="45.871625225991011" lon="8.371367370709777">
        <ele>849.55999999999995</ele>
        <time>2021-11-07T08:22:14Z</time>
      </trkpt>
      <trkpt lat="45.871616424992681" lon="8.371348343789578">
        <ele>849.54999999999995</ele>
        <time>2021-11-07T08:22:32Z</time>
      </trkpt>
      <trkpt lat="45.871613156050444" lon="8.371347673237324">
        <ele>849.48000000000002</ele>
        <time>2021-11-07T08:23:01Z</time>
      </trkpt>
      <trkpt lat="45.871589435264468" lon="8.371338453143835">
        <ele>850.00999999999999</ele>
        <time>2021-11-07T08:23:25Z</time>
      </trkpt>
      <trkpt lat="45.871578538790345" lon="8.371347337961197">
        <ele>849.49000000000001</ele>
        <time>2021-11-07T08:23:40Z</time>
      </trkpt>
      <trkpt lat="45.871587339788675" lon="8.37139243260026">
        <ele>849.41999999999996</ele>
        <time>2021-11-07T08:23:56Z</time>
      </trkpt>
      <trkpt lat="45.871587842702866" lon="8.371411627158523">
        <ele>849.79999999999995</ele>
        <time>2021-11-07T08:24:12Z</time>
      </trkpt>
      <trkpt lat="45.871577532961965" lon="8.371392181143165">
        <ele>849.90999999999997</ele>
        <time>2021-11-07T08:24:21Z</time>
      </trkpt>
      <trkpt lat="45.871577700600028" lon="8.371364856138825">
        <ele>850.37</ele>
        <time>2021-11-07T08:24:40Z</time>
      </trkpt>
      <trkpt lat="45.871561942622066" lon="8.371348427608609">
        <ele>850.38999999999999</ele>
        <time>2021-11-07T08:25:09Z</time>
      </trkpt>
      <trkpt lat="45.871544927358627" lon="8.371351109817624">
        <ele>850.03999999999996</ele>
        <time>2021-11-07T08:25:27Z</time>
      </trkpt>
      <trkpt lat="45.871587842702866" lon="8.371293945237994">
        <ele>850.29999999999995</ele>
        <time>2021-11-07T08:25:43Z</time>
      </trkpt>
      <trkpt lat="45.871674930676818" lon="8.3711554761976">
        <ele>851.80999999999995</ele>
        <time>2021-11-07T08:25:55Z</time>
      </trkpt>
      <trkpt lat="45.87169068865478" lon="8.371138712391257">
        <ele>852.21000000000004</ele>
        <time>2021-11-07T08:26:05Z</time>
      </trkpt>
      <trkpt lat="45.871708625927567" lon="8.371141729876399">
        <ele>852.78999999999996</ele>
        <time>2021-11-07T08:26:09Z</time>
      </trkpt>
      <trkpt lat="45.871732933446765" lon="8.371147178113461">
        <ele>852.64999999999998</ele>
        <time>2021-11-07T08:26:11Z</time>
      </trkpt>
      <trkpt lat="45.871763024479151" lon="8.371262094005942">
        <ele>853.36000000000001</ele>
        <time>2021-11-07T08:26:23Z</time>
      </trkpt>
      <trkpt lat="45.871771993115544" lon="8.371330909430981">
        <ele>853.47000000000003</ele>
        <time>2021-11-07T08:26:35Z</time>
      </trkpt>
      <trkpt lat="45.871784398332238" lon="8.371301824226975">
        <ele>853.52999999999997</ele>
        <time>2021-11-07T08:26:49Z</time>
      </trkpt>
      <trkpt lat="45.871802251785994" lon="8.371262680739164">
        <ele>853.64999999999998</ele>
        <time>2021-11-07T08:27:07Z</time>
      </trkpt>
      <trkpt lat="45.871807867661119" lon="8.371267709881067">
        <ele>853.39999999999998</ele>
        <time>2021-11-07T08:27:18Z</time>
      </trkpt>
      <trkpt lat="45.871823206543922" lon="8.371289251372218">
        <ele>853.44000000000005</ele>
        <time>2021-11-07T08:27:20Z</time>
      </trkpt>
      <trkpt lat="45.871893279254436" lon="8.37137047201395">
        <ele>853.75</ele>
        <time>2021-11-07T08:27:29Z</time>
      </trkpt>
      <trkpt lat="45.871936110779643" lon="8.371399557217956">
        <ele>853.65999999999997</ele>
        <time>2021-11-07T08:27:33Z</time>
      </trkpt>
      <trkpt lat="45.87196578271687" lon="8.371407855302095">
        <ele>854.00999999999999</ele>
        <time>2021-11-07T08:27:45Z</time>
      </trkpt>
      <trkpt lat="45.871964860707521" lon="8.371413387358189">
        <ele>853.94000000000005</ele>
        <time>2021-11-07T08:27:57Z</time>
      </trkpt>
      <trkpt lat="45.871951868757606" lon="8.371407939121127">
        <ele>853.90999999999997</ele>
        <time>2021-11-07T08:27:59Z</time>
      </trkpt>
      <trkpt lat="45.87193300947547" lon="8.371394528076053">
        <ele>853.79999999999995</ele>
        <time>2021-11-07T08:28:01Z</time>
      </trkpt>
      <trkpt lat="45.871811890974641" lon="8.371344907209277">
        <ele>853.75</ele>
        <time>2021-11-07T08:28:19Z</time>
      </trkpt>
      <trkpt lat="45.871826056391001" lon="8.371327975764871">
        <ele>853.72000000000003</ele>
        <time>2021-11-07T08:28:42Z</time>
      </trkpt>
      <trkpt lat="45.871827816590667" lon="8.371314648538828">
        <ele>853.49000000000001</ele>
        <time>2021-11-07T08:29:01Z</time>
      </trkpt>
      <trkpt lat="45.871833600103855" lon="8.371321437880397">
        <ele>853.50999999999999</ele>
        <time>2021-11-07T08:29:16Z</time>
      </trkpt>
      <trkpt lat="45.871832594275475" lon="8.371320934966207">
        <ele>853.11000000000001</ele>
        <time>2021-11-07T08:29:38Z</time>
      </trkpt>
      <trkpt lat="45.871823206543922" lon="8.37134750559926">
        <ele>853.33000000000004</ele>
        <time>2021-11-07T08:30:01Z</time>
      </trkpt>
      <trkpt lat="45.871817758306861" lon="8.371347421780229">
        <ele>853.48000000000002</ele>
        <time>2021-11-07T08:30:24Z</time>
      </trkpt>
      <trkpt lat="45.871821027249098" lon="8.371344488114119">
        <ele>853.45000000000005</ele>
        <time>2021-11-07T08:30:45Z</time>
      </trkpt>
      <trkpt lat="45.871816165745258" lon="8.371338620781899">
        <ele>853.5</ele>
        <time>2021-11-07T08:31:09Z</time>
      </trkpt>
      <trkpt lat="45.871820272877812" lon="8.371330238878727">
        <ele>853.69000000000005</ele>
        <time>2021-11-07T08:31:39Z</time>
      </trkpt>
      <trkpt lat="45.871827313676476" lon="8.371331579983234">
        <ele>853.52999999999997</ele>
        <time>2021-11-07T08:32:04Z</time>
      </trkpt>
      <trkpt lat="45.87182111106813" lon="8.371334932744503">
        <ele>853.46000000000004</ele>
        <time>2021-11-07T08:32:30Z</time>
      </trkpt>
      <trkpt lat="45.871829157695174" lon="8.371330574154854">
        <ele>853.45000000000005</ele>
        <time>2021-11-07T08:32:52Z</time>
      </trkpt>
      <trkpt lat="45.871830331161618" lon="8.371330657973886">
        <ele>853.12</ele>
        <time>2021-11-07T08:33:10Z</time>
      </trkpt>
      <trkpt lat="45.871835192665458" lon="8.371324623003602">
        <ele>853.13999999999999</ele>
        <time>2021-11-07T08:33:34Z</time>
      </trkpt>
      <trkpt lat="45.871842987835407" lon="8.371319677680731">
        <ele>854.11000000000001</ele>
        <time>2021-11-07T08:33:41Z</time>
      </trkpt>
      <trkpt lat="45.871852543205023" lon="8.371335351839662">
        <ele>853.04999999999995</ele>
        <time>2021-11-07T08:33:54Z</time>
      </trkpt>
      <trkpt lat="45.871840473264456" lon="8.37134063243866">
        <ele>853.03999999999996</ele>
        <time>2021-11-07T08:34:20Z</time>
      </trkpt>
      <trkpt lat="45.871858578175306" lon="8.371359659358859">
        <ele>853.21000000000004</ele>
        <time>2021-11-07T08:34:34Z</time>
      </trkpt>
      <trkpt lat="45.871949605643749" lon="8.371405592188239">
        <ele>853.51999999999998</ele>
        <time>2021-11-07T08:34:50Z</time>
      </trkpt>
      <trkpt lat="45.871944576501846" lon="8.37132353335619">
        <ele>854.90999999999997</ele>
        <time>2021-11-07T08:35:02Z</time>
      </trkpt>
      <trkpt lat="45.871934434399009" lon="8.371300064027309">
        <ele>855.12</ele>
        <time>2021-11-07T08:35:19Z</time>
      </trkpt>
      <trkpt lat="45.871932087466121" lon="8.371236445382237">
        <ele>857.27999999999997</ele>
        <time>2021-11-07T08:35:30Z</time>
      </trkpt>
      <trkpt lat="45.872000567615032" lon="8.371292436495423">
        <ele>858.89999999999998</ele>
        <time>2021-11-07T08:35:42Z</time>
      </trkpt>
      <trkpt lat="45.872073406353593" lon="8.371329735964537">
        <ele>861.41999999999996</ele>
        <time>2021-11-07T08:35:55Z</time>
      </trkpt>
      <trkpt lat="45.872104838490486" lon="8.371358150616288">
        <ele>861.84000000000003</ele>
        <time>2021-11-07T08:36:08Z</time>
      </trkpt>
      <trkpt lat="45.872164182364941" lon="8.37127516977489">
        <ele>863.22000000000003</ele>
        <time>2021-11-07T08:36:19Z</time>
      </trkpt>
      <trkpt lat="45.872238948941231" lon="8.371173916384578">
        <ele>865.97000000000003</ele>
        <time>2021-11-07T08:36:33Z</time>
      </trkpt>
      <trkpt lat="45.872310530394316" lon="8.371068807318807">
        <ele>869.13</ele>
        <time>2021-11-07T08:36:49Z</time>
      </trkpt>
      <trkpt lat="45.872393595054746" lon="8.371079368516803">
        <ele>871.46000000000004</ele>
        <time>2021-11-07T08:37:03Z</time>
      </trkpt>
      <trkpt lat="45.872487723827362" lon="8.371176514774561">
        <ele>873.77999999999997</ele>
        <time>2021-11-07T08:37:18Z</time>
      </trkpt>
      <trkpt lat="45.872510857880116" lon="8.371174419298768">
        <ele>873.75999999999999</ele>
        <time>2021-11-07T08:37:21Z</time>
      </trkpt>
      <trkpt lat="45.87256777100265" lon="8.371203755959868">
        <ele>873.91999999999996</ele>
        <time>2021-11-07T08:37:27Z</time>
      </trkpt>
      <trkpt lat="45.872628707438707" lon="8.371238121762872">
        <ele>874.86000000000001</ele>
        <time>2021-11-07T08:37:32Z</time>
      </trkpt>
      <trkpt lat="45.872761392965913" lon="8.371338536962867">
        <ele>874.28999999999996</ele>
        <time>2021-11-07T08:37:45Z</time>
      </trkpt>
      <trkpt lat="45.872803302481771" lon="8.37137290276587">
        <ele>874.46000000000004</ele>
        <time>2021-11-07T08:37:50Z</time>
      </trkpt>
      <trkpt lat="45.872840099036694" lon="8.371385056525469">
        <ele>874.60000000000002</ele>
        <time>2021-11-07T08:37:55Z</time>
      </trkpt>
      <trkpt lat="45.87286289781332" lon="8.371609607711434">
        <ele>873.87</ele>
        <time>2021-11-07T08:38:09Z</time>
      </trkpt>
      <trkpt lat="45.872870022431016" lon="8.371650092303753">
        <ele>874.08000000000004</ele>
        <time>2021-11-07T08:38:21Z</time>
      </trkpt>
      <trkpt lat="45.872868429869413" lon="8.371616899967194">
        <ele>873.64999999999998</ele>
        <time>2021-11-07T08:38:27Z</time>
      </trkpt>
      <trkpt lat="45.872869351878762" lon="8.371554287150502">
        <ele>873.63</ele>
        <time>2021-11-07T08:38:38Z</time>
      </trkpt>
      <trkpt lat="45.872906567528844" lon="8.371595945209265">
        <ele>873.63</ele>
        <time>2021-11-07T08:38:51Z</time>
      </trkpt>
      <trkpt lat="45.872914027422667" lon="8.371602902188897">
        <ele>873.62</ele>
        <time>2021-11-07T08:38:52Z</time>
      </trkpt>
      <trkpt lat="45.873039839789271" lon="8.371660904958844">
        <ele>872.62</ele>
        <time>2021-11-07T08:39:06Z</time>
      </trkpt>
      <trkpt lat="45.873157018795609" lon="8.371721087023616">
        <ele>872.95000000000005</ele>
        <time>2021-11-07T08:39:18Z</time>
      </trkpt>
      <trkpt lat="45.873180152848363" lon="8.37171689607203">
        <ele>872.90999999999997</ele>
        <time>2021-11-07T08:39:21Z</time>
      </trkpt>
      <trkpt lat="45.873226672410965" lon="8.371700802817941">
        <ele>872.64999999999998</ele>
        <time>2021-11-07T08:39:25Z</time>
      </trkpt>
      <trkpt lat="45.873346365988255" lon="8.371643135324121">
        <ele>872.13</ele>
        <time>2021-11-07T08:39:37Z</time>
      </trkpt>
      <trkpt lat="45.873476369306445" lon="8.371609188616276">
        <ele>872.48000000000002</ele>
        <time>2021-11-07T08:39:48Z</time>
      </trkpt>
      <trkpt lat="45.8735943865031" lon="8.371632909402251">
        <ele>872.75</ele>
        <time>2021-11-07T08:39:59Z</time>
      </trkpt>
      <trkpt lat="45.873695723712444" lon="8.371674902737141">
        <ele>873.46000000000004</ele>
        <time>2021-11-07T08:40:10Z</time>
      </trkpt>
      <trkpt lat="45.873761856928468" lon="8.371674316003919">
        <ele>873.62</ele>
        <time>2021-11-07T08:40:17Z</time>
      </trkpt>
      <trkpt lat="45.87389437481761" lon="8.371623437851667">
        <ele>874.78999999999996</ele>
        <time>2021-11-07T08:40:32Z</time>
      </trkpt>
      <trkpt lat="45.874012224376202" lon="8.37158789858222">
        <ele>875.78999999999996</ele>
        <time>2021-11-07T08:40:45Z</time>
      </trkpt>
      <trkpt lat="45.874021360650659" lon="8.371585132554174">
        <ele>875.75999999999999</ele>
        <time>2021-11-07T08:40:46Z</time>
      </trkpt>
      <trkpt lat="45.874064359813929" lon="8.371556047350168">
        <ele>876.28999999999996</ele>
        <time>2021-11-07T08:40:52Z</time>
      </trkpt>
      <trkpt lat="45.874181119725108" lon="8.37148773483932">
        <ele>877.94000000000005</ele>
        <time>2021-11-07T08:41:05Z</time>
      </trkpt>
      <trkpt lat="45.874313386157155" lon="8.3714007306844">
        <ele>879.74000000000001</ele>
        <time>2021-11-07T08:41:22Z</time>
      </trkpt>
      <trkpt lat="45.874390248209238" lon="8.371307691559196">
        <ele>881.04999999999995</ele>
        <time>2021-11-07T08:41:35Z</time>
      </trkpt>
      <trkpt lat="45.874464344233274" lon="8.371169809252024">
        <ele>881.72000000000003</ele>
        <time>2021-11-07T08:41:49Z</time>
      </trkpt>
      <trkpt lat="45.874505834653974" lon="8.371078278869391">
        <ele>883.40999999999997</ele>
        <time>2021-11-07T08:42:01Z</time>
      </trkpt>
      <trkpt lat="45.87450860068202" lon="8.371046092361212">
        <ele>882.96000000000004</ele>
        <time>2021-11-07T08:42:03Z</time>
      </trkpt>
      <trkpt lat="45.874521676450968" lon="8.370934277772903">
        <ele>883.48000000000002</ele>
        <time>2021-11-07T08:42:12Z</time>
      </trkpt>
      <trkpt lat="45.874539278447628" lon="8.370883902534843">
        <ele>883.73000000000002</ele>
        <time>2021-11-07T08:42:27Z</time>
      </trkpt>
      <trkpt lat="45.874534836038947" lon="8.370788851752877">
        <ele>884.08000000000004</ele>
        <time>2021-11-07T08:42:37Z</time>
      </trkpt>
      <trkpt lat="45.874522179365158" lon="8.3706409111619">
        <ele>884.75999999999999</ele>
        <time>2021-11-07T08:42:52Z</time>
      </trkpt>
      <trkpt lat="45.874518239870667" lon="8.370485259220004">
        <ele>885.80999999999995</ele>
        <time>2021-11-07T08:43:06Z</time>
      </trkpt>
      <trkpt lat="45.874541290104389" lon="8.370424741879106">
        <ele>886.41999999999996</ele>
        <time>2021-11-07T08:43:11Z</time>
      </trkpt>
      <trkpt lat="45.874626785516739" lon="8.370310496538878">
        <ele>887.25999999999999</ele>
        <time>2021-11-07T08:43:22Z</time>
      </trkpt>
      <trkpt lat="45.874705743044615" lon="8.370191892609">
        <ele>888.84000000000003</ele>
        <time>2021-11-07T08:43:33Z</time>
      </trkpt>
      <trkpt lat="45.874761650338769" lon="8.370053423568606">
        <ele>890.80999999999995</ele>
        <time>2021-11-07T08:43:45Z</time>
      </trkpt>
      <trkpt lat="45.874802218750119" lon="8.369934316724539">
        <ele>891.32000000000005</ele>
        <time>2021-11-07T08:43:55Z</time>
      </trkpt>
      <trkpt lat="45.874841110780835" lon="8.369860891252756">
        <ele>891.76999999999998</ele>
        <time>2021-11-07T08:44:00Z</time>
      </trkpt>
      <trkpt lat="45.874947812408209" lon="8.369672130793333">
        <ele>893.26999999999998</ele>
        <time>2021-11-07T08:44:14Z</time>
      </trkpt>
      <trkpt lat="45.874972539022565" lon="8.36963877081871">
        <ele>893.19000000000005</ele>
        <time>2021-11-07T08:44:17Z</time>
      </trkpt>
      <trkpt lat="45.874993745237589" lon="8.369578756392002">
        <ele>893.88</ele>
        <time>2021-11-07T08:44:28Z</time>
      </trkpt>
      <trkpt lat="45.875008078292012" lon="8.369550509378314">
        <ele>894.13999999999999</ele>
        <time>2021-11-07T08:44:38Z</time>
      </trkpt>
      <trkpt lat="45.87502459064126" lon="8.369556963443756">
        <ele>893.98000000000002</ele>
        <time>2021-11-07T08:44:40Z</time>
      </trkpt>
      <trkpt lat="45.875061973929405" lon="8.369615552946925">
        <ele>894.26999999999998</ele>
        <time>2021-11-07T08:44:50Z</time>
      </trkpt>
      <trkpt lat="45.875132633373141" lon="8.369584120810032">
        <ele>895.00999999999999</ele>
        <time>2021-11-07T08:44:59Z</time>
      </trkpt>
      <trkpt lat="45.875282669439912" lon="8.369479263201356">
        <ele>896.76999999999998</ele>
        <time>2021-11-07T08:45:17Z</time>
      </trkpt>
      <trkpt lat="45.875391718000174" lon="8.369385050609708">
        <ele>898.36000000000001</ele>
        <time>2021-11-07T08:45:30Z</time>
      </trkpt>
      <trkpt lat="45.875533707439899" lon="8.369279270991683">
        <ele>900.50999999999999</ele>
        <time>2021-11-07T08:45:47Z</time>
      </trkpt>
      <trkpt lat="45.875564217567444" lon="8.369261920452118">
        <ele>901.49000000000001</ele>
        <time>2021-11-07T08:45:52Z</time>
      </trkpt>
      <trkpt lat="45.875592213124037" lon="8.369225794449449">
        <ele>902.16999999999996</ele>
        <time>2021-11-07T08:45:56Z</time>
      </trkpt>
      <trkpt lat="45.875667063519359" lon="8.369129402562976">
        <ele>904.00999999999999</ele>
        <time>2021-11-07T08:46:09Z</time>
      </trkpt>
      <trkpt lat="45.875749289989471" lon="8.369033597409725">
        <ele>906.27999999999997</ele>
        <time>2021-11-07T08:46:23Z</time>
      </trkpt>
      <trkpt lat="45.875828415155411" lon="8.368938295170665">
        <ele>908.55999999999995</ele>
        <time>2021-11-07T08:46:38Z</time>
      </trkpt>
      <trkpt lat="45.875889351591468" lon="8.368865204975009">
        <ele>911.10000000000002</ele>
        <time>2021-11-07T08:46:52Z</time>
      </trkpt>
      <trkpt lat="45.875977529212832" lon="8.368803597986698">
        <ele>913.59000000000003</ele>
        <time>2021-11-07T08:47:07Z</time>
      </trkpt>
      <trkpt lat="45.8760448358953" lon="8.368718102574348">
        <ele>915.85000000000002</ele>
        <time>2021-11-07T08:47:21Z</time>
      </trkpt>
      <trkpt lat="45.87610736489296" lon="8.368612742051482">
        <ele>917.60000000000002</ele>
        <time>2021-11-07T08:47:35Z</time>
      </trkpt>
      <trkpt lat="45.876186825335026" lon="8.368506208062172">
        <ele>919.73000000000002</ele>
        <time>2021-11-07T08:47:49Z</time>
      </trkpt>
      <trkpt lat="45.876267543062568" lon="8.368373773992062">
        <ele>921.74000000000001</ele>
        <time>2021-11-07T08:48:05Z</time>
      </trkpt>
      <trkpt lat="45.876335604116321" lon="8.368289452046156">
        <ele>923.48000000000002</ele>
        <time>2021-11-07T08:48:17Z</time>
      </trkpt>
      <trkpt lat="45.876437108963728" lon="8.368179565295577">
        <ele>925.61000000000001</ele>
        <time>2021-11-07T08:48:31Z</time>
      </trkpt>
      <trkpt lat="45.876536602154374" lon="8.368020057678223">
        <ele>928.13999999999999</ele>
        <time>2021-11-07T08:48:48Z</time>
      </trkpt>
      <trkpt lat="45.876623019576073" lon="8.36787723004818">
        <ele>930.79999999999995</ele>
        <time>2021-11-07T08:49:05Z</time>
      </trkpt>
      <trkpt lat="45.876717064529657" lon="8.367735324427486">
        <ele>933.39999999999998</ele>
        <time>2021-11-07T08:49:24Z</time>
      </trkpt>
      <trkpt lat="45.876767439767718" lon="8.367610685527325">
        <ele>934.46000000000004</ele>
        <time>2021-11-07T08:49:37Z</time>
      </trkpt>
      <trkpt lat="45.876809600740671" lon="8.367455955594778">
        <ele>935.73000000000002</ele>
        <time>2021-11-07T08:49:53Z</time>
      </trkpt>
      <trkpt lat="45.876888390630484" lon="8.367313295602799">
        <ele>936.48000000000002</ele>
        <time>2021-11-07T08:50:07Z</time>
      </trkpt>
      <trkpt lat="45.876900209113955" lon="8.367302315309644">
        <ele>938.42999999999995</ele>
        <time>2021-11-07T08:50:10Z</time>
      </trkpt>
      <trkpt lat="45.876898113638163" lon="8.367290077731013">
        <ele>938.11000000000001</ele>
        <time>2021-11-07T08:50:21Z</time>
      </trkpt>
      <trkpt lat="45.876925773918629" lon="8.367256466299295">
        <ele>939.08000000000004</ele>
        <time>2021-11-07T08:50:37Z</time>
      </trkpt>
      <trkpt lat="45.876927953213453" lon="8.367239870131016">
        <ele>938.55999999999995</ele>
        <time>2021-11-07T08:50:55Z</time>
      </trkpt>
      <trkpt lat="45.876939939334989" lon="8.367211539298296">
        <ele>939.58000000000004</ele>
        <time>2021-11-07T08:51:12Z</time>
      </trkpt>
      <trkpt lat="45.87693365290761" lon="8.36721858009696">
        <ele>939.5</ele>
        <time>2021-11-07T08:51:27Z</time>
      </trkpt>
      <trkpt lat="45.876919403672218" lon="8.367202151566744">
        <ele>940.03999999999996</ele>
        <time>2021-11-07T08:51:47Z</time>
      </trkpt>
      <trkpt lat="45.876910435035825" lon="8.367237271741033">
        <ele>939.79999999999995</ele>
        <time>2021-11-07T08:52:08Z</time>
      </trkpt>
      <trkpt lat="45.876907501369715" lon="8.367262501269579">
        <ele>940.38999999999999</ele>
        <time>2021-11-07T08:52:26Z</time>
      </trkpt>
      <trkpt lat="45.876885205507278" lon="8.367282953113318">
        <ele>939.32000000000005</ele>
        <time>2021-11-07T08:52:51Z</time>
      </trkpt>
      <trkpt lat="45.876882942393422" lon="8.367300555109978">
        <ele>940.09000000000003</ele>
        <time>2021-11-07T08:53:15Z</time>
      </trkpt>
      <trkpt lat="45.876891491934657" lon="8.367299633100629">
        <ele>940.11000000000001</ele>
        <time>2021-11-07T08:53:38Z</time>
      </trkpt>
      <trkpt lat="45.876899119466543" lon="8.367285802960396">
        <ele>940.00999999999999</ele>
        <time>2021-11-07T08:53:52Z</time>
      </trkpt>
      <trkpt lat="45.876901634037495" lon="8.367200810462236">
        <ele>941.00999999999999</ele>
        <time>2021-11-07T08:54:07Z</time>
      </trkpt>
      <trkpt lat="45.876931305974722" lon="8.367036608979106">
        <ele>944.10000000000002</ele>
        <time>2021-11-07T08:54:20Z</time>
      </trkpt>
      <trkpt lat="45.876948740333319" lon="8.366911634802818">
        <ele>947.13999999999999</ele>
        <time>2021-11-07T08:54:33Z</time>
      </trkpt>
      <trkpt lat="45.876955110579729" lon="8.366792695596814">
        <ele>949.40999999999997</ele>
        <time>2021-11-07T08:54:45Z</time>
      </trkpt>
      <trkpt lat="45.876983189955354" lon="8.366630589589477">
        <ele>952.53999999999996</ele>
        <time>2021-11-07T08:55:02Z</time>
      </trkpt>
      <trkpt lat="45.877018226310611" lon="8.366444678977132">
        <ele>955.44000000000005</ele>
        <time>2021-11-07T08:55:19Z</time>
      </trkpt>
      <trkpt lat="45.877092909067869" lon="8.366323141381145">
        <ele>957.50999999999999</ele>
        <time>2021-11-07T08:55:35Z</time>
      </trkpt>
      <trkpt lat="45.877176644280553" lon="8.366279890760779">
        <ele>959.70000000000005</ele>
        <time>2021-11-07T08:55:50Z</time>
      </trkpt>
      <trkpt lat="45.877277897670865" lon="8.366208476945758">
        <ele>962.5</ele>
        <time>2021-11-07T08:56:07Z</time>
      </trkpt>
      <trkpt lat="45.877344869077206" lon="8.366161538287997">
        <ele>965.03999999999996</ele>
        <time>2021-11-07T08:56:21Z</time>
      </trkpt>
      <trkpt lat="45.877454001456499" lon="8.366149971261621">
        <ele>967.64999999999998</ele>
        <time>2021-11-07T08:56:37Z</time>
      </trkpt>
      <trkpt lat="45.877541759982705" lon="8.366093393415213">
        <ele>970.19000000000005</ele>
        <time>2021-11-07T08:56:54Z</time>
      </trkpt>
      <trkpt lat="45.877612000331283" lon="8.366057686507702">
        <ele>971.5</ele>
        <time>2021-11-07T08:57:05Z</time>
      </trkpt>
      <trkpt lat="45.877649299800396" lon="8.36609959602356">
        <ele>973.13999999999999</ele>
        <time>2021-11-07T08:57:16Z</time>
      </trkpt>
      <trkpt lat="45.877591548487544" lon="8.366193389520049">
        <ele>974.13999999999999</ele>
        <time>2021-11-07T08:57:28Z</time>
      </trkpt>
      <trkpt lat="45.877517620101571" lon="8.366309562698007">
        <ele>975.76999999999998</ele>
        <time>2021-11-07T08:57:41Z</time>
      </trkpt>
      <trkpt lat="45.877496832981706" lon="8.366355579346418">
        <ele>976.14999999999998</ele>
        <time>2021-11-07T08:57:45Z</time>
      </trkpt>
      <trkpt lat="45.877462048083544" lon="8.366369577124715">
        <ele>976.53999999999996</ele>
        <time>2021-11-07T08:58:00Z</time>
      </trkpt>
      <trkpt lat="45.877463137730956" lon="8.366360608488321">
        <ele>976.39999999999998</ele>
        <time>2021-11-07T08:58:03Z</time>
      </trkpt>
      <trkpt lat="45.877481745555997" lon="8.366307970136404">
        <ele>976.88999999999999</ele>
        <time>2021-11-07T08:58:12Z</time>
      </trkpt>
      <trkpt lat="45.877498090267181" lon="8.36629799567163">
        <ele>977.10000000000002</ele>
        <time>2021-11-07T08:58:14Z</time>
      </trkpt>
      <trkpt lat="45.877606635913253" lon="8.366169082000852">
        <ele>979.11000000000001</ele>
        <time>2021-11-07T08:58:29Z</time>
      </trkpt>
      <trkpt lat="45.877697244286537" lon="8.366042179986835">
        <ele>980.86000000000001</ele>
        <time>2021-11-07T08:58:44Z</time>
      </trkpt>
      <trkpt lat="45.877712164074183" lon="8.366022147238255">
        <ele>981.10000000000002</ele>
        <time>2021-11-07T08:58:59Z</time>
      </trkpt>
      <trkpt lat="45.877728508785367" lon="8.366036145016551">
        <ele>980.58000000000004</ele>
        <time>2021-11-07T08:59:15Z</time>
      </trkpt>
      <trkpt lat="45.8777423389256" lon="8.366057351231575">
        <ele>980.74000000000001</ele>
        <time>2021-11-07T08:59:32Z</time>
      </trkpt>
      <trkpt lat="45.877761952579021" lon="8.36599700152874">
        <ele>981.41999999999996</ele>
        <time>2021-11-07T08:59:46Z</time>
      </trkpt>
      <trkpt lat="45.877780728042126" lon="8.365994989871979">
        <ele>981.72000000000003</ele>
        <time>2021-11-07T09:00:01Z</time>
      </trkpt>
      <trkpt lat="45.877803610637784" lon="8.366046119481325">
        <ele>982.19000000000005</ele>
        <time>2021-11-07T09:00:15Z</time>
      </trkpt>
      <trkpt lat="45.877779554575682" lon="8.366180816665292">
        <ele>983.01999999999998</ele>
        <time>2021-11-07T09:00:28Z</time>
      </trkpt>
      <trkpt lat="45.8777648024261" lon="8.366234544664621">
        <ele>983.27999999999997</ele>
        <time>2021-11-07T09:00:43Z</time>
      </trkpt>
      <trkpt lat="45.877783410251141" lon="8.366305036470294">
        <ele>984.75999999999999</ele>
        <time>2021-11-07T09:00:53Z</time>
      </trkpt>
      <trkpt lat="45.877829426899552" lon="8.366368738934398">
        <ele>987.28999999999996</ele>
        <time>2021-11-07T09:01:06Z</time>
      </trkpt>
      <trkpt lat="45.877853315323591" lon="8.366427998989821">
        <ele>989.19000000000005</ele>
        <time>2021-11-07T09:01:18Z</time>
      </trkpt>
      <trkpt lat="45.877885753288865" lon="8.366467980667949">
        <ele>989.53999999999996</ele>
        <time>2021-11-07T09:01:30Z</time>
      </trkpt>
      <trkpt lat="45.877932440489531" lon="8.366514751687646">
        <ele>990.55999999999995</ele>
        <time>2021-11-07T09:01:41Z</time>
      </trkpt>
      <trkpt lat="45.877967644482851" lon="8.36653109639883">
        <ele>992.25999999999999</ele>
        <time>2021-11-07T09:01:53Z</time>
      </trkpt>
      <trkpt lat="45.877972505986691" lon="8.366556745022535">
        <ele>992.27999999999997</ele>
        <time>2021-11-07T09:02:07Z</time>
      </trkpt>
      <trkpt lat="45.877993209287524" lon="8.366615250706673">
        <ele>994.74000000000001</ele>
        <time>2021-11-07T09:02:22Z</time>
      </trkpt>
      <trkpt lat="45.878039477393031" lon="8.366562109440565">
        <ele>997.85000000000002</ele>
        <time>2021-11-07T09:02:38Z</time>
      </trkpt>
      <trkpt lat="45.878086918964982" lon="8.366537215188146">
        <ele>1000.25</ele>
        <time>2021-11-07T09:02:52Z</time>
      </trkpt>
      <trkpt lat="45.878113489598036" lon="8.3664929587394">
        <ele>1002.91</ele>
        <time>2021-11-07T09:03:09Z</time>
      </trkpt>
      <trkpt lat="45.878132013604045" lon="8.36646756157279">
        <ele>1005.61</ele>
        <time>2021-11-07T09:03:24Z</time>
      </trkpt>
      <trkpt lat="45.878155566751957" lon="8.366424897685647">
        <ele>1007.78</ele>
        <time>2021-11-07T09:03:39Z</time>
      </trkpt>
      <trkpt lat="45.878209210932255" lon="8.366392711177468">
        <ele>1010.62</ele>
        <time>2021-11-07T09:03:56Z</time>
      </trkpt>
      <trkpt lat="45.87826319038868" lon="8.36650812998414">
        <ele>1012.77</ele>
        <time>2021-11-07T09:04:15Z</time>
      </trkpt>
      <trkpt lat="45.878307446837425" lon="8.36655062623322">
        <ele>1015.23</ele>
        <time>2021-11-07T09:04:27Z</time>
      </trkpt>
      <trkpt lat="45.878412472084165" lon="8.366597900167108">
        <ele>1018.05</ele>
        <time>2021-11-07T09:04:44Z</time>
      </trkpt>
      <trkpt lat="45.878441473469138" lon="8.366552218794823">
        <ele>1019.95</ele>
        <time>2021-11-07T09:04:58Z</time>
      </trkpt>
      <trkpt lat="45.878490591421723" lon="8.366656322032213">
        <ele>1022.73</ele>
        <time>2021-11-07T09:05:14Z</time>
      </trkpt>
      <trkpt lat="45.878567956387997" lon="8.366743074730039">
        <ele>1024.99</ele>
        <time>2021-11-07T09:05:29Z</time>
      </trkpt>
      <trkpt lat="45.878655882552266" lon="8.366784732788801">
        <ele>1027.5899999999999</ele>
        <time>2021-11-07T09:05:45Z</time>
      </trkpt>
      <trkpt lat="45.878739450126886" lon="8.366855308413506">
        <ele>1029.95</ele>
        <time>2021-11-07T09:06:02Z</time>
      </trkpt>
      <trkpt lat="45.878820000216365" lon="8.366892440244556">
        <ele>1032.1600000000001</ele>
        <time>2021-11-07T09:06:17Z</time>
      </trkpt>
      <trkpt lat="45.87884908542037" lon="8.366935690864921">
        <ele>1032.5</ele>
        <time>2021-11-07T09:06:22Z</time>
      </trkpt>
      <trkpt lat="45.878881942480803" lon="8.367046331986785">
        <ele>1033.54</ele>
        <time>2021-11-07T09:06:34Z</time>
      </trkpt>
      <trkpt lat="45.878942795097828" lon="8.367122523486614">
        <ele>1036.27</ele>
        <time>2021-11-07T09:06:50Z</time>
      </trkpt>
      <trkpt lat="45.879001216962934" lon="8.367198882624507">
        <ele>1039.1600000000001</ele>
        <time>2021-11-07T09:07:05Z</time>
      </trkpt>
      <trkpt lat="45.879018986597657" lon="8.367328383028507">
        <ele>1041.54</ele>
        <time>2021-11-07T09:07:22Z</time>
      </trkpt>
      <trkpt lat="45.879074893891811" lon="8.367360066622496">
        <ele>1042.3800000000001</ele>
        <time>2021-11-07T09:07:33Z</time>
      </trkpt>
      <trkpt lat="45.879181930795312" lon="8.367334334179759">
        <ele>1044.77</ele>
        <time>2021-11-07T09:07:48Z</time>
      </trkpt>
      <trkpt lat="45.879256697371602" lon="8.36730751208961">
        <ele>1046.29</ele>
        <time>2021-11-07T09:08:01Z</time>
      </trkpt>
      <trkpt lat="45.87934847921133" lon="8.367283791303635">
        <ele>1047.8699999999999</ele>
        <time>2021-11-07T09:08:16Z</time>
      </trkpt>
      <trkpt lat="45.879437075927854" lon="8.367298794910312">
        <ele>1050.3099999999999</ele>
        <time>2021-11-07T09:08:31Z</time>
      </trkpt>
      <trkpt lat="45.879539921879768" lon="8.367365682497621">
        <ele>1053.3</ele>
        <time>2021-11-07T09:08:47Z</time>
      </trkpt>
      <trkpt lat="45.879636565223336" lon="8.367467019706965">
        <ele>1055.5</ele>
        <time>2021-11-07T09:09:03Z</time>
      </trkpt>
      <trkpt lat="45.879708649590611" lon="8.367527117952704">
        <ele>1057.8499999999999</ele>
        <time>2021-11-07T09:09:20Z</time>
      </trkpt>
      <trkpt lat="45.879778051748872" lon="8.367554023861885">
        <ele>1060.1600000000001</ele>
        <time>2021-11-07T09:09:32Z</time>
      </trkpt>
      <trkpt lat="45.879847537726164" lon="8.367566596716642">
        <ele>1062.22</ele>
        <time>2021-11-07T09:09:44Z</time>
      </trkpt>
      <trkpt lat="45.879982402548194" lon="8.367607081308961">
        <ele>1064.6199999999999</ele>
        <time>2021-11-07T09:10:01Z</time>
      </trkpt>
      <trkpt lat="45.880112238228321" lon="8.367618899792433">
        <ele>1066.4200000000001</ele>
        <time>2021-11-07T09:10:16Z</time>
      </trkpt>
      <trkpt lat="45.880213156342506" lon="8.367624683305621">
        <ele>1067.99</ele>
        <time>2021-11-07T09:10:30Z</time>
      </trkpt>
      <trkpt lat="45.880260095000267" lon="8.367578079923987">
        <ele>1068.1700000000001</ele>
        <time>2021-11-07T09:10:49Z</time>
      </trkpt>
      <trkpt lat="45.880285995081067" lon="8.367586629465222">
        <ele>1068.8299999999999</ele>
        <time>2021-11-07T09:11:06Z</time>
      </trkpt>
      <trkpt lat="45.880338884890079" lon="8.367601800709963">
        <ele>1069.3099999999999</ele>
        <time>2021-11-07T09:11:22Z</time>
      </trkpt>
      <trkpt lat="45.880446843802929" lon="8.367562741041184">
        <ele>1072.28</ele>
        <time>2021-11-07T09:11:37Z</time>
      </trkpt>
      <trkpt lat="45.880492692813277" lon="8.367454363033176">
        <ele>1073.48</ele>
        <time>2021-11-07T09:11:53Z</time>
      </trkpt>
      <trkpt lat="45.880487412214279" lon="8.367446148768067">
        <ele>1075.1400000000001</ele>
        <time>2021-11-07T09:11:56Z</time>
      </trkpt>
      <trkpt lat="45.880441898480058" lon="8.367398958653212">
        <ele>1076.1099999999999</ele>
        <time>2021-11-07T09:12:10Z</time>
      </trkpt>
      <trkpt lat="45.880419770255685" lon="8.367329724133015">
        <ele>1078.1700000000001</ele>
        <time>2021-11-07T09:12:24Z</time>
      </trkpt>
      <trkpt lat="45.880341483280063" lon="8.367251353338361">
        <ele>1080.7</ele>
        <time>2021-11-07T09:12:41Z</time>
      </trkpt>
      <trkpt lat="45.880282055586576" lon="8.367168288677931">
        <ele>1081.8399999999999</ele>
        <time>2021-11-07T09:12:56Z</time>
      </trkpt>
      <trkpt lat="45.880212485790253" lon="8.367042560130358">
        <ele>1082.1500000000001</ele>
        <time>2021-11-07T09:13:10Z</time>
      </trkpt>
      <trkpt lat="45.880150627344847" lon="8.366922782734036">
        <ele>1083.4200000000001</ele>
        <time>2021-11-07T09:13:23Z</time>
      </trkpt>
      <trkpt lat="45.880092708393931" lon="8.366853296756744">
        <ele>1084.72</ele>
        <time>2021-11-07T09:13:37Z</time>
      </trkpt>
      <trkpt lat="45.880055744200945" lon="8.366791941225529">
        <ele>1086.1099999999999</ele>
        <time>2021-11-07T09:13:49Z</time>
      </trkpt>
      <trkpt lat="45.880004866048694" lon="8.366698734462261">
        <ele>1088.02</ele>
        <time>2021-11-07T09:14:03Z</time>
      </trkpt>
      <trkpt lat="45.879919119179249" lon="8.366601001471281">
        <ele>1090.3099999999999</ele>
        <time>2021-11-07T09:14:18Z</time>
      </trkpt>
      <trkpt lat="45.87987033650279" lon="8.366543836891651">
        <ele>1092</ele>
        <time>2021-11-07T09:14:31Z</time>
      </trkpt>
      <trkpt lat="45.879835467785597" lon="8.366472674533725">
        <ele>1094.01</ele>
        <time>2021-11-07T09:14:49Z</time>
      </trkpt>
      <trkpt lat="45.879819374531507" lon="8.366405535489321">
        <ele>1096.5899999999999</ele>
        <time>2021-11-07T09:15:03Z</time>
      </trkpt>
      <trkpt lat="45.87980579584837" lon="8.366382904350758">
        <ele>1096.3499999999999</ele>
        <time>2021-11-07T09:15:23Z</time>
      </trkpt>
      <trkpt lat="45.879783164709806" lon="8.366291876882315">
        <ele>1098.26</ele>
        <time>2021-11-07T09:15:43Z</time>
      </trkpt>
      <trkpt lat="45.879750140011311" lon="8.366232449188829">
        <ele>1098.5799999999999</ele>
        <time>2021-11-07T09:15:57Z</time>
      </trkpt>
      <trkpt lat="45.879714349284768" lon="8.366201939061284">
        <ele>1098.5699999999999</ele>
        <time>2021-11-07T09:16:08Z</time>
      </trkpt>
      <trkpt lat="45.879707811400294" lon="8.366203531622887">
        <ele>1098.3199999999999</ele>
        <time>2021-11-07T09:16:18Z</time>
      </trkpt>
      <trkpt lat="45.879693059250712" lon="8.366160532459617">
        <ele>1098.46</ele>
        <time>2021-11-07T09:16:33Z</time>
      </trkpt>
      <trkpt lat="45.879712421447039" lon="8.366093980148435">
        <ele>1099.75</ele>
        <time>2021-11-07T09:16:45Z</time>
      </trkpt>
      <trkpt lat="45.87972616776824" lon="8.366035558283329">
        <ele>1100.98</ele>
        <time>2021-11-07T09:16:59Z</time>
      </trkpt>
      <trkpt lat="45.879722395911813" lon="8.366044946014881">
        <ele>1100.9200000000001</ele>
        <time>2021-11-07T09:17:21Z</time>
      </trkpt>
      <trkpt lat="45.879716528579593" lon="8.366042179986835">
        <ele>1100.9200000000001</ele>
        <time>2021-11-07T09:17:39Z</time>
      </trkpt>
      <trkpt lat="45.879725161939859" lon="8.366027595475316">
        <ele>1100.72</ele>
        <time>2021-11-07T09:18:05Z</time>
      </trkpt>
      <trkpt lat="45.879740249365568" lon="8.365958360955119">
        <ele>1101.03</ele>
        <time>2021-11-07T09:18:17Z</time>
      </trkpt>
      <trkpt lat="45.879770005121827" lon="8.365820646286011">
        <ele>1101.52</ele>
        <time>2021-11-07T09:18:32Z</time>
      </trkpt>
      <trkpt lat="45.879776543006301" lon="8.365676058456302">
        <ele>1102.1199999999999</ele>
        <time>2021-11-07T09:18:46Z</time>
      </trkpt>
      <trkpt lat="45.879789534956217" lon="8.365507330745459">
        <ele>1102.9300000000001</ele>
        <time>2021-11-07T09:19:00Z</time>
      </trkpt>
      <trkpt lat="45.879793055355549" lon="8.365346482023597">
        <ele>1104.4100000000001</ele>
        <time>2021-11-07T09:19:15Z</time>
      </trkpt>
      <trkpt lat="45.879831863567233" lon="8.365174569189549">
        <ele>1106.25</ele>
        <time>2021-11-07T09:19:30Z</time>
      </trkpt>
      <trkpt lat="45.879873689264059" lon="8.365055965259671">
        <ele>1107.95</ele>
        <time>2021-11-07T09:19:44Z</time>
      </trkpt>
      <trkpt lat="45.879905372858047" lon="8.364954208955169">
        <ele>1108.3699999999999</ele>
        <time>2021-11-07T09:19:55Z</time>
      </trkpt>
      <trkpt lat="45.87995289824903" lon="8.36478715762496">
        <ele>1109.51</ele>
        <time>2021-11-07T09:20:11Z</time>
      </trkpt>
      <trkpt lat="45.879989443346858" lon="8.364669224247336">
        <ele>1112.46</ele>
        <time>2021-11-07T09:20:27Z</time>
      </trkpt>
      <trkpt lat="45.880023557692766" lon="8.364602755755186">
        <ele>1114.01</ele>
        <time>2021-11-07T09:20:36Z</time>
      </trkpt>
      <trkpt lat="45.880070496350527" lon="8.364428747445345">
        <ele>1115.25</ele>
        <time>2021-11-07T09:20:51Z</time>
      </trkpt>
      <trkpt lat="45.880093714222312" lon="8.364283153787255">
        <ele>1116.1600000000001</ele>
        <time>2021-11-07T09:21:04Z</time>
      </trkpt>
      <trkpt lat="45.880143838003278" lon="8.364154240116477">
        <ele>1118.0799999999999</ele>
        <time>2021-11-07T09:21:18Z</time>
      </trkpt>
      <trkpt lat="45.880177784711123" lon="8.36396723985672">
        <ele>1120.3900000000001</ele>
        <time>2021-11-07T09:21:36Z</time>
      </trkpt>
      <trkpt lat="45.880220448598266" lon="8.363853665068746">
        <ele>1122.5</ele>
        <time>2021-11-07T09:21:50Z</time>
      </trkpt>
      <trkpt lat="45.880242073908448" lon="8.363763391971588">
        <ele>1125.0999999999999</ele>
        <time>2021-11-07T09:22:05Z</time>
      </trkpt>
      <trkpt lat="45.880275182425976" lon="8.363659791648388">
        <ele>1127.6400000000001</ele>
        <time>2021-11-07T09:22:23Z</time>
      </trkpt>
      <trkpt lat="45.880277026444674" lon="8.363568764179945">
        <ele>1130.01</ele>
        <time>2021-11-07T09:22:38Z</time>
      </trkpt>
      <trkpt lat="45.880249114707112" lon="8.363475641235709">
        <ele>1131.8599999999999</ele>
        <time>2021-11-07T09:22:54Z</time>
      </trkpt>
      <trkpt lat="45.880238888785243" lon="8.363426355645061">
        <ele>1132.5899999999999</ele>
        <time>2021-11-07T09:23:09Z</time>
      </trkpt>
      <trkpt lat="45.880248695611954" lon="8.363326694816351">
        <ele>1135.3599999999999</ele>
        <time>2021-11-07T09:23:27Z</time>
      </trkpt>
      <trkpt lat="45.880248360335827" lon="8.363198786973953">
        <ele>1138.3800000000001</ele>
        <time>2021-11-07T09:23:44Z</time>
      </trkpt>
      <trkpt lat="45.880227740854025" lon="8.363063670694828">
        <ele>1141.01</ele>
        <time>2021-11-07T09:24:00Z</time>
      </trkpt>
      <trkpt lat="45.880216173827648" lon="8.362938947975636">
        <ele>1143.2</ele>
        <time>2021-11-07T09:24:18Z</time>
      </trkpt>
      <trkpt lat="45.88022262789309" lon="8.362854793667793">
        <ele>1144.96</ele>
        <time>2021-11-07T09:24:33Z</time>
      </trkpt>
      <trkpt lat="45.880209552124143" lon="8.362746415659785">
        <ele>1147.46</ele>
        <time>2021-11-07T09:24:50Z</time>
      </trkpt>
      <trkpt lat="45.880219442769885" lon="8.362668296322227">
        <ele>1149.1500000000001</ele>
        <time>2021-11-07T09:25:04Z</time>
      </trkpt>
      <trkpt lat="45.880219442769885" lon="8.362594535574317">
        <ele>1151.3699999999999</ele>
        <time>2021-11-07T09:25:21Z</time>
      </trkpt>
      <trkpt lat="45.880221202969551" lon="8.362545920535922">
        <ele>1152.99</ele>
        <time>2021-11-07T09:25:41Z</time>
      </trkpt>
      <trkpt lat="45.880212066695094" lon="8.36250577121973">
        <ele>1153.3499999999999</ele>
        <time>2021-11-07T09:25:57Z</time>
      </trkpt>
      <trkpt lat="45.880200834944844" lon="8.362413654103875">
        <ele>1156.51</ele>
        <time>2021-11-07T09:26:12Z</time>
      </trkpt>
      <trkpt lat="45.880191279575229" lon="8.362340815365315">
        <ele>1159.25</ele>
        <time>2021-11-07T09:26:29Z</time>
      </trkpt>
      <trkpt lat="45.880179041996598" lon="8.362301168963313">
        <ele>1160.6500000000001</ele>
        <time>2021-11-07T09:26:47Z</time>
      </trkpt>
      <trkpt lat="45.880168313160539" lon="8.362210895866156">
        <ele>1162.98</ele>
        <time>2021-11-07T09:27:03Z</time>
      </trkpt>
      <trkpt lat="45.880169235169888" lon="8.362095728516579">
        <ele>1166.1199999999999</ele>
        <time>2021-11-07T09:27:20Z</time>
      </trkpt>
      <trkpt lat="45.880191782489419" lon="8.362029092386365">
        <ele>1168.1199999999999</ele>
        <time>2021-11-07T09:27:36Z</time>
      </trkpt>
      <trkpt lat="45.880219945684075" lon="8.361941501498222">
        <ele>1170.72</ele>
        <time>2021-11-07T09:27:53Z</time>
      </trkpt>
      <trkpt lat="45.880221035331488" lon="8.361877631396055">
        <ele>1172.6600000000001</ele>
        <time>2021-11-07T09:28:07Z</time>
      </trkpt>
      <trkpt lat="45.880226315930486" lon="8.361816611140966">
        <ele>1174.52</ele>
        <time>2021-11-07T09:28:22Z</time>
      </trkpt>
      <trkpt lat="45.88023679330945" lon="8.361780904233456">
        <ele>1176.0799999999999</ele>
        <time>2021-11-07T09:28:33Z</time>
      </trkpt>
      <trkpt lat="45.880240062251687" lon="8.361750980839133">
        <ele>1177.3399999999999</ele>
        <time>2021-11-07T09:28:49Z</time>
      </trkpt>
      <trkpt lat="45.880244839936495" lon="8.361669760197401">
        <ele>1179.96</ele>
        <time>2021-11-07T09:29:05Z</time>
      </trkpt>
      <trkpt lat="45.880222795531154" lon="8.361545372754335">
        <ele>1183</ele>
        <time>2021-11-07T09:29:24Z</time>
      </trkpt>
      <trkpt lat="45.880188681185246" lon="8.361474210396409">
        <ele>1185.01</ele>
        <time>2021-11-07T09:29:37Z</time>
      </trkpt>
      <trkpt lat="45.880143502727151" lon="8.361393325030804">
        <ele>1187.8099999999999</ele>
        <time>2021-11-07T09:29:54Z</time>
      </trkpt>
      <trkpt lat="45.880095474421978" lon="8.361290562897921">
        <ele>1190.1700000000001</ele>
        <time>2021-11-07T09:30:10Z</time>
      </trkpt>
      <trkpt lat="45.880064377561212" lon="8.361172378063202">
        <ele>1192.3800000000001</ele>
        <time>2021-11-07T09:30:26Z</time>
      </trkpt>
      <trkpt lat="45.880014505237341" lon="8.36103642359376">
        <ele>1195.25</ele>
        <time>2021-11-07T09:30:46Z</time>
      </trkpt>
      <trkpt lat="45.880011906847358" lon="8.360966015607119">
        <ele>1197.51</ele>
        <time>2021-11-07T09:30:59Z</time>
      </trkpt>
      <trkpt lat="45.880039231851697" lon="8.361017480492592">
        <ele>1199.6500000000001</ele>
        <time>2021-11-07T09:31:13Z</time>
      </trkpt>
      <trkpt lat="45.880104610696435" lon="8.361064922064543">
        <ele>1201.46</ele>
        <time>2021-11-07T09:31:25Z</time>
      </trkpt>
      <trkpt lat="45.88017082773149" lon="8.361093336716294">
        <ele>1203.1400000000001</ele>
        <time>2021-11-07T09:31:38Z</time>
      </trkpt>
      <trkpt lat="45.880177700892091" lon="8.361019659787417">
        <ele>1205.1199999999999</ele>
        <time>2021-11-07T09:31:53Z</time>
      </trkpt>
      <trkpt lat="45.88015909306705" lon="8.360935589298606">
        <ele>1206.97</ele>
        <time>2021-11-07T09:32:07Z</time>
      </trkpt>
      <trkpt lat="45.880155991762877" lon="8.360824948176742">
        <ele>1209.3099999999999</ele>
        <time>2021-11-07T09:32:23Z</time>
      </trkpt>
      <trkpt lat="45.880176108330488" lon="8.360714055597782">
        <ele>1212.1500000000001</ele>
        <time>2021-11-07T09:32:40Z</time>
      </trkpt>
      <trkpt lat="45.880224974825978" lon="8.360597295686603">
        <ele>1214.47</ele>
        <time>2021-11-07T09:32:56Z</time>
      </trkpt>
      <trkpt lat="45.88028272613883" lon="8.360645826905966">
        <ele>1216.5999999999999</ele>
        <time>2021-11-07T09:33:11Z</time>
      </trkpt>
      <trkpt lat="45.880309296771884" lon="8.360719922930002">
        <ele>1218</ele>
        <time>2021-11-07T09:33:22Z</time>
      </trkpt>
      <trkpt lat="45.880366796627641" lon="8.360754121094942">
        <ele>1220.02</ele>
        <time>2021-11-07T09:33:35Z</time>
      </trkpt>
      <trkpt lat="45.880412645637989" lon="8.360694190487266">
        <ele>1221.78</ele>
        <time>2021-11-07T09:33:50Z</time>
      </trkpt>
      <trkpt lat="45.880411388352513" lon="8.360697459429503">
        <ele>1221.72</ele>
        <time>2021-11-07T09:34:12Z</time>
      </trkpt>
      <trkpt lat="45.880408538505435" lon="8.360694944858551">
        <ele>1222</ele>
        <time>2021-11-07T09:34:33Z</time>
      </trkpt>
      <trkpt lat="45.880455477163196" lon="8.360666194930673">
        <ele>1222.6700000000001</ele>
        <time>2021-11-07T09:34:43Z</time>
      </trkpt>
      <trkpt lat="45.880465535447001" lon="8.360667200759053">
        <ele>1223.1099999999999</ele>
        <time>2021-11-07T09:34:53Z</time>
      </trkpt>
      <trkpt lat="45.880460925400257" lon="8.360705422237515">
        <ele>1222.1099999999999</ele>
        <time>2021-11-07T09:35:14Z</time>
      </trkpt>
      <trkpt lat="45.880452794954181" lon="8.360701147466898">
        <ele>1222.1500000000001</ele>
        <time>2021-11-07T09:35:25Z</time>
      </trkpt>
      <trkpt lat="45.880441647022963" lon="8.360712546855211">
        <ele>1222.1600000000001</ele>
        <time>2021-11-07T09:35:35Z</time>
      </trkpt>
      <trkpt lat="45.880443239584565" lon="8.36071640253067">
        <ele>1221.1400000000001</ele>
        <time>2021-11-07T09:35:56Z</time>
      </trkpt>
      <trkpt lat="45.880440892651677" lon="8.360715061426163">
        <ele>1222.1400000000001</ele>
        <time>2021-11-07T09:36:18Z</time>
      </trkpt>
      <trkpt lat="45.880438378080726" lon="8.360717911273241">
        <ele>1222.1700000000001</ele>
        <time>2021-11-07T09:36:33Z</time>
      </trkpt>
      <trkpt lat="45.880442233756185" lon="8.360726544633508">
        <ele>1221.9300000000001</ele>
        <time>2021-11-07T09:36:52Z</time>
      </trkpt>
      <trkpt lat="45.880437791347504" lon="8.360726712271571">
        <ele>1222.28</ele>
        <time>2021-11-07T09:37:09Z</time>
      </trkpt>
      <trkpt lat="45.880438461899757" lon="8.360718414187431">
        <ele>1222.03</ele>
        <time>2021-11-07T09:37:27Z</time>
      </trkpt>
      <trkpt lat="45.880436785519123" lon="8.360697710886598">
        <ele>1221.76</ele>
        <time>2021-11-07T09:37:52Z</time>
      </trkpt>
      <trkpt lat="45.880446508526802" lon="8.360668793320656">
        <ele>1222.3800000000001</ele>
        <time>2021-11-07T09:38:11Z</time>
      </trkpt>
      <trkpt lat="45.880503505468369" lon="8.360584555193782">
        <ele>1223.2</ele>
        <time>2021-11-07T09:38:24Z</time>
      </trkpt>
      <trkpt lat="45.880563352257013" lon="8.3604955393821">
        <ele>1223.47</ele>
        <time>2021-11-07T09:38:41Z</time>
      </trkpt>
      <trkpt lat="45.880617247894406" lon="8.360410295426846">
        <ele>1223.1600000000001</ele>
        <time>2021-11-07T09:38:53Z</time>
      </trkpt>
      <trkpt lat="45.880661839619279" lon="8.360285069793463">
        <ele>1220.8800000000001</ele>
        <time>2021-11-07T09:39:06Z</time>
      </trkpt>
      <trkpt lat="45.88070148602128" lon="8.360145343467593">
        <ele>1218.5599999999999</ele>
        <time>2021-11-07T09:39:20Z</time>
      </trkpt>
      <trkpt lat="45.880748843774199" lon="8.359982063993812">
        <ele>1216.48</ele>
        <time>2021-11-07T09:39:34Z</time>
      </trkpt>
      <trkpt lat="45.880809193477035" lon="8.35986664518714">
        <ele>1217.1700000000001</ele>
        <time>2021-11-07T09:39:49Z</time>
      </trkpt>
      <trkpt lat="45.880865771323442" lon="8.359777294099331">
        <ele>1219.6900000000001</ele>
        <time>2021-11-07T09:40:05Z</time>
      </trkpt>
      <trkpt lat="45.880890330299735" lon="8.359700934961438">
        <ele>1221.5799999999999</ele>
        <time>2021-11-07T09:40:19Z</time>
      </trkpt>
      <trkpt lat="45.880944980308414" lon="8.359629102051258">
        <ele>1224.02</ele>
        <time>2021-11-07T09:40:35Z</time>
      </trkpt>
      <trkpt lat="45.880966689437628" lon="8.35956615395844">
        <ele>1224.8900000000001</ele>
        <time>2021-11-07T09:40:46Z</time>
      </trkpt>
      <trkpt lat="45.881000384688377" lon="8.359534218907356">
        <ele>1226.05</ele>
        <time>2021-11-07T09:41:00Z</time>
      </trkpt>
      <trkpt lat="45.881060063838959" lon="8.359517455101013">
        <ele>1228.5599999999999</ele>
        <time>2021-11-07T09:41:13Z</time>
      </trkpt>
      <trkpt lat="45.881109517067671" lon="8.359403796494007">
        <ele>1230.1600000000001</ele>
        <time>2021-11-07T09:41:26Z</time>
      </trkpt>
      <trkpt lat="45.881147990003228" lon="8.3593247551471">
        <ele>1230.9100000000001</ele>
        <time>2021-11-07T09:41:41Z</time>
      </trkpt>
      <trkpt lat="45.881149666383862" lon="8.359325844794512">
        <ele>1230.78</ele>
        <time>2021-11-07T09:42:08Z</time>
      </trkpt>
      <trkpt lat="45.881151091307402" lon="8.359322659671307">
        <ele>1230.49</ele>
        <time>2021-11-07T09:42:37Z</time>
      </trkpt>
      <trkpt lat="45.881189983338118" lon="8.359267422929406">
        <ele>1230.96</ele>
        <time>2021-11-07T09:42:48Z</time>
      </trkpt>
      <trkpt lat="45.881251841783524" lon="8.359180837869644">
        <ele>1232.98</ele>
        <time>2021-11-07T09:43:03Z</time>
      </trkpt>
      <trkpt lat="45.881308587267995" lon="8.359123254194856">
        <ele>1235.1800000000001</ele>
        <time>2021-11-07T09:43:17Z</time>
      </trkpt>
      <trkpt lat="45.881352089345455" lon="8.359054271131754">
        <ele>1237.0899999999999</ele>
        <time>2021-11-07T09:43:29Z</time>
      </trkpt>
      <trkpt lat="45.881406152620912" lon="8.359051840379834">
        <ele>1239.49</ele>
        <time>2021-11-07T09:43:42Z</time>
      </trkpt>
      <trkpt lat="45.881429789587855" lon="8.359027113765478">
        <ele>1240.1600000000001</ele>
        <time>2021-11-07T09:43:53Z</time>
      </trkpt>
      <trkpt lat="45.881438087671995" lon="8.359024180099368">
        <ele>1240.95</ele>
        <time>2021-11-07T09:44:09Z</time>
      </trkpt>
      <trkpt lat="45.881510088220239" lon="8.358963076025248">
        <ele>1243.5999999999999</ele>
        <time>2021-11-07T09:44:22Z</time>
      </trkpt>
      <trkpt lat="45.881567755714059" lon="8.358874982222915">
        <ele>1246.74</ele>
        <time>2021-11-07T09:44:36Z</time>
      </trkpt>
      <trkpt lat="45.881625590845942" lon="8.358774818480015">
        <ele>1249.75</ele>
        <time>2021-11-07T09:44:49Z</time>
      </trkpt>
      <trkpt lat="45.881667081266642" lon="8.358694100752473">
        <ele>1250.9000000000001</ele>
        <time>2021-11-07T09:45:00Z</time>
      </trkpt>
      <trkpt lat="45.88174662552774" lon="8.358564767986536">
        <ele>1252.8599999999999</ele>
        <time>2021-11-07T09:45:15Z</time>
      </trkpt>
      <trkpt lat="45.881793145090342" lon="8.358455132693052">
        <ele>1253.6199999999999</ele>
        <time>2021-11-07T09:45:28Z</time>
      </trkpt>
      <trkpt lat="45.881819548085332" lon="8.358385059982538">
        <ele>1254.25</ele>
        <time>2021-11-07T09:45:45Z</time>
      </trkpt>
      <trkpt lat="45.881891883909702" lon="8.358261594548821">
        <ele>1256.6500000000001</ele>
        <time>2021-11-07T09:46:01Z</time>
      </trkpt>
      <trkpt lat="45.881895655766129" lon="8.358231838792563">
        <ele>1257.8</ele>
        <time>2021-11-07T09:46:13Z</time>
      </trkpt>
      <trkpt lat="45.881937397643924" lon="8.358184900134802">
        <ele>1259.7</ele>
        <time>2021-11-07T09:46:27Z</time>
      </trkpt>
      <trkpt lat="45.882003027945757" lon="8.358081467449665">
        <ele>1262.6800000000001</ele>
        <time>2021-11-07T09:46:41Z</time>
      </trkpt>
      <trkpt lat="45.882088020443916" lon="8.357962779700756">
        <ele>1265.4400000000001</ele>
        <time>2021-11-07T09:46:57Z</time>
      </trkpt>
      <trkpt lat="45.882141329348087" lon="8.357912404462695">
        <ele>1267.26</ele>
        <time>2021-11-07T09:47:08Z</time>
      </trkpt>
      <trkpt lat="45.88221768848598" lon="8.357772091403604">
        <ele>1270.2</ele>
        <time>2021-11-07T09:47:25Z</time>
      </trkpt>
      <trkpt lat="45.882286252453923" lon="8.35770646110177">
        <ele>1272.1099999999999</ele>
        <time>2021-11-07T09:47:38Z</time>
      </trkpt>
      <trkpt lat="45.882303519174457" lon="8.357665473595262">
        <ele>1272.4300000000001</ele>
        <time>2021-11-07T09:47:42Z</time>
      </trkpt>
      <trkpt lat="45.882309721782804" lon="8.357615852728486">
        <ele>1272.03</ele>
        <time>2021-11-07T09:47:53Z</time>
      </trkpt>
      <trkpt lat="45.882374597713351" lon="8.357568746432662">
        <ele>1274.5899999999999</ele>
        <time>2021-11-07T09:48:06Z</time>
      </trkpt>
      <trkpt lat="45.882430337369442" lon="8.357493979856372">
        <ele>1277.3</ele>
        <time>2021-11-07T09:48:23Z</time>
      </trkpt>
      <trkpt lat="45.882444167509675" lon="8.357470678165555">
        <ele>1278.27</ele>
        <time>2021-11-07T09:48:36Z</time>
      </trkpt>
      <trkpt lat="45.882459590211511" lon="8.357418710365892">
        <ele>1279.3</ele>
        <time>2021-11-07T09:48:47Z</time>
      </trkpt>
      <trkpt lat="45.882451543584466" lon="8.357387278228998">
        <ele>1279.49</ele>
        <time>2021-11-07T09:49:00Z</time>
      </trkpt>
      <trkpt lat="45.882479958236217" lon="8.357330868020654">
        <ele>1279.9200000000001</ele>
        <time>2021-11-07T09:49:10Z</time>
      </trkpt>
      <trkpt lat="45.882506361231208" lon="8.357270685955882">
        <ele>1280.28</ele>
        <time>2021-11-07T09:49:19Z</time>
      </trkpt>
      <trkpt lat="45.882563106715679" lon="8.357154345139861">
        <ele>1279.8499999999999</ele>
        <time>2021-11-07T09:49:34Z</time>
      </trkpt>
      <trkpt lat="45.882556736469269" lon="8.357057869434357">
        <ele>1279.6500000000001</ele>
        <time>2021-11-07T09:49:47Z</time>
      </trkpt>
      <trkpt lat="45.882564364001155" lon="8.357037166133523">
        <ele>1280.0699999999999</ele>
        <time>2021-11-07T09:50:04Z</time>
      </trkpt>
      <trkpt lat="45.88259537704289" lon="8.356935074552894">
        <ele>1281.5599999999999</ele>
        <time>2021-11-07T09:50:16Z</time>
      </trkpt>
      <trkpt lat="45.882629072293639" lon="8.356826361268759">
        <ele>1284.4400000000001</ele>
        <time>2021-11-07T09:50:33Z</time>
      </trkpt>
      <trkpt lat="45.882637035101652" lon="8.356723347678781">
        <ele>1287.5999999999999</ele>
        <time>2021-11-07T09:50:50Z</time>
      </trkpt>
      <trkpt lat="45.882650949060917" lon="8.356640031561256">
        <ele>1290.6800000000001</ele>
        <time>2021-11-07T09:51:07Z</time>
      </trkpt>
      <trkpt lat="45.882684392854571" lon="8.356623183935881">
        <ele>1292.5699999999999</ele>
        <time>2021-11-07T09:51:21Z</time>
      </trkpt>
      <trkpt lat="45.882727894932032" lon="8.356570713222027">
        <ele>1295.0999999999999</ele>
        <time>2021-11-07T09:51:38Z</time>
      </trkpt>
      <trkpt lat="45.882727224379778" lon="8.356547160074115">
        <ele>1296.3499999999999</ele>
        <time>2021-11-07T09:51:55Z</time>
      </trkpt>
      <trkpt lat="45.882717501372099" lon="8.356463676318526">
        <ele>1298.79</ele>
        <time>2021-11-07T09:52:08Z</time>
      </trkpt>
      <trkpt lat="45.882712304592133" lon="8.356404583901167">
        <ele>1300.0699999999999</ele>
        <time>2021-11-07T09:52:21Z</time>
      </trkpt>
      <trkpt lat="45.882715154439211" lon="8.356391843408346">
        <ele>1300.7</ele>
        <time>2021-11-07T09:52:39Z</time>
      </trkpt>
      <trkpt lat="45.882712388411164" lon="8.356366949155927">
        <ele>1301.23</ele>
        <time>2021-11-07T09:53:00Z</time>
      </trkpt>
      <trkpt lat="45.882717249915004" lon="8.356319004669786">
        <ele>1302.6900000000001</ele>
        <time>2021-11-07T09:53:13Z</time>
      </trkpt>
      <trkpt lat="45.882711717858911" lon="8.356280028820038">
        <ele>1303.3599999999999</ele>
        <time>2021-11-07T09:53:27Z</time>
      </trkpt>
      <trkpt lat="45.882718591019511" lon="8.356232587248087">
        <ele>1304.52</ele>
        <time>2021-11-07T09:53:44Z</time>
      </trkpt>
      <trkpt lat="45.882735438644886" lon="8.356228983029723">
        <ele>1305.55</ele>
        <time>2021-11-07T09:53:56Z</time>
      </trkpt>
      <trkpt lat="45.882738959044218" lon="8.356187576428056">
        <ele>1307.29</ele>
        <time>2021-11-07T09:54:11Z</time>
      </trkpt>
      <trkpt lat="45.882766870781779" lon="8.356154635548592">
        <ele>1309.6700000000001</ele>
        <time>2021-11-07T09:54:24Z</time>
      </trkpt>
      <trkpt lat="45.882782628759742" lon="8.356216242536902">
        <ele>1310.9400000000001</ele>
        <time>2021-11-07T09:54:36Z</time>
      </trkpt>
      <trkpt lat="45.882827639579773" lon="8.3562664501369">
        <ele>1312.96</ele>
        <time>2021-11-07T09:54:47Z</time>
      </trkpt>
      <trkpt lat="45.882837781682611" lon="8.356279945001006">
        <ele>1312.9200000000001</ele>
        <time>2021-11-07T09:54:59Z</time>
      </trkpt>
      <trkpt lat="45.882883714511991" lon="8.356251865625382">
        <ele>1312.9400000000001</ele>
        <time>2021-11-07T09:55:13Z</time>
      </trkpt>
      <trkpt lat="45.882899891585112" lon="8.356193779036403">
        <ele>1312.9000000000001</ele>
        <time>2021-11-07T09:55:22Z</time>
      </trkpt>
      <trkpt lat="45.882898299023509" lon="8.356210375204682">
        <ele>1311.8800000000001</ele>
        <time>2021-11-07T09:55:34Z</time>
      </trkpt>
      <trkpt lat="45.882903160527349" lon="8.356208615005016">
        <ele>1312.5799999999999</ele>
        <time>2021-11-07T09:56:05Z</time>
      </trkpt>
      <trkpt lat="45.882907854393125" lon="8.356209537014365">
        <ele>1313.01</ele>
        <time>2021-11-07T09:56:17Z</time>
      </trkpt>
      <trkpt lat="45.882906680926681" lon="8.356209453195334">
        <ele>1312.8499999999999</ele>
        <time>2021-11-07T09:56:30Z</time>
      </trkpt>
      <trkpt lat="45.882930066436529" lon="8.356134267523885">
        <ele>1312.05</ele>
        <time>2021-11-07T09:56:40Z</time>
      </trkpt>
      <trkpt lat="45.88293400593102" lon="8.356118509545922">
        <ele>1313.03</ele>
        <time>2021-11-07T09:56:45Z</time>
      </trkpt>
      <trkpt lat="45.883006593212485" lon="8.356006946414709">
        <ele>1313.4400000000001</ele>
        <time>2021-11-07T09:56:58Z</time>
      </trkpt>
      <trkpt lat="45.883070211857557" lon="8.355937795713544">
        <ele>1316.74</ele>
        <time>2021-11-07T09:57:11Z</time>
      </trkpt>
      <trkpt lat="45.883135590702295" lon="8.355886330828071">
        <ele>1319.79</ele>
        <time>2021-11-07T09:57:25Z</time>
      </trkpt>
      <trkpt lat="45.883198119699955" lon="8.35584769025445">
        <ele>1322.4200000000001</ele>
        <time>2021-11-07T09:57:38Z</time>
      </trkpt>
      <trkpt lat="45.883218487724662" lon="8.355810809880495">
        <ele>1322.77</ele>
        <time>2021-11-07T09:57:42Z</time>
      </trkpt>
      <trkpt lat="45.883239861577749" lon="8.355762362480164">
        <ele>1322.1400000000001</ele>
        <time>2021-11-07T09:57:46Z</time>
      </trkpt>
      <trkpt lat="45.883339522406459" lon="8.355663791298866">
        <ele>1319.46</ele>
        <time>2021-11-07T09:58:01Z</time>
      </trkpt>
      <trkpt lat="45.883408086374402" lon="8.355585504323244">
        <ele>1317.6099999999999</ele>
        <time>2021-11-07T09:58:13Z</time>
      </trkpt>
      <trkpt lat="45.883420156314969" lon="8.355521466583014">
        <ele>1316.99</ele>
        <time>2021-11-07T09:58:27Z</time>
      </trkpt>
      <trkpt lat="45.883456198498607" lon="8.355429600924254">
        <ele>1315.9300000000001</ele>
        <time>2021-11-07T09:58:38Z</time>
      </trkpt>
      <trkpt lat="45.883489474654198" lon="8.355404539033771">
        <ele>1316.8</ele>
        <time>2021-11-07T09:58:50Z</time>
      </trkpt>
      <trkpt lat="45.883500035852194" lon="8.355377800762653">
        <ele>1316.1099999999999</ele>
        <time>2021-11-07T09:59:02Z</time>
      </trkpt>
      <trkpt lat="45.883510848507285" lon="8.355296747758985">
        <ele>1313.0899999999999</ele>
        <time>2021-11-07T09:59:16Z</time>
      </trkpt>
      <trkpt lat="45.883501209318638" lon="8.355230530723929">
        <ele>1312.53</ele>
        <time>2021-11-07T09:59:29Z</time>
      </trkpt>
      <trkpt lat="45.883483774960041" lon="8.355184346437454">
        <ele>1311.48</ele>
        <time>2021-11-07T09:59:43Z</time>
      </trkpt>
      <trkpt lat="45.883485535159707" lon="8.355164397507906">
        <ele>1311.0999999999999</ele>
        <time>2021-11-07T09:59:47Z</time>
      </trkpt>
      <trkpt lat="45.883529288694263" lon="8.35511670447886">
        <ele>1311.75</ele>
        <time>2021-11-07T10:00:00Z</time>
      </trkpt>
      <trkpt lat="45.883572958409786" lon="8.355159284546971">
        <ele>1314.77</ele>
        <time>2021-11-07T10:00:16Z</time>
      </trkpt>
      <trkpt lat="45.883617298677564" lon="8.355142856016755">
        <ele>1316.0799999999999</ele>
        <time>2021-11-07T10:00:30Z</time>
      </trkpt>
      <trkpt lat="45.883665410801768" lon="8.355107149109244">
        <ele>1317.45</ele>
        <time>2021-11-07T10:00:44Z</time>
      </trkpt>
      <trkpt lat="45.883715366944671" lon="8.355059204623103">
        <ele>1319.3199999999999</ele>
        <time>2021-11-07T10:00:59Z</time>
      </trkpt>
      <trkpt lat="45.883741518482566" lon="8.355018887668848">
        <ele>1320.51</ele>
        <time>2021-11-07T10:01:10Z</time>
      </trkpt>
      <trkpt lat="45.883761383593082" lon="8.355046799406409">
        <ele>1322.04</ele>
        <time>2021-11-07T10:01:22Z</time>
      </trkpt>
      <trkpt lat="45.883801281452179" lon="8.355039590969682">
        <ele>1323.9300000000001</ele>
        <time>2021-11-07T10:01:38Z</time>
      </trkpt>
      <trkpt lat="45.88385266251862" lon="8.354989634826779">
        <ele>1325.3399999999999</ele>
        <time>2021-11-07T10:01:51Z</time>
      </trkpt>
      <trkpt lat="45.883896918967366" lon="8.35497697815299">
        <ele>1324.8599999999999</ele>
        <time>2021-11-07T10:02:03Z</time>
      </trkpt>
      <trkpt lat="45.883931536227465" lon="8.354934733361006">
        <ele>1323.25</ele>
        <time>2021-11-07T10:02:15Z</time>
      </trkpt>
      <trkpt lat="45.884005716070533" lon="8.354923836886883">
        <ele>1323.2</ele>
        <time>2021-11-07T10:02:30Z</time>
      </trkpt>
      <trkpt lat="45.884059779345989" lon="8.35490464232862">
        <ele>1324.0699999999999</ele>
        <time>2021-11-07T10:02:45Z</time>
      </trkpt>
      <trkpt lat="45.884123062714934" lon="8.354835826903582">
        <ele>1322.8199999999999</ele>
        <time>2021-11-07T10:02:55Z</time>
      </trkpt>
      <trkpt lat="45.8842508867383" lon="8.354770112782717">
        <ele>1323.23</ele>
        <time>2021-11-07T10:03:09Z</time>
      </trkpt>
      <trkpt lat="45.884285001084208" lon="8.354738177731633">
        <ele>1324.4400000000001</ele>
        <time>2021-11-07T10:03:15Z</time>
      </trkpt>
      <trkpt lat="45.884334538131952" lon="8.354717306792736">
        <ele>1325.3099999999999</ele>
        <time>2021-11-07T10:03:28Z</time>
      </trkpt>
      <trkpt lat="45.884382231160998" lon="8.35466030985117">
        <ele>1324.8299999999999</ele>
        <time>2021-11-07T10:03:43Z</time>
      </trkpt>
      <trkpt lat="45.884481221437454" lon="8.35461244918406">
        <ele>1326.6199999999999</ele>
        <time>2021-11-07T10:03:58Z</time>
      </trkpt>
      <trkpt lat="45.884497398510575" lon="8.354603983461857">
        <ele>1325.9100000000001</ele>
        <time>2021-11-07T10:04:00Z</time>
      </trkpt>
      <trkpt lat="45.884610470384359" lon="8.354563247412443">
        <ele>1326.9200000000001</ele>
        <time>2021-11-07T10:04:15Z</time>
      </trkpt>
      <trkpt lat="45.884691858664155" lon="8.354454282671213">
        <ele>1328.9000000000001</ele>
        <time>2021-11-07T10:04:29Z</time>
      </trkpt>
      <trkpt lat="45.884751537814736" lon="8.35437985137105">
        <ele>1331.1099999999999</ele>
        <time>2021-11-07T10:04:46Z</time>
      </trkpt>
      <trkpt lat="45.884790681302547" lon="8.354320088401437">
        <ele>1333.3900000000001</ele>
        <time>2021-11-07T10:05:07Z</time>
      </trkpt>
      <trkpt lat="45.884768720716238" lon="8.354275748133659">
        <ele>1333.6900000000001</ele>
        <time>2021-11-07T10:05:24Z</time>
      </trkpt>
      <trkpt lat="45.88479470461607" lon="8.354262337088585">
        <ele>1334.5</ele>
        <time>2021-11-07T10:05:44Z</time>
      </trkpt>
      <trkpt lat="45.884807696565986" lon="8.354271724820137">
        <ele>1336.1199999999999</ele>
        <time>2021-11-07T10:05:57Z</time>
      </trkpt>
      <trkpt lat="45.884825466200709" lon="8.354268120601773">
        <ele>1336.6199999999999</ele>
        <time>2021-11-07T10:06:15Z</time>
      </trkpt>
      <trkpt lat="45.884876344352961" lon="8.354266863316298">
        <ele>1338.0799999999999</ele>
        <time>2021-11-07T10:06:34Z</time>
      </trkpt>
      <trkpt lat="45.884910793974996" lon="8.354200646281242">
        <ele>1340.4000000000001</ele>
        <time>2021-11-07T10:06:52Z</time>
      </trkpt>
      <trkpt lat="45.884985644370317" lon="8.354146080091596">
        <ele>1341.04</ele>
        <time>2021-11-07T10:07:04Z</time>
      </trkpt>
      <trkpt lat="45.885068038478494" lon="8.354096626862884">
        <ele>1343.03</ele>
        <time>2021-11-07T10:07:17Z</time>
      </trkpt>
      <trkpt lat="45.885091256350279" lon="8.354060165584087">
        <ele>1342.1800000000001</ele>
        <time>2021-11-07T10:07:21Z</time>
      </trkpt>
      <trkpt lat="45.885178428143263" lon="8.353923540562391">
        <ele>1342.24</ele>
        <time>2021-11-07T10:07:34Z</time>
      </trkpt>
      <trkpt lat="45.88524523191154" lon="8.353854054585099">
        <ele>1344.3499999999999</ele>
        <time>2021-11-07T10:07:48Z</time>
      </trkpt>
      <trkpt lat="45.885275490581989" lon="8.353813821449876">
        <ele>1345.8</ele>
        <time>2021-11-07T10:08:06Z</time>
      </trkpt>
      <trkpt lat="45.885318154469132" lon="8.353803344070911">
        <ele>1347.26</ele>
        <time>2021-11-07T10:08:17Z</time>
      </trkpt>
      <trkpt lat="45.885344976559281" lon="8.35377543233335">
        <ele>1349.5799999999999</ele>
        <time>2021-11-07T10:08:28Z</time>
      </trkpt>
      <trkpt lat="45.885400045663118" lon="8.353711646050215">
        <ele>1350.6400000000001</ele>
        <time>2021-11-07T10:08:39Z</time>
      </trkpt>
      <trkpt lat="45.885480092838407" lon="8.35367719642818">
        <ele>1352.1300000000001</ele>
        <time>2021-11-07T10:08:50Z</time>
      </trkpt>
      <trkpt lat="45.885552763938904" lon="8.353603603318334">
        <ele>1353.71</ele>
        <time>2021-11-07T10:09:02Z</time>
      </trkpt>
      <trkpt lat="45.885595846921206" lon="8.353548785671592">
        <ele>1354.24</ele>
        <time>2021-11-07T10:09:13Z</time>
      </trkpt>
      <trkpt lat="45.885632392019033" lon="8.353462535887957">
        <ele>1354.99</ele>
        <time>2021-11-07T10:09:28Z</time>
      </trkpt>
      <trkpt lat="45.885657789185643" lon="8.353408304974437">
        <ele>1356.21</ele>
        <time>2021-11-07T10:09:38Z</time>
      </trkpt>
      <trkpt lat="45.885690143331885" lon="8.353296741843224">
        <ele>1355.74</ele>
        <time>2021-11-07T10:09:50Z</time>
      </trkpt>
      <trkpt lat="45.885720150545239" lon="8.353241421282291">
        <ele>1356.6300000000001</ele>
        <time>2021-11-07T10:10:02Z</time>
      </trkpt>
      <trkpt lat="45.8857187256217" lon="8.353151483461261">
        <ele>1358.6199999999999</ele>
        <time>2021-11-07T10:10:14Z</time>
      </trkpt>
      <trkpt lat="45.88575485162437" lon="8.353063892573118">
        <ele>1358.6099999999999</ele>
        <time>2021-11-07T10:10:25Z</time>
      </trkpt>
      <trkpt lat="45.885778488591313" lon="8.353014690801501">
        <ele>1359.9300000000001</ele>
        <time>2021-11-07T10:10:39Z</time>
      </trkpt>
      <trkpt lat="45.885795587673783" lon="8.352964567020536">
        <ele>1361.5599999999999</ele>
        <time>2021-11-07T10:10:52Z</time>
      </trkpt>
      <trkpt lat="45.88580665178597" lon="8.35291838273406">
        <ele>1362.53</ele>
        <time>2021-11-07T10:11:07Z</time>
      </trkpt>
      <trkpt lat="45.8858188893646" lon="8.352840011939406">
        <ele>1362.51</ele>
        <time>2021-11-07T10:11:23Z</time>
      </trkpt>
      <trkpt lat="45.885831881314516" lon="8.352791899815202">
        <ele>1363.45</ele>
        <time>2021-11-07T10:11:36Z</time>
      </trkpt>
      <trkpt lat="45.88584235869348" lon="8.352766837924719">
        <ele>1364.26</ele>
        <time>2021-11-07T10:11:53Z</time>
      </trkpt>
      <trkpt lat="45.885865744203329" lon="8.352732639759779">
        <ele>1366.0599999999999</ele>
        <time>2021-11-07T10:12:07Z</time>
      </trkpt>
      <trkpt lat="45.885877311229706" lon="8.352693160995841">
        <ele>1366.77</ele>
        <time>2021-11-07T10:12:29Z</time>
      </trkpt>
      <trkpt lat="45.885905222967267" lon="8.352672792971134">
        <ele>1369.47</ele>
        <time>2021-11-07T10:12:41Z</time>
      </trkpt>
      <trkpt lat="45.88592684827745" lon="8.352654436603189">
        <ele>1372.53</ele>
        <time>2021-11-07T10:12:51Z</time>
      </trkpt>
      <trkpt lat="45.885941684246063" lon="8.352584363892674">
        <ele>1374.05</ele>
        <time>2021-11-07T10:13:04Z</time>
      </trkpt>
      <trkpt lat="45.885960208252072" lon="8.352595428004861">
        <ele>1375.29</ele>
        <time>2021-11-07T10:13:09Z</time>
      </trkpt>
      <trkpt lat="45.886025335639715" lon="8.352589728310704">
        <ele>1377.3</ele>
        <time>2021-11-07T10:13:22Z</time>
      </trkpt>
      <trkpt lat="45.886048469692469" lon="8.352534407749772">
        <ele>1378.6300000000001</ele>
        <time>2021-11-07T10:13:34Z</time>
      </trkpt>
      <trkpt lat="45.886045452207327" lon="8.352531054988504">
        <ele>1379.1600000000001</ele>
        <time>2021-11-07T10:13:44Z</time>
      </trkpt>
      <trkpt lat="45.886059114709496" lon="8.352537928149104">
        <ele>1378.25</ele>
        <time>2021-11-07T10:14:12Z</time>
      </trkpt>
      <trkpt lat="45.886056432500482" lon="8.352522756904364">
        <ele>1377.8900000000001</ele>
        <time>2021-11-07T10:14:34Z</time>
      </trkpt>
      <trkpt lat="45.886067496612668" lon="8.352377833798528">
        <ele>1379.4200000000001</ele>
        <time>2021-11-07T10:14:49Z</time>
      </trkpt>
      <trkpt lat="45.886052995920181" lon="8.352249674499035">
        <ele>1379.5899999999999</ele>
        <time>2021-11-07T10:15:00Z</time>
      </trkpt>
      <trkpt lat="45.886084847152233" lon="8.352147750556469">
        <ele>1382.8</ele>
        <time>2021-11-07T10:15:14Z</time>
      </trkpt>
      <trkpt lat="45.886091804131866" lon="8.352106679230928">
        <ele>1383.48</ele>
        <time>2021-11-07T10:15:19Z</time>
      </trkpt>
      <trkpt lat="45.886123571544886" lon="8.35196552798152">
        <ele>1384.5</ele>
        <time>2021-11-07T10:15:32Z</time>
      </trkpt>
      <trkpt lat="45.886159865185618" lon="8.351883552968502">
        <ele>1383.29</ele>
        <time>2021-11-07T10:15:46Z</time>
      </trkpt>
      <trkpt lat="45.886181993409991" lon="8.351802919059992">
        <ele>1382.97</ele>
        <time>2021-11-07T10:16:03Z</time>
      </trkpt>
      <trkpt lat="45.886185429990292" lon="8.351733013987541">
        <ele>1385.6099999999999</ele>
        <time>2021-11-07T10:16:22Z</time>
      </trkpt>
      <trkpt lat="45.886188447475433" lon="8.351689344272018">
        <ele>1387.71</ele>
        <time>2021-11-07T10:16:37Z</time>
      </trkpt>
      <trkpt lat="45.886221053078771" lon="8.351575015112758">
        <ele>1389.3199999999999</ele>
        <time>2021-11-07T10:16:50Z</time>
      </trkpt>
      <trkpt lat="45.886262794956565" lon="8.351488849148154">
        <ele>1391.6800000000001</ele>
        <time>2021-11-07T10:17:05Z</time>
      </trkpt>
      <trkpt lat="45.886274864897132" lon="8.351449957117438">
        <ele>1393.3</ele>
        <time>2021-11-07T10:17:23Z</time>
      </trkpt>
      <trkpt lat="45.886289365589619" lon="8.351437132805586">
        <ele>1393.6199999999999</ele>
        <time>2021-11-07T10:17:40Z</time>
      </trkpt>
      <trkpt lat="45.886331694200635" lon="8.351390780881047">
        <ele>1395.5899999999999</ele>
        <time>2021-11-07T10:17:56Z</time>
      </trkpt>
      <trkpt lat="45.88634954765439" lon="8.351374939084053">
        <ele>1396.6400000000001</ele>
        <time>2021-11-07T10:18:08Z</time>
      </trkpt>
      <trkpt lat="45.886366227641702" lon="8.351331017911434">
        <ele>1398.3499999999999</ele>
        <time>2021-11-07T10:18:23Z</time>
      </trkpt>
      <trkpt lat="45.886359270662069" lon="8.351283241063356">
        <ele>1400.49</ele>
        <time>2021-11-07T10:18:37Z</time>
      </trkpt>
      <trkpt lat="45.886378213763237" lon="8.351274188607931">
        <ele>1402.3699999999999</ele>
        <time>2021-11-07T10:18:51Z</time>
      </trkpt>
      <trkpt lat="45.886397073045373" lon="8.351234458386898">
        <ele>1404.27</ele>
        <time>2021-11-07T10:19:03Z</time>
      </trkpt>
      <trkpt lat="45.886416519060731" lon="8.351185256615281">
        <ele>1406.3599999999999</ele>
        <time>2021-11-07T10:19:19Z</time>
      </trkpt>
      <trkpt lat="45.886456333100796" lon="8.351197661831975">
        <ele>1407.96</ele>
        <time>2021-11-07T10:19:32Z</time>
      </trkpt>
      <trkpt lat="45.886483322829008" lon="8.351197158917785">
        <ele>1408.8900000000001</ele>
        <time>2021-11-07T10:19:45Z</time>
      </trkpt>
      <trkpt lat="45.886504445225" lon="8.351166984066367">
        <ele>1411.49</ele>
        <time>2021-11-07T10:19:59Z</time>
      </trkpt>
      <trkpt lat="45.886514168232679" lon="8.351131277158856">
        <ele>1413.1099999999999</ele>
        <time>2021-11-07T10:20:12Z</time>
      </trkpt>
      <trkpt lat="45.886554401367903" lon="8.351120548322797">
        <ele>1415.29</ele>
        <time>2021-11-07T10:20:25Z</time>
      </trkpt>
      <trkpt lat="45.886583235114813" lon="8.351104119792581">
        <ele>1416.8099999999999</ele>
        <time>2021-11-07T10:20:35Z</time>
      </trkpt>
      <trkpt lat="45.88660360313952" lon="8.351092049852014">
        <ele>1417.1400000000001</ele>
        <time>2021-11-07T10:20:46Z</time>
      </trkpt>
      <trkpt lat="45.886598322540522" lon="8.351029353216291">
        <ele>1417.8499999999999</ele>
        <time>2021-11-07T10:20:58Z</time>
      </trkpt>
      <trkpt lat="45.886565633118153" lon="8.351021558046341">
        <ele>1419.05</ele>
        <time>2021-11-07T10:21:10Z</time>
      </trkpt>
      <trkpt lat="45.886564292013645" lon="8.351018456742168">
        <ele>1419.51</ele>
        <time>2021-11-07T10:21:25Z</time>
      </trkpt>
      <trkpt lat="45.886586084961891" lon="8.35094871930778">
        <ele>1419.6800000000001</ele>
        <time>2021-11-07T10:21:40Z</time>
      </trkpt>
      <trkpt lat="45.886575356125832" lon="8.350867414847016">
        <ele>1420.5799999999999</ele>
        <time>2021-11-07T10:21:51Z</time>
      </trkpt>
      <trkpt lat="45.886575942859054" lon="8.350763730704784">
        <ele>1420.6199999999999</ele>
        <time>2021-11-07T10:22:06Z</time>
      </trkpt>
      <trkpt lat="45.886568734422326" lon="8.350763311609626">
        <ele>1420.8099999999999</ele>
        <time>2021-11-07T10:22:18Z</time>
      </trkpt>
      <trkpt lat="45.886582732200623" lon="8.350820727646351">
        <ele>1420.6300000000001</ele>
        <time>2021-11-07T10:22:30Z</time>
      </trkpt>
      <trkpt lat="45.886579044163227" lon="8.350824918597937">
        <ele>1420.74</ele>
        <time>2021-11-07T10:22:48Z</time>
      </trkpt>
      <trkpt lat="45.886573428288102" lon="8.35085048340261">
        <ele>1420.9000000000001</ele>
        <time>2021-11-07T10:23:07Z</time>
      </trkpt>
      <trkpt lat="45.886579630896449" lon="8.350829863920808">
        <ele>1420.9400000000001</ele>
        <time>2021-11-07T10:23:24Z</time>
      </trkpt>
      <trkpt lat="45.886575356125832" lon="8.35081385448575">
        <ele>1420.6500000000001</ele>
        <time>2021-11-07T10:23:35Z</time>
      </trkpt>
      <trkpt lat="45.886580804362893" lon="8.350809244439006">
        <ele>1421.0599999999999</ele>
        <time>2021-11-07T10:23:50Z</time>
      </trkpt>
      <trkpt lat="45.886586420238018" lon="8.35081385448575">
        <ele>1420.8499999999999</ele>
        <time>2021-11-07T10:24:08Z</time>
      </trkpt>
      <trkpt lat="45.886584743857384" lon="8.350800108164549">
        <ele>1420.72</ele>
        <time>2021-11-07T10:24:22Z</time>
      </trkpt>
      <trkpt lat="45.886590862646699" lon="8.35078988224268">
        <ele>1419.9200000000001</ele>
        <time>2021-11-07T10:24:37Z</time>
      </trkpt>
      <trkpt lat="45.886590359732509" lon="8.35078694857657">
        <ele>1419.97</ele>
        <time>2021-11-07T10:25:16Z</time>
      </trkpt>
      <trkpt lat="45.886592622846365" lon="8.350790217518807">
        <ele>1420.1600000000001</ele>
        <time>2021-11-07T10:25:53Z</time>
      </trkpt>
      <trkpt lat="45.886588850989938" lon="8.350789295509458">
        <ele>1420.3399999999999</ele>
        <time>2021-11-07T10:26:24Z</time>
      </trkpt>
      <trkpt lat="45.8865752723068" lon="8.350794157013297">
        <ele>1420.24</ele>
        <time>2021-11-07T10:26:54Z</time>
      </trkpt>
      <trkpt lat="45.886567225679755" lon="8.350794827565551">
        <ele>1420.6900000000001</ele>
        <time>2021-11-07T10:27:24Z</time>
      </trkpt>
      <trkpt lat="45.886565549299121" lon="8.350799102336168">
        <ele>1420.6700000000001</ele>
        <time>2021-11-07T10:27:51Z</time>
      </trkpt>
      <trkpt lat="45.886566806584597" lon="8.350791810080409">
        <ele>1420.8199999999999</ele>
        <time>2021-11-07T10:28:23Z</time>
      </trkpt>
      <trkpt lat="45.886573512107134" lon="8.350769011303783">
        <ele>1420.96</ele>
        <time>2021-11-07T10:28:49Z</time>
      </trkpt>
      <trkpt lat="45.886566555127501" lon="8.350788289681077">
        <ele>1421.21</ele>
        <time>2021-11-07T10:29:08Z</time>
      </trkpt>
      <trkpt lat="45.886581810191274" lon="8.350803628563881">
        <ele>1421.4400000000001</ele>
        <time>2021-11-07T10:29:37Z</time>
      </trkpt>
      <trkpt lat="45.886585665866733" lon="8.3507991861552">
        <ele>1421.1300000000001</ele>
        <time>2021-11-07T10:30:21Z</time>
      </trkpt>
      <trkpt lat="45.886585582047701" lon="8.350802036002278">
        <ele>1421.47</ele>
        <time>2021-11-07T10:30:51Z</time>
      </trkpt>
      <trkpt lat="45.886588264256716" lon="8.350801700726152">
        <ele>1421.5899999999999</ele>
        <time>2021-11-07T10:31:17Z</time>
      </trkpt>
      <trkpt lat="45.886591700837016" lon="8.35080505348742">
        <ele>1421.53</ele>
        <time>2021-11-07T10:31:43Z</time>
      </trkpt>
      <trkpt lat="45.886588096618652" lon="8.35080161690712">
        <ele>1421.7</ele>
        <time>2021-11-07T10:32:14Z</time>
      </trkpt>
      <trkpt lat="45.88658700697124" lon="8.350797174498439">
        <ele>1421.98</ele>
        <time>2021-11-07T10:32:46Z</time>
      </trkpt>
      <trkpt lat="45.886587174609303" lon="8.35079088807106">
        <ele>1421.98</ele>
        <time>2021-11-07T10:33:19Z</time>
      </trkpt>
      <trkpt lat="45.88659287430346" lon="8.35079331882298">
        <ele>1421.95</ele>
        <time>2021-11-07T10:33:48Z</time>
      </trkpt>
      <trkpt lat="45.886590024456382" lon="8.35078988224268">
        <ele>1422.1900000000001</ele>
        <time>2021-11-07T10:34:12Z</time>
      </trkpt>
      <trkpt lat="45.886593544855714" lon="8.350791055709124">
        <ele>1422.1400000000001</ele>
        <time>2021-11-07T10:34:43Z</time>
      </trkpt>
      <trkpt lat="45.886586671695113" lon="8.350785858929157">
        <ele>1422.6800000000001</ele>
        <time>2021-11-07T10:35:23Z</time>
      </trkpt>
      <trkpt lat="45.886586336418986" lon="8.350796336308122">
        <ele>1422.6400000000001</ele>
        <time>2021-11-07T10:36:03Z</time>
      </trkpt>
      <trkpt lat="45.886586168780923" lon="8.350797928869724">
        <ele>1422.51</ele>
        <time>2021-11-07T10:36:43Z</time>
      </trkpt>
      <trkpt lat="45.886583486571908" lon="8.350793570280075">
        <ele>1422.95</ele>
        <time>2021-11-07T10:37:20Z</time>
      </trkpt>
      <trkpt lat="45.886590695008636" lon="8.350800778716803">
        <ele>1423.1400000000001</ele>
        <time>2021-11-07T10:38:00Z</time>
      </trkpt>
      <trkpt lat="45.886593880131841" lon="8.35080505348742">
        <ele>1423.4100000000001</ele>
        <time>2021-11-07T10:38:21Z</time>
      </trkpt>
      <trkpt lat="45.886595388874412" lon="8.350806059315801">
        <ele>1423.5999999999999</ele>
        <time>2021-11-07T10:39:04Z</time>
      </trkpt>
      <trkpt lat="45.886584827676415" lon="8.350807735696435">
        <ele>1423.4100000000001</ele>
        <time>2021-11-07T10:39:41Z</time>
      </trkpt>
      <trkpt lat="45.886582732200623" lon="8.350811339914799">
        <ele>1423.55</ele>
        <time>2021-11-07T10:40:05Z</time>
      </trkpt>
      <trkpt lat="45.886574350297451" lon="8.350811004638672">
        <ele>1423.51</ele>
        <time>2021-11-07T10:40:41Z</time>
      </trkpt>
      <trkpt lat="45.886583235114813" lon="8.35080748423934">
        <ele>1423.53</ele>
        <time>2021-11-07T10:41:19Z</time>
      </trkpt>
      <trkpt lat="45.886587342247367" lon="8.3508026227355">
        <ele>1423.6400000000001</ele>
        <time>2021-11-07T10:41:55Z</time>
      </trkpt>
      <trkpt lat="45.88658357039094" lon="8.350808573886752">
        <ele>1423.6400000000001</ele>
        <time>2021-11-07T10:42:36Z</time>
      </trkpt>
      <trkpt lat="45.886579379439354" lon="8.350808909162879">
        <ele>1423.6500000000001</ele>
        <time>2021-11-07T10:43:13Z</time>
      </trkpt>
      <trkpt lat="45.886574517935514" lon="8.350796336308122">
        <ele>1423.4400000000001</ele>
        <time>2021-11-07T10:43:50Z</time>
      </trkpt>
      <trkpt lat="45.886573428288102" lon="8.350793905556202">
        <ele>1423.9000000000001</ele>
        <time>2021-11-07T10:44:32Z</time>
      </trkpt>
      <trkpt lat="45.886574601754546" lon="8.350794827565551">
        <ele>1423.6300000000001</ele>
        <time>2021-11-07T10:45:03Z</time>
      </trkpt>
      <trkpt lat="45.886569824069738" lon="8.350801197811961">
        <ele>1423.78</ele>
        <time>2021-11-07T10:45:41Z</time>
      </trkpt>
      <trkpt lat="45.886560436338186" lon="8.350817542523146">
        <ele>1423.8499999999999</ele>
        <time>2021-11-07T10:46:24Z</time>
      </trkpt>
      <trkpt lat="45.886558424681425" lon="8.350803377106786">
        <ele>1423.9200000000001</ele>
        <time>2021-11-07T10:47:17Z</time>
      </trkpt>
      <trkpt lat="45.886567896232009" lon="8.35079968906939">
        <ele>1424.29</ele>
        <time>2021-11-07T10:47:51Z</time>
      </trkpt>
      <trkpt lat="45.886569237336516" lon="8.350794743746519">
        <ele>1424.71</ele>
        <time>2021-11-07T10:48:28Z</time>
      </trkpt>
      <trkpt lat="45.886573009192944" lon="8.350789295509458">
        <ele>1424.79</ele>
        <time>2021-11-07T10:49:07Z</time>
      </trkpt>
      <trkpt lat="45.886570913717151" lon="8.350789211690426">
        <ele>1424.74</ele>
        <time>2021-11-07T10:49:46Z</time>
      </trkpt>
      <trkpt lat="45.886576948687434" lon="8.35079038515687">
        <ele>1424.6600000000001</ele>
        <time>2021-11-07T10:50:18Z</time>
      </trkpt>
      <trkpt lat="45.886592455208302" lon="8.350810250267386">
        <ele>1424.96</ele>
        <time>2021-11-07T10:50:54Z</time>
      </trkpt>
      <trkpt lat="45.886601088568568" lon="8.350812597200275">
        <ele>1425.28</ele>
        <time>2021-11-07T10:51:23Z</time>
      </trkpt>
      <trkpt lat="45.886604692786932" lon="8.350816620513797">
        <ele>1424.8199999999999</ele>
        <time>2021-11-07T10:52:03Z</time>
      </trkpt>
      <trkpt lat="45.886604441329837" lon="8.350820057094097">
        <ele>1425.6600000000001</ele>
        <time>2021-11-07T10:52:37Z</time>
      </trkpt>
      <trkpt lat="45.886600418016315" lon="8.350829025730491">
        <ele>1425.3199999999999</ele>
        <time>2021-11-07T10:53:17Z</time>
      </trkpt>
      <trkpt lat="45.886595472693443" lon="8.350826008245349">
        <ele>1425.2</ele>
        <time>2021-11-07T10:53:53Z</time>
      </trkpt>
      <trkpt lat="45.886591617017984" lon="8.350834222510457">
        <ele>1425.0999999999999</ele>
        <time>2021-11-07T10:54:33Z</time>
      </trkpt>
      <trkpt lat="45.886601004749537" lon="8.350833803415299">
        <ele>1424.9200000000001</ele>
        <time>2021-11-07T10:55:06Z</time>
      </trkpt>
      <trkpt lat="45.886604357510805" lon="8.350830366834998">
        <ele>1424.95</ele>
        <time>2021-11-07T10:55:38Z</time>
      </trkpt>
      <trkpt lat="45.886598825454712" lon="8.350839335471392">
        <ele>1425.0699999999999</ele>
        <time>2021-11-07T10:56:20Z</time>
      </trkpt>
      <trkpt lat="45.886600585654378" lon="8.350835395976901">
        <ele>1425.2</ele>
        <time>2021-11-07T10:56:56Z</time>
      </trkpt>
      <trkpt lat="45.886596394702792" lon="8.35083925165236">
        <ele>1425.1900000000001</ele>
        <time>2021-11-07T10:57:33Z</time>
      </trkpt>
      <trkpt lat="45.886605028063059" lon="8.350840760394931">
        <ele>1425.4200000000001</ele>
        <time>2021-11-07T10:58:11Z</time>
      </trkpt>
      <trkpt lat="45.886612655594945" lon="8.350843945518136">
        <ele>1425.3599999999999</ele>
        <time>2021-11-07T10:58:48Z</time>
      </trkpt>
      <trkpt lat="45.88661190122366" lon="8.35083874873817">
        <ele>1425.3299999999999</ele>
        <time>2021-11-07T10:59:27Z</time>
      </trkpt>
      <trkpt lat="45.886606369167566" lon="8.350835898891091">
        <ele>1425.3599999999999</ele>
        <time>2021-11-07T11:00:02Z</time>
      </trkpt>
      <trkpt lat="45.886605447158217" lon="8.350832210853696">
        <ele>1425.9100000000001</ele>
        <time>2021-11-07T11:00:39Z</time>
      </trkpt>
      <trkpt lat="45.886603100225329" lon="8.350833803415299">
        <ele>1425.8499999999999</ele>
        <time>2021-11-07T11:01:17Z</time>
      </trkpt>
      <trkpt lat="45.886607123538852" lon="8.350832294672728">
        <ele>1425.4200000000001</ele>
        <time>2021-11-07T11:01:53Z</time>
      </trkpt>
      <trkpt lat="45.886606117710471" lon="8.35083095356822">
        <ele>1426.03</ele>
        <time>2021-11-07T11:02:29Z</time>
      </trkpt>
      <trkpt lat="45.886606285348535" lon="8.350820140913129">
        <ele>1425.53</ele>
        <time>2021-11-07T11:03:07Z</time>
      </trkpt>
      <trkpt lat="45.886614331975579" lon="8.350826427340508">
        <ele>1425.6099999999999</ele>
        <time>2021-11-07T11:03:38Z</time>
      </trkpt>
      <trkpt lat="45.886611063033342" lon="8.350831791758537">
        <ele>1425.3</ele>
        <time>2021-11-07T11:04:11Z</time>
      </trkpt>
      <trkpt lat="45.886617181822658" lon="8.350821565836668">
        <ele>1424.99</ele>
        <time>2021-11-07T11:04:48Z</time>
      </trkpt>
      <trkpt lat="45.886620283126831" lon="8.35081284865737">
        <ele>1424.9200000000001</ele>
        <time>2021-11-07T11:05:25Z</time>
      </trkpt>
      <trkpt lat="45.886614918708801" lon="8.350825840607286">
        <ele>1424.97</ele>
        <time>2021-11-07T11:06:01Z</time>
      </trkpt>
      <trkpt lat="45.886612068861723" lon="8.35081041790545">
        <ele>1425.26</ele>
        <time>2021-11-07T11:06:29Z</time>
      </trkpt>
      <trkpt lat="45.88661776855588" lon="8.350814022123814">
        <ele>1424.74</ele>
        <time>2021-11-07T11:07:10Z</time>
      </trkpt>
      <trkpt lat="45.886616008356214" lon="8.35081921890378">
        <ele>1424.75</ele>
        <time>2021-11-07T11:07:48Z</time>
      </trkpt>
      <trkpt lat="45.88660754263401" lon="8.350825421512127">
        <ele>1425.1199999999999</ele>
        <time>2021-11-07T11:08:26Z</time>
      </trkpt>
      <trkpt lat="45.886595975607634" lon="8.350832713767886">
        <ele>1425.6199999999999</ele>
        <time>2021-11-07T11:09:04Z</time>
      </trkpt>
      <trkpt lat="45.88659287430346" lon="8.350840425118804">
        <ele>1425.5799999999999</ele>
        <time>2021-11-07T11:09:42Z</time>
      </trkpt>
      <trkpt lat="45.886586671695113" lon="8.35083925165236">
        <ele>1425.6900000000001</ele>
        <time>2021-11-07T11:10:17Z</time>
      </trkpt>
      <trkpt lat="45.886586084961891" lon="8.350842017680407">
        <ele>1425.73</ele>
        <time>2021-11-07T11:10:56Z</time>
      </trkpt>
      <trkpt lat="45.886589689180255" lon="8.350844196975231">
        <ele>1426.03</ele>
        <time>2021-11-07T11:11:33Z</time>
      </trkpt>
      <trkpt lat="45.886592539027333" lon="8.350844951346517">
        <ele>1426.71</ele>
        <time>2021-11-07T11:12:08Z</time>
      </trkpt>
      <trkpt lat="45.886585833504796" lon="8.350845705717802">
        <ele>1426.8599999999999</ele>
        <time>2021-11-07T11:12:46Z</time>
      </trkpt>
      <trkpt lat="45.886586755514145" lon="8.350848471745849">
        <ele>1426.72</ele>
        <time>2021-11-07T11:13:20Z</time>
      </trkpt>
      <trkpt lat="45.886588096618652" lon="8.350847885012627">
        <ele>1427.3900000000001</ele>
        <time>2021-11-07T11:14:01Z</time>
      </trkpt>
      <trkpt lat="45.886583989486098" lon="8.350852159783244">
        <ele>1427.22</ele>
        <time>2021-11-07T11:14:43Z</time>
      </trkpt>
      <trkpt lat="45.886585246771574" lon="8.350843777880073">
        <ele>1427.48</ele>
        <time>2021-11-07T11:15:23Z</time>
      </trkpt>
      <trkpt lat="45.886594718322158" lon="8.3508441131562">
        <ele>1427.3800000000001</ele>
        <time>2021-11-07T11:16:07Z</time>
      </trkpt>
      <trkpt lat="45.886596059426665" lon="8.350843694061041">
        <ele>1427.5799999999999</ele>
        <time>2021-11-07T11:16:51Z</time>
      </trkpt>
      <trkpt lat="45.886589102447033" lon="8.350848471745849">
        <ele>1427.9100000000001</ele>
        <time>2021-11-07T11:17:33Z</time>
      </trkpt>
      <trkpt lat="45.886587342247367" lon="8.3508509863168">
        <ele>1427.8900000000001</ele>
        <time>2021-11-07T11:18:19Z</time>
      </trkpt>
      <trkpt lat="45.886588096618652" lon="8.35084704682231">
        <ele>1428.0999999999999</ele>
        <time>2021-11-07T11:18:58Z</time>
      </trkpt>
      <trkpt lat="45.886592203751206" lon="8.350844364613295">
        <ele>1428.24</ele>
        <time>2021-11-07T11:19:38Z</time>
      </trkpt>
      <trkpt lat="45.886590024456382" lon="8.350844867527485">
        <ele>1428.46</ele>
        <time>2021-11-07T11:20:19Z</time>
      </trkpt>
      <trkpt lat="45.88659044355154" lon="8.350842772051692">
        <ele>1428.51</ele>
        <time>2021-11-07T11:21:02Z</time>
      </trkpt>
      <trkpt lat="45.886586001142859" lon="8.350848890841007">
        <ele>1428.76</ele>
        <time>2021-11-07T11:21:44Z</time>
      </trkpt>
      <trkpt lat="45.886585414409637" lon="8.35085635073483">
        <ele>1429.47</ele>
        <time>2021-11-07T11:22:23Z</time>
      </trkpt>
      <trkpt lat="45.886584995314479" lon="8.350859619677067">
        <ele>1428.99</ele>
        <time>2021-11-07T11:22:59Z</time>
      </trkpt>
      <trkpt lat="45.886585749685764" lon="8.350849058479071">
        <ele>1429.47</ele>
        <time>2021-11-07T11:23:37Z</time>
      </trkpt>
      <trkpt lat="45.886576781049371" lon="8.350858446210623">
        <ele>1429.1199999999999</ele>
        <time>2021-11-07T11:24:20Z</time>
      </trkpt>
      <trkpt lat="45.886594047769904" lon="8.350834390148521">
        <ele>1429.1700000000001</ele>
        <time>2021-11-07T11:24:48Z</time>
      </trkpt>
      <trkpt lat="45.886605950072408" lon="8.350817961618304">
        <ele>1429.3900000000001</ele>
        <time>2021-11-07T11:25:28Z</time>
      </trkpt>
      <trkpt lat="45.886603686958551" lon="8.350826678797603">
        <ele>1429.45</ele>
        <time>2021-11-07T11:26:19Z</time>
      </trkpt>
      <trkpt lat="45.886605195701122" lon="8.350822823122144">
        <ele>1429.77</ele>
        <time>2021-11-07T11:27:11Z</time>
      </trkpt>
      <trkpt lat="45.886604022234678" lon="8.350824164226651">
        <ele>1429.6300000000001</ele>
        <time>2021-11-07T11:27:56Z</time>
      </trkpt>
      <trkpt lat="45.8866046089679" lon="8.350836569443345">
        <ele>1429.5599999999999</ele>
        <time>2021-11-07T11:28:49Z</time>
      </trkpt>
      <trkpt lat="45.886609386652708" lon="8.350836485624313">
        <ele>1429.78</ele>
        <time>2021-11-07T11:29:38Z</time>
      </trkpt>
      <trkpt lat="45.886610643938184" lon="8.350824248045683">
        <ele>1429.8</ele>
        <time>2021-11-07T11:30:21Z</time>
      </trkpt>
      <trkpt lat="45.886608967557549" lon="8.350814105942845">
        <ele>1429.77</ele>
        <time>2021-11-07T11:30:43Z</time>
      </trkpt>
      <trkpt lat="45.886604357510805" lon="8.350827768445015">
        <ele>1429.6300000000001</ele>
        <time>2021-11-07T11:31:05Z</time>
      </trkpt>
      <trkpt lat="45.886609889566898" lon="8.350859452039003">
        <ele>1429.48</ele>
        <time>2021-11-07T11:31:22Z</time>
      </trkpt>
      <trkpt lat="45.886610979214311" lon="8.350856099277735">
        <ele>1428.3699999999999</ele>
        <time>2021-11-07T11:31:24Z</time>
      </trkpt>
      <trkpt lat="45.886614918708801" lon="8.350833216682077">
        <ele>1429.97</ele>
        <time>2021-11-07T11:31:47Z</time>
      </trkpt>
      <trkpt lat="45.88661340996623" lon="8.350822571665049">
        <ele>1430.0699999999999</ele>
        <time>2021-11-07T11:32:03Z</time>
      </trkpt>
      <trkpt lat="45.886609721928835" lon="8.350822906941176">
        <ele>1430.1500000000001</ele>
        <time>2021-11-07T11:32:21Z</time>
      </trkpt>
      <trkpt lat="45.886609721928835" lon="8.350816871970892">
        <ele>1429.6199999999999</ele>
        <time>2021-11-07T11:32:40Z</time>
      </trkpt>
      <trkpt lat="45.886612990871072" lon="8.350825421512127">
        <ele>1430.1900000000001</ele>
        <time>2021-11-07T11:32:54Z</time>
      </trkpt>
      <trkpt lat="45.886607626453042" lon="8.350839922204614">
        <ele>1429.8800000000001</ele>
        <time>2021-11-07T11:33:13Z</time>
      </trkpt>
      <trkpt lat="45.88660360313952" lon="8.350842269137502">
        <ele>1430.47</ele>
        <time>2021-11-07T11:33:35Z</time>
      </trkpt>
      <trkpt lat="45.886604022234678" lon="8.350833132863045">
        <ele>1430.1400000000001</ele>
        <time>2021-11-07T11:33:57Z</time>
      </trkpt>
      <trkpt lat="45.886603184044361" lon="8.350832797586918">
        <ele>1426.03</ele>
        <time>2021-11-07T11:34:03Z</time>
      </trkpt>
      <trkpt lat="45.886602932587266" lon="8.350833719596267">
        <ele>1430.8099999999999</ele>
        <time>2021-11-07T11:34:05Z</time>
      </trkpt>
      <trkpt lat="45.886602764949203" lon="8.350833803415299">
        <ele>1430.6300000000001</ele>
        <time>2021-11-07T11:34:06Z</time>
      </trkpt>
      <trkpt lat="45.886602932587266" lon="8.350830283015966">
        <ele>1427.1099999999999</ele>
        <time>2021-11-07T11:34:15Z</time>
      </trkpt>
      <trkpt lat="45.886602932587266" lon="8.350829528644681">
        <ele>1430.3900000000001</ele>
        <time>2021-11-07T11:34:16Z</time>
      </trkpt>
      <trkpt lat="45.886602178215981" lon="8.350828355178237">
        <ele>1431.3199999999999</ele>
        <time>2021-11-07T11:34:23Z</time>
      </trkpt>
      <trkpt lat="45.886603854596615" lon="8.350836485624313">
        <ele>1429.99</ele>
        <time>2021-11-07T11:34:41Z</time>
      </trkpt>
      <trkpt lat="45.886603184044361" lon="8.350837156176567">
        <ele>1429.9300000000001</ele>
        <time>2021-11-07T11:35:02Z</time>
      </trkpt>
      <trkpt lat="45.886601926758885" lon="8.350840257480741">
        <ele>1428.73</ele>
        <time>2021-11-07T11:35:20Z</time>
      </trkpt>
      <trkpt lat="45.88660360313952" lon="8.350839922204614">
        <ele>1429.78</ele>
        <time>2021-11-07T11:35:36Z</time>
      </trkpt>
      <trkpt lat="45.886618690565228" lon="8.350772196426988">
        <ele>1429.76</ele>
        <time>2021-11-07T11:35:48Z</time>
      </trkpt>
      <trkpt lat="45.886615673080087" lon="8.350733052939177">
        <ele>1429.23</ele>
        <time>2021-11-07T11:35:52Z</time>
      </trkpt>
      <trkpt lat="45.88660703971982" lon="8.350706566125155">
        <ele>1428.99</ele>
        <time>2021-11-07T11:36:05Z</time>
      </trkpt>
      <trkpt lat="45.886591030284762" lon="8.350695921108127">
        <ele>1428.6099999999999</ele>
        <time>2021-11-07T11:36:34Z</time>
      </trkpt>
      <trkpt lat="45.886610141023993" lon="8.350610844790936">
        <ele>1426.8</ele>
        <time>2021-11-07T11:36:45Z</time>
      </trkpt>
      <trkpt lat="45.886599496006966" lon="8.350558374077082">
        <ele>1425.5699999999999</ele>
        <time>2021-11-07T11:36:49Z</time>
      </trkpt>
      <trkpt lat="45.886594299226999" lon="8.350418312475085">
        <ele>1422.51</ele>
        <time>2021-11-07T11:37:01Z</time>
      </trkpt>
      <trkpt lat="45.886584660038352" lon="8.350381348282099">
        <ele>1421.49</ele>
        <time>2021-11-07T11:37:05Z</time>
      </trkpt>
      <trkpt lat="45.886551970615983" lon="8.350267689675093">
        <ele>1419.47</ele>
        <time>2021-11-07T11:37:15Z</time>
      </trkpt>
      <trkpt lat="45.886554317548871" lon="8.350217314437032">
        <ele>1419.8699999999999</ele>
        <time>2021-11-07T11:37:23Z</time>
      </trkpt>
      <trkpt lat="45.886555910110474" lon="8.350150259211659">
        <ele>1417.8699999999999</ele>
        <time>2021-11-07T11:37:28Z</time>
      </trkpt>
      <trkpt lat="45.886588767170906" lon="8.350041043013334">
        <ele>1415.6400000000001</ele>
        <time>2021-11-07T11:37:37Z</time>
      </trkpt>
      <trkpt lat="45.886562447994947" lon="8.349850522354245">
        <ele>1412.8499999999999</ele>
        <time>2021-11-07T11:37:51Z</time>
      </trkpt>
      <trkpt lat="45.88662464171648" lon="8.349777264520526">
        <ele>1411.1900000000001</ele>
        <time>2021-11-07T11:38:02Z</time>
      </trkpt>
      <trkpt lat="45.886644423007965" lon="8.349727392196655">
        <ele>1410.22</ele>
        <time>2021-11-07T11:38:08Z</time>
      </trkpt>
      <trkpt lat="45.886653224006295" lon="8.349666707217693">
        <ele>1409.98</ele>
        <time>2021-11-07T11:38:12Z</time>
      </trkpt>
      <trkpt lat="45.886674765497446" lon="8.349611973389983">
        <ele>1409.22</ele>
        <time>2021-11-07T11:38:16Z</time>
      </trkpt>
      <trkpt lat="45.886683063581586" lon="8.349432684481144">
        <ele>1405.95</ele>
        <time>2021-11-07T11:38:28Z</time>
      </trkpt>
      <trkpt lat="45.886696558445692" lon="8.34933771751821">
        <ele>1403.0799999999999</ele>
        <time>2021-11-07T11:38:37Z</time>
      </trkpt>
      <trkpt lat="45.886715166270733" lon="8.349278792738915">
        <ele>1401.78</ele>
        <time>2021-11-07T11:38:42Z</time>
      </trkpt>
      <trkpt lat="45.886753974482417" lon="8.349067652598023">
        <ele>1398.26</ele>
        <time>2021-11-07T11:38:55Z</time>
      </trkpt>
      <trkpt lat="45.886754561215639" lon="8.349034795537591">
        <ele>1397.8900000000001</ele>
        <time>2021-11-07T11:38:57Z</time>
      </trkpt>
      <trkpt lat="45.886784233152866" lon="8.34885542280972">
        <ele>1396.54</ele>
        <time>2021-11-07T11:39:09Z</time>
      </trkpt>
      <trkpt lat="45.886766295880079" lon="8.348733214661479">
        <ele>1394.7</ele>
        <time>2021-11-07T11:39:20Z</time>
      </trkpt>
      <trkpt lat="45.886745089665055" lon="8.34870588965714">
        <ele>1395.1300000000001</ele>
        <time>2021-11-07T11:39:23Z</time>
      </trkpt>
      <trkpt lat="45.886745089665055" lon="8.348570270463824">
        <ele>1394.5</ele>
        <time>2021-11-07T11:39:33Z</time>
      </trkpt>
      <trkpt lat="45.886765960603952" lon="8.348417803645134">
        <ele>1393.76</ele>
        <time>2021-11-07T11:39:45Z</time>
      </trkpt>
      <trkpt lat="45.8867496997118" lon="8.348294924944639">
        <ele>1390.9400000000001</ele>
        <time>2021-11-07T11:39:56Z</time>
      </trkpt>
      <trkpt lat="45.886735115200281" lon="8.348258463665843">
        <ele>1389.25</ele>
        <time>2021-11-07T11:40:00Z</time>
      </trkpt>
      <trkpt lat="45.886723799631" lon="8.348175901919603">
        <ele>1386.03</ele>
        <time>2021-11-07T11:40:11Z</time>
      </trkpt>
      <trkpt lat="45.886730337515473" lon="8.348081521689892">
        <ele>1384.0999999999999</ele>
        <time>2021-11-07T11:40:22Z</time>
      </trkpt>
      <trkpt lat="45.88674676604569" lon="8.348012203350663">
        <ele>1380.9200000000001</ele>
        <time>2021-11-07T11:40:31Z</time>
      </trkpt>
      <trkpt lat="45.886743413284421" lon="8.348001474514604">
        <ele>1380.6300000000001</ele>
        <time>2021-11-07T11:40:32Z</time>
      </trkpt>
      <trkpt lat="45.88673846796155" lon="8.347897790372372">
        <ele>1377.3499999999999</ele>
        <time>2021-11-07T11:40:42Z</time>
      </trkpt>
      <trkpt lat="45.886727320030332" lon="8.347819838672876">
        <ele>1374.5599999999999</ele>
        <time>2021-11-07T11:40:50Z</time>
      </trkpt>
      <trkpt lat="45.886720782145858" lon="8.34771447815001">
        <ele>1371.1900000000001</ele>
        <time>2021-11-07T11:41:01Z</time>
      </trkpt>
      <trkpt lat="45.886698318645358" lon="8.34761381149292">
        <ele>1367.96</ele>
        <time>2021-11-07T11:41:11Z</time>
      </trkpt>
      <trkpt lat="45.88668473996222" lon="8.347573662176728">
        <ele>1366.5899999999999</ele>
        <time>2021-11-07T11:41:14Z</time>
      </trkpt>
      <trkpt lat="45.886671328917146" lon="8.347544325515628">
        <ele>1366.03</ele>
        <time>2021-11-07T11:41:16Z</time>
      </trkpt>
      <trkpt lat="45.886662695556879" lon="8.347490848973393">
        <ele>1364.74</ele>
        <time>2021-11-07T11:41:20Z</time>
      </trkpt>
      <trkpt lat="45.886653810739517" lon="8.347347183153033">
        <ele>1361.27</ele>
        <time>2021-11-07T11:41:30Z</time>
      </trkpt>
      <trkpt lat="45.886651882901788" lon="8.347330084070563">
        <ele>1360.9100000000001</ele>
        <time>2021-11-07T11:41:31Z</time>
      </trkpt>
      <trkpt lat="45.886646937578917" lon="8.347139731049538">
        <ele>1357.9400000000001</ele>
        <time>2021-11-07T11:41:43Z</time>
      </trkpt>
      <trkpt lat="45.886581894010305" lon="8.347099917009473">
        <ele>1356.8399999999999</ele>
        <time>2021-11-07T11:41:55Z</time>
      </trkpt>
      <trkpt lat="45.886570159345865" lon="8.347105532884598">
        <ele>1357.1600000000001</ele>
        <time>2021-11-07T11:42:10Z</time>
      </trkpt>
      <trkpt lat="45.886546019464731" lon="8.347166804596782">
        <ele>1355.6199999999999</ele>
        <time>2021-11-07T11:42:26Z</time>
      </trkpt>
      <trkpt lat="45.886477958410978" lon="8.347243499010801">
        <ele>1352.45</ele>
        <time>2021-11-07T11:42:38Z</time>
      </trkpt>
      <trkpt lat="45.886479886248708" lon="8.347233273088932">
        <ele>1352.22</ele>
        <time>2021-11-07T11:42:39Z</time>
      </trkpt>
      <trkpt lat="45.886497320607305" lon="8.347076447680593">
        <ele>1350.3</ele>
        <time>2021-11-07T11:42:52Z</time>
      </trkpt>
      <trkpt lat="45.886502098292112" lon="8.346987599506974">
        <ele>1349.8599999999999</ele>
        <time>2021-11-07T11:43:02Z</time>
      </trkpt>
      <trkpt lat="45.886491201817989" lon="8.346920376643539">
        <ele>1349.45</ele>
        <time>2021-11-07T11:43:17Z</time>
      </trkpt>
      <trkpt lat="45.886515006422997" lon="8.346889615058899">
        <ele>1349.54</ele>
        <time>2021-11-07T11:43:42Z</time>
      </trkpt>
      <trkpt lat="45.886509222909808" lon="8.346865391358733">
        <ele>1349.1400000000001</ele>
        <time>2021-11-07T11:43:45Z</time>
      </trkpt>
      <trkpt lat="45.886501679196954" lon="8.34683345630765">
        <ele>1348.55</ele>
        <time>2021-11-07T11:43:47Z</time>
      </trkpt>
      <trkpt lat="45.886481143534184" lon="8.346735890954733">
        <ele>1348.0799999999999</ele>
        <time>2021-11-07T11:43:53Z</time>
      </trkpt>
      <trkpt lat="45.886435713618994" lon="8.346561379730701">
        <ele>1346.9300000000001</ele>
        <time>2021-11-07T11:44:04Z</time>
      </trkpt>
      <trkpt lat="45.886419955641031" lon="8.346451660618186">
        <ele>1345.9100000000001</ele>
        <time>2021-11-07T11:44:11Z</time>
      </trkpt>
      <trkpt lat="45.886368490755558" lon="8.346244711428881">
        <ele>1343.4400000000001</ele>
        <time>2021-11-07T11:44:24Z</time>
      </trkpt>
      <trkpt lat="45.886326413601637" lon="8.346244711428881">
        <ele>1341.5799999999999</ele>
        <time>2021-11-07T11:44:34Z</time>
      </trkpt>
      <trkpt lat="45.886316522955894" lon="8.346281424164772">
        <ele>1340.5799999999999</ele>
        <time>2021-11-07T11:44:37Z</time>
      </trkpt>
      <trkpt lat="45.886290706694126" lon="8.34640639834106">
        <ele>1337.8499999999999</ele>
        <time>2021-11-07T11:44:48Z</time>
      </trkpt>
      <trkpt lat="45.886257849633694" lon="8.346549812704325">
        <ele>1334.96</ele>
        <time>2021-11-07T11:44:59Z</time>
      </trkpt>
      <trkpt lat="45.886244773864746" lon="8.346595326438546">
        <ele>1334.26</ele>
        <time>2021-11-07T11:45:02Z</time>
      </trkpt>
      <trkpt lat="45.886198421940207" lon="8.346781739965081">
        <ele>1331.45</ele>
        <time>2021-11-07T11:45:16Z</time>
      </trkpt>
      <trkpt lat="45.886132037267089" lon="8.347022719681263">
        <ele>1328.8</ele>
        <time>2021-11-07T11:45:33Z</time>
      </trkpt>
      <trkpt lat="45.886132624000311" lon="8.347029592841864">
        <ele>1328.5999999999999</ele>
        <time>2021-11-07T11:45:34Z</time>
      </trkpt>
      <trkpt lat="45.886047966778278" lon="8.347258251160383">
        <ele>1326.8</ele>
        <time>2021-11-07T11:45:51Z</time>
      </trkpt>
      <trkpt lat="45.885949227958918" lon="8.347508534789085">
        <ele>1325.8699999999999</ele>
        <time>2021-11-07T11:46:06Z</time>
      </trkpt>
      <trkpt lat="45.885872030630708" lon="8.347712801769376">
        <ele>1325.04</ele>
        <time>2021-11-07T11:46:17Z</time>
      </trkpt>
      <trkpt lat="45.885792905464768" lon="8.347899718210101">
        <ele>1323.71</ele>
        <time>2021-11-07T11:46:32Z</time>
      </trkpt>
      <trkpt lat="45.885689053684473" lon="8.348134830594063">
        <ele>1320.96</ele>
        <time>2021-11-07T11:46:46Z</time>
      </trkpt>
      <trkpt lat="45.885620908811688" lon="8.348381007090211">
        <ele>1319.0799999999999</ele>
        <time>2021-11-07T11:46:57Z</time>
      </trkpt>
      <trkpt lat="45.885603139176965" lon="8.348491648212075">
        <ele>1318.47</ele>
        <time>2021-11-07T11:47:07Z</time>
      </trkpt>
      <trkpt lat="45.885602049529552" lon="8.348505226895213">
        <ele>1318.54</ele>
        <time>2021-11-07T11:47:13Z</time>
      </trkpt>
      <trkpt lat="45.885562319308519" lon="8.348782835528255">
        <ele>1317.3499999999999</ele>
        <time>2021-11-07T11:47:28Z</time>
      </trkpt>
      <trkpt lat="45.88550959713757" lon="8.348991880193353">
        <ele>1316.1900000000001</ele>
        <time>2021-11-07T11:47:41Z</time>
      </trkpt>
      <trkpt lat="45.885477410629392" lon="8.349038902670145">
        <ele>1314.75</ele>
        <time>2021-11-07T11:47:45Z</time>
      </trkpt>
      <trkpt lat="45.885444302111864" lon="8.349089445546269">
        <ele>1312.77</ele>
        <time>2021-11-07T11:47:55Z</time>
      </trkpt>
      <trkpt lat="45.885435165837407" lon="8.348941672593355">
        <ele>1311.0999999999999</ele>
        <time>2021-11-07T11:48:09Z</time>
      </trkpt>
      <trkpt lat="45.885434411466122" lon="8.348928093910217">
        <ele>1311.1800000000001</ele>
        <time>2021-11-07T11:48:10Z</time>
      </trkpt>
      <trkpt lat="45.885410020127892" lon="8.348721144720912">
        <ele>1308.3099999999999</ele>
        <time>2021-11-07T11:48:23Z</time>
      </trkpt>
      <trkpt lat="45.885406667366624" lon="8.3485421910882">
        <ele>1305.6099999999999</ele>
        <time>2021-11-07T11:48:35Z</time>
      </trkpt>
      <trkpt lat="45.885390238836408" lon="8.348351670429111">
        <ele>1302.8499999999999</ele>
        <time>2021-11-07T11:48:48Z</time>
      </trkpt>
      <trkpt lat="45.885356711223722" lon="8.348186714574695">
        <ele>1300.3199999999999</ele>
        <time>2021-11-07T11:49:00Z</time>
      </trkpt>
      <trkpt lat="45.885333828628063" lon="8.348166095092893">
        <ele>1300.1500000000001</ele>
        <time>2021-11-07T11:49:19Z</time>
      </trkpt>
      <trkpt lat="45.885336343199015" lon="8.348116474226117">
        <ele>1300.2</ele>
        <time>2021-11-07T11:49:46Z</time>
      </trkpt>
      <trkpt lat="45.885330056771636" lon="8.348064422607422">
        <ele>1299.96</ele>
        <time>2021-11-07T11:49:49Z</time>
      </trkpt>
      <trkpt lat="45.885300803929567" lon="8.347894689068198">
        <ele>1297.6199999999999</ele>
        <time>2021-11-07T11:50:01Z</time>
      </trkpt>
      <trkpt lat="45.885273395106196" lon="8.347743730992079">
        <ele>1294.55</ele>
        <time>2021-11-07T11:50:12Z</time>
      </trkpt>
      <trkpt lat="45.885273395106196" lon="8.347620517015457">
        <ele>1292.22</ele>
        <time>2021-11-07T11:50:25Z</time>
      </trkpt>
      <trkpt lat="45.885328967124224" lon="8.347371155396104">
        <ele>1289.2</ele>
        <time>2021-11-07T11:50:41Z</time>
      </trkpt>
      <trkpt lat="45.885350340977311" lon="8.347265375778079">
        <ele>1288.3099999999999</ele>
        <time>2021-11-07T11:50:47Z</time>
      </trkpt>
      <trkpt lat="45.885380180552602" lon="8.347089355811477">
        <ele>1286.21</ele>
        <time>2021-11-07T11:50:57Z</time>
      </trkpt>
      <trkpt lat="45.885444050654769" lon="8.34693169221282">
        <ele>1284.24</ele>
        <time>2021-11-07T11:51:08Z</time>
      </trkpt>
      <trkpt lat="45.885459473356605" lon="8.346759276464582">
        <ele>1282.5999999999999</ele>
        <time>2021-11-07T11:51:19Z</time>
      </trkpt>
      <trkpt lat="45.885444218292832" lon="8.346674116328359">
        <ele>1281.95</ele>
        <time>2021-11-07T11:51:24Z</time>
      </trkpt>
      <trkpt lat="45.885343383997679" lon="8.346539167687297">
        <ele>1278.71</ele>
        <time>2021-11-07T11:51:36Z</time>
      </trkpt>
      <trkpt lat="45.885330475866795" lon="8.34650170058012">
        <ele>1278.3399999999999</ele>
        <time>2021-11-07T11:51:39Z</time>
      </trkpt>
      <trkpt lat="45.885237604379654" lon="8.34636390209198">
        <ele>1274.6700000000001</ele>
        <time>2021-11-07T11:51:52Z</time>
      </trkpt>
      <trkpt lat="45.885177925229073" lon="8.346261810511351">
        <ele>1271.71</ele>
        <time>2021-11-07T11:52:02Z</time>
      </trkpt>
      <trkpt lat="45.885134339332581" lon="8.346143458038569">
        <ele>1268.3499999999999</ele>
        <time>2021-11-07T11:52:12Z</time>
      </trkpt>
      <trkpt lat="45.885112378746271" lon="8.345987722277641">
        <ele>1265.3099999999999</ele>
        <time>2021-11-07T11:52:22Z</time>
      </trkpt>
      <trkpt lat="45.885114641860127" lon="8.345937682315707">
        <ele>1264.3499999999999</ele>
        <time>2021-11-07T11:52:25Z</time>
      </trkpt>
      <trkpt lat="45.885124867781997" lon="8.345886971801519">
        <ele>1263.0799999999999</ele>
        <time>2021-11-07T11:52:28Z</time>
      </trkpt>
      <trkpt lat="45.885129813104868" lon="8.345848331227899">
        <ele>1262.0999999999999</ele>
        <time>2021-11-07T11:52:31Z</time>
      </trkpt>
      <trkpt lat="45.885160909965634" lon="8.34578144364059">
        <ele>1260.5999999999999</ele>
        <time>2021-11-07T11:52:36Z</time>
      </trkpt>
      <trkpt lat="45.885153701528907" lon="8.345635095611215">
        <ele>1258.26</ele>
        <time>2021-11-07T11:52:45Z</time>
      </trkpt>
      <trkpt lat="45.885129142552614" lon="8.345456058159471">
        <ele>1255.5799999999999</ele>
        <time>2021-11-07T11:52:57Z</time>
      </trkpt>
      <trkpt lat="45.885084886103868" lon="8.345388919115067">
        <ele>1253.48</ele>
        <time>2021-11-07T11:53:03Z</time>
      </trkpt>
      <trkpt lat="45.884995451197028" lon="8.345249108970165">
        <ele>1251.1300000000001</ele>
        <time>2021-11-07T11:53:16Z</time>
      </trkpt>
      <trkpt lat="45.884932419285178" lon="8.345207953825593">
        <ele>1249.3</ele>
        <time>2021-11-07T11:53:22Z</time>
      </trkpt>
      <trkpt lat="45.884889336302876" lon="8.345190184190869">
        <ele>1247.3900000000001</ele>
        <time>2021-11-07T11:53:26Z</time>
      </trkpt>
      <trkpt lat="45.884838458150625" lon="8.345236284658313">
        <ele>1245.8800000000001</ele>
        <time>2021-11-07T11:53:32Z</time>
      </trkpt>
      <trkpt lat="45.884754303842783" lon="8.34516579285264">
        <ele>1243.6500000000001</ele>
        <time>2021-11-07T11:53:45Z</time>
      </trkpt>
      <trkpt lat="45.884745670482516" lon="8.345144838094711">
        <ele>1242.8499999999999</ele>
        <time>2021-11-07T11:53:51Z</time>
      </trkpt>
      <trkpt lat="45.884723290801048" lon="8.345110304653645">
        <ele>1242.5899999999999</ele>
        <time>2021-11-07T11:53:54Z</time>
      </trkpt>
      <trkpt lat="45.88460217230022" lon="8.344979882240295">
        <ele>1239.4000000000001</ele>
        <time>2021-11-07T11:54:07Z</time>
      </trkpt>
      <trkpt lat="45.884482813999057" lon="8.344857841730118">
        <ele>1238.23</ele>
        <time>2021-11-07T11:54:19Z</time>
      </trkpt>
      <trkpt lat="45.884459763765335" lon="8.344741417095065">
        <ele>1238.0899999999999</ele>
        <time>2021-11-07T11:54:31Z</time>
      </trkpt>
      <trkpt lat="45.884461691603065" lon="8.344837808981538">
        <ele>1238.29</ele>
        <time>2021-11-07T11:54:44Z</time>
      </trkpt>
      <trkpt lat="45.884448532015085" lon="8.34488382562995">
        <ele>1238.1600000000001</ele>
        <time>2021-11-07T11:54:58Z</time>
      </trkpt>
      <trkpt lat="45.884446520358324" lon="8.344876365736127">
        <ele>1238.3099999999999</ele>
        <time>2021-11-07T11:55:19Z</time>
      </trkpt>
      <trkpt lat="45.884454734623432" lon="8.344870917499065">
        <ele>1238.1199999999999</ele>
        <time>2021-11-07T11:55:35Z</time>
      </trkpt>
      <trkpt lat="45.884458925575018" lon="8.344866978004575">
        <ele>1238.5799999999999</ele>
        <time>2021-11-07T11:55:51Z</time>
      </trkpt>
      <trkpt lat="45.884457500651479" lon="8.34487066604197">
        <ele>1238.53</ele>
        <time>2021-11-07T11:56:08Z</time>
      </trkpt>
      <trkpt lat="45.884498488157988" lon="8.344878125935793">
        <ele>1238.21</ele>
        <time>2021-11-07T11:56:20Z</time>
      </trkpt>
      <trkpt lat="45.884498823434114" lon="8.344899415969849">
        <ele>1237.5699999999999</ele>
        <time>2021-11-07T11:56:30Z</time>
      </trkpt>
      <trkpt lat="45.884498655796051" lon="8.344896985217929">
        <ele>1237.52</ele>
        <time>2021-11-07T11:56:53Z</time>
      </trkpt>
      <trkpt lat="45.884507037699223" lon="8.344893380999565">
        <ele>1237.97</ele>
        <time>2021-11-07T11:57:41Z</time>
      </trkpt>
      <trkpt lat="45.884502595290542" lon="8.344894219189882">
        <ele>1238.6800000000001</ele>
        <time>2021-11-07T11:57:57Z</time>
      </trkpt>
      <trkpt lat="45.884482143446803" lon="8.344893883913755">
        <ele>1238.6800000000001</ele>
        <time>2021-11-07T11:58:43Z</time>
      </trkpt>
      <trkpt lat="45.884481808170676" lon="8.34489556029439">
        <ele>1239.04</ele>
        <time>2021-11-07T11:59:19Z</time>
      </trkpt>
      <trkpt lat="45.884489016607404" lon="8.344894219189882">
        <ele>1239.4400000000001</ele>
        <time>2021-11-07T11:59:56Z</time>
      </trkpt>
      <trkpt lat="45.884487675502896" lon="8.344894303008914">
        <ele>1239.4100000000001</ele>
        <time>2021-11-07T12:00:29Z</time>
      </trkpt>
      <trkpt lat="45.884487256407738" lon="8.344894889742136">
        <ele>1239.71</ele>
        <time>2021-11-07T12:01:04Z</time>
      </trkpt>
      <trkpt lat="45.884487340226769" lon="8.34487552754581">
        <ele>1239.9400000000001</ele>
        <time>2021-11-07T12:01:40Z</time>
      </trkpt>
      <trkpt lat="45.884490609169006" lon="8.344880053773522">
        <ele>1240.1500000000001</ele>
        <time>2021-11-07T12:02:19Z</time>
      </trkpt>
      <trkpt lat="45.884460518136621" lon="8.34489312954247">
        <ele>1240.0899999999999</ele>
        <time>2021-11-07T12:02:54Z</time>
      </trkpt>
      <trkpt lat="45.884477198123932" lon="8.344897907227278">
        <ele>1240.1600000000001</ele>
        <time>2021-11-07T12:03:20Z</time>
      </trkpt>
      <trkpt lat="45.884480131790042" lon="8.344866223633289">
        <ele>1240.5899999999999</ele>
        <time>2021-11-07T12:03:57Z</time>
      </trkpt>
      <trkpt lat="45.884482227265835" lon="8.344849543645978">
        <ele>1241.1199999999999</ele>
        <time>2021-11-07T12:04:35Z</time>
      </trkpt>
      <trkpt lat="45.884492537006736" lon="8.344854488968849">
        <ele>1241.3800000000001</ele>
        <time>2021-11-07T12:05:25Z</time>
      </trkpt>
      <trkpt lat="45.884495889768004" lon="8.3448535669595">
        <ele>1241.9000000000001</ele>
        <time>2021-11-07T12:06:14Z</time>
      </trkpt>
      <trkpt lat="45.884492872282863" lon="8.344851806759834">
        <ele>1242.03</ele>
        <time>2021-11-07T12:07:03Z</time>
      </trkpt>
      <trkpt lat="45.884477952495217" lon="8.344850465655327">
        <ele>1242.48</ele>
        <time>2021-11-07T12:07:38Z</time>
      </trkpt>
      <trkpt lat="45.884487172588706" lon="8.344858512282372">
        <ele>1243.21</ele>
        <time>2021-11-07T12:08:00Z</time>
      </trkpt>
      <trkpt lat="45.88448784314096" lon="8.344862032681704">
        <ele>1243.05</ele>
        <time>2021-11-07T12:08:13Z</time>
      </trkpt>
      <trkpt lat="45.884489351883531" lon="8.344868738204241">
        <ele>1244.1900000000001</ele>
        <time>2021-11-07T12:08:25Z</time>
      </trkpt>
      <trkpt lat="45.884487507864833" lon="8.344869492575526">
        <ele>1242.3099999999999</ele>
        <time>2021-11-07T12:08:29Z</time>
      </trkpt>
      <trkpt lat="45.884498991072178" lon="8.34490243345499">
        <ele>1243.21</ele>
        <time>2021-11-07T12:08:45Z</time>
      </trkpt>
      <trkpt lat="45.884501505643129" lon="8.34491802379489">
        <ele>1242.5699999999999</ele>
        <time>2021-11-07T12:08:59Z</time>
      </trkpt>
      <trkpt lat="45.884485244750977" lon="8.344924813136458">
        <ele>1242.26</ele>
        <time>2021-11-07T12:09:14Z</time>
      </trkpt>
      <trkpt lat="45.884472001343966" lon="8.344925651326776">
        <ele>1242.27</ele>
        <time>2021-11-07T12:09:16Z</time>
      </trkpt>
      <trkpt lat="45.884426403790712" lon="8.344911402091384">
        <ele>1240.97</ele>
        <time>2021-11-07T12:09:21Z</time>
      </trkpt>
      <trkpt lat="45.88439161889255" lon="8.344920035451651">
        <ele>1239.8</ele>
        <time>2021-11-07T12:09:24Z</time>
      </trkpt>
      <trkpt lat="45.884266225621104" lon="8.344869744032621">
        <ele>1236.4200000000001</ele>
        <time>2021-11-07T12:09:38Z</time>
      </trkpt>
      <trkpt lat="45.884243091568351" lon="8.344882316887379">
        <ele>1235.27</ele>
        <time>2021-11-07T12:09:41Z</time>
      </trkpt>
      <trkpt lat="45.884204534813762" lon="8.344882149249315">
        <ele>1233.51</ele>
        <time>2021-11-07T12:09:45Z</time>
      </trkpt>
      <trkpt lat="45.884197242558002" lon="8.344869157299399">
        <ele>1233.45</ele>
        <time>2021-11-07T12:09:46Z</time>
      </trkpt>
      <trkpt lat="45.88411065749824" lon="8.344669248908758">
        <ele>1230.5999999999999</ele>
        <time>2021-11-07T12:10:02Z</time>
      </trkpt>
      <trkpt lat="45.88413018733263" lon="8.344560200348496">
        <ele>1228.3299999999999</ele>
        <time>2021-11-07T12:10:15Z</time>
      </trkpt>
      <trkpt lat="45.884141083806753" lon="8.344494653865695">
        <ele>1227.4300000000001</ele>
        <time>2021-11-07T12:10:20Z</time>
      </trkpt>
      <trkpt lat="45.884165894240141" lon="8.344303378835321">
        <ele>1225.45</ele>
        <time>2021-11-07T12:10:33Z</time>
      </trkpt>
      <trkpt lat="45.884163295850158" lon="8.344275299459696">
        <ele>1225.27</ele>
        <time>2021-11-07T12:10:35Z</time>
      </trkpt>
      <trkpt lat="45.88416388258338" lon="8.344213189557195">
        <ele>1224.49</ele>
        <time>2021-11-07T12:10:39Z</time>
      </trkpt>
      <trkpt lat="45.884156338870525" lon="8.344162311404944">
        <ele>1223.9000000000001</ele>
        <time>2021-11-07T12:10:42Z</time>
      </trkpt>
      <trkpt lat="45.884160278365016" lon="8.344089472666383">
        <ele>1223.29</ele>
        <time>2021-11-07T12:10:46Z</time>
      </trkpt>
      <trkpt lat="45.884148292243481" lon="8.343849750235677">
        <ele>1220.9100000000001</ele>
        <time>2021-11-07T12:11:00Z</time>
      </trkpt>
      <trkpt lat="45.884138653054833" lon="8.34370331838727">
        <ele>1219.0799999999999</ele>
        <time>2021-11-07T12:11:08Z</time>
      </trkpt>
      <trkpt lat="45.884153405204415" lon="8.343627462163568">
        <ele>1218.6700000000001</ele>
        <time>2021-11-07T12:11:13Z</time>
      </trkpt>
      <trkpt lat="45.884124655276537" lon="8.343571722507477">
        <ele>1218.3699999999999</ele>
        <time>2021-11-07T12:11:17Z</time>
      </trkpt>
      <trkpt lat="45.88411895558238" lon="8.343269471079111">
        <ele>1216.9100000000001</ele>
        <time>2021-11-07T12:11:35Z</time>
      </trkpt>
      <trkpt lat="45.884137060493231" lon="8.343147430568934">
        <ele>1217.3800000000001</ele>
        <time>2021-11-07T12:11:46Z</time>
      </trkpt>
      <trkpt lat="45.884152483195066" lon="8.343136450275779">
        <ele>1217.5</ele>
        <time>2021-11-07T12:11:52Z</time>
      </trkpt>
      <trkpt lat="45.884162625297904" lon="8.343099318444729">
        <ele>1217.6300000000001</ele>
        <time>2021-11-07T12:11:55Z</time>
      </trkpt>
      <trkpt lat="45.884187771007419" lon="8.342955568805337">
        <ele>1218.5899999999999</ele>
        <time>2021-11-07T12:12:05Z</time>
      </trkpt>
      <trkpt lat="45.884148292243481" lon="8.342891447246075">
        <ele>1218.78</ele>
        <time>2021-11-07T12:12:12Z</time>
      </trkpt>
      <trkpt lat="45.884011331945658" lon="8.342659519985318">
        <ele>1216.74</ele>
        <time>2021-11-07T12:12:29Z</time>
      </trkpt>
      <trkpt lat="45.883840508759022" lon="8.342477884143591">
        <ele>1214.4000000000001</ele>
        <time>2021-11-07T12:12:47Z</time>
      </trkpt>
      <trkpt lat="45.883675385266542" lon="8.34241091273725">
        <ele>1212.3199999999999</ele>
        <time>2021-11-07T12:13:02Z</time>
      </trkpt>
      <trkpt lat="45.8835394307971" lon="8.34240211173892">
        <ele>1210.6099999999999</ele>
        <time>2021-11-07T12:13:14Z</time>
      </trkpt>
      <trkpt lat="45.883520655333996" lon="8.342395825311542">
        <ele>1210.49</ele>
        <time>2021-11-07T12:13:24Z</time>
      </trkpt>
      <trkpt lat="45.883447481319308" lon="8.34237570874393">
        <ele>1209.4400000000001</ele>
        <time>2021-11-07T12:13:34Z</time>
      </trkpt>
      <trkpt lat="45.883372211828828" lon="8.342240089550614">
        <ele>1208.1500000000001</ele>
        <time>2021-11-07T12:13:47Z</time>
      </trkpt>
      <trkpt lat="45.883355867117643" lon="8.34219298325479">
        <ele>1207.97</ele>
        <time>2021-11-07T12:14:00Z</time>
      </trkpt>
      <trkpt lat="45.883341450244188" lon="8.342191642150283">
        <ele>1207.96</ele>
        <time>2021-11-07T12:14:13Z</time>
      </trkpt>
      <trkpt lat="45.883333152160048" lon="8.34218611009419">
        <ele>1207.8</ele>
        <time>2021-11-07T12:14:24Z</time>
      </trkpt>
      <trkpt lat="45.883331894874573" lon="8.342181332409382">
        <ele>1207.6700000000001</ele>
        <time>2021-11-07T12:14:42Z</time>
      </trkpt>
      <trkpt lat="45.883329883217812" lon="8.342189295217395">
        <ele>1207.9000000000001</ele>
        <time>2021-11-07T12:14:58Z</time>
      </trkpt>
      <trkpt lat="45.883332146331668" lon="8.342193905264139">
        <ele>1207.6900000000001</ele>
        <time>2021-11-07T12:15:12Z</time>
      </trkpt>
      <trkpt lat="45.883335750550032" lon="8.342196755111218">
        <ele>1207.77</ele>
        <time>2021-11-07T12:15:31Z</time>
      </trkpt>
      <trkpt lat="45.883335247635841" lon="8.342199940234423">
        <ele>1207.79</ele>
        <time>2021-11-07T12:15:44Z</time>
      </trkpt>
      <trkpt lat="45.88333323597908" lon="8.342209327965975">
        <ele>1207.73</ele>
        <time>2021-11-07T12:16:01Z</time>
      </trkpt>
      <trkpt lat="45.883335918188095" lon="8.342219050973654">
        <ele>1207.6400000000001</ele>
        <time>2021-11-07T12:16:25Z</time>
      </trkpt>
      <trkpt lat="45.883322758600116" lon="8.342260960489512">
        <ele>1207.76</ele>
        <time>2021-11-07T12:16:35Z</time>
      </trkpt>
      <trkpt lat="45.88329803198576" lon="8.342365734279156">
        <ele>1207.4400000000001</ele>
        <time>2021-11-07T12:16:45Z</time>
      </trkpt>
      <trkpt lat="45.883305408060551" lon="8.342356765642762">
        <ele>1207.6300000000001</ele>
        <time>2021-11-07T12:16:56Z</time>
      </trkpt>
      <trkpt lat="45.883323261514306" lon="8.342256518080831">
        <ele>1207.9100000000001</ele>
        <time>2021-11-07T12:17:07Z</time>
      </trkpt>
      <trkpt lat="45.883393501862884" lon="8.342340504750609">
        <ele>1209.22</ele>
        <time>2021-11-07T12:17:19Z</time>
      </trkpt>
      <trkpt lat="45.88347346521914" lon="8.342398256063461">
        <ele>1209.97</ele>
        <time>2021-11-07T12:17:31Z</time>
      </trkpt>
      <trkpt lat="45.883471621200442" lon="8.342395490035415">
        <ele>1210.0999999999999</ele>
        <time>2021-11-07T12:17:40Z</time>
      </trkpt>
      <trkpt lat="45.883471285924315" lon="8.342390125617385">
        <ele>1210.1099999999999</ele>
        <time>2021-11-07T12:17:56Z</time>
      </trkpt>
      <trkpt lat="45.883465753868222" lon="8.342391047626734">
        <ele>1209.5999999999999</ele>
        <time>2021-11-07T12:18:15Z</time>
      </trkpt>
      <trkpt lat="45.883541107177734" lon="8.34240160882473">
        <ele>1210.28</ele>
        <time>2021-11-07T12:18:27Z</time>
      </trkpt>
      <trkpt lat="45.883657950907946" lon="8.342398423701525">
        <ele>1211.8900000000001</ele>
        <time>2021-11-07T12:18:42Z</time>
      </trkpt>
      <trkpt lat="45.883766412734985" lon="8.342437064275146">
        <ele>1213.5699999999999</ele>
        <time>2021-11-07T12:18:57Z</time>
      </trkpt>
      <trkpt lat="45.883884597569704" lon="8.3425257448107">
        <ele>1215.54</ele>
        <time>2021-11-07T12:19:15Z</time>
      </trkpt>
      <trkpt lat="45.883998507633805" lon="8.342653652653098">
        <ele>1217.0999999999999</ele>
        <time>2021-11-07T12:19:33Z</time>
      </trkpt>
      <trkpt lat="45.884092887863517" lon="8.342782817780972">
        <ele>1218.54</ele>
        <time>2021-11-07T12:19:50Z</time>
      </trkpt>
      <trkpt lat="45.88413018733263" lon="8.342906031757593">
        <ele>1218.96</ele>
        <time>2021-11-07T12:20:04Z</time>
      </trkpt>
      <trkpt lat="45.884141251444817" lon="8.342889687046409">
        <ele>1219.21</ele>
        <time>2021-11-07T12:20:12Z</time>
      </trkpt>
      <trkpt lat="45.884150052443147" lon="8.342839563265443">
        <ele>1219.2</ele>
        <time>2021-11-07T12:20:16Z</time>
      </trkpt>
      <trkpt lat="45.884160026907921" lon="8.342803185805678">
        <ele>1219.0599999999999</ele>
        <time>2021-11-07T12:20:30Z</time>
      </trkpt>
      <trkpt lat="45.884158350527287" lon="8.342804107815027">
        <ele>1217.53</ele>
        <time>2021-11-07T12:20:36Z</time>
      </trkpt>
      <trkpt lat="45.884158937260509" lon="8.34280326962471">
        <ele>1221.9400000000001</ele>
        <time>2021-11-07T12:20:39Z</time>
      </trkpt>
      <trkpt lat="45.884158853441477" lon="8.342878622934222">
        <ele>1219.3199999999999</ele>
        <time>2021-11-07T12:20:50Z</time>
      </trkpt>
      <trkpt lat="45.884169163182378" lon="8.342894548550248">
        <ele>1219.0599999999999</ele>
        <time>2021-11-07T12:21:01Z</time>
      </trkpt>
      <trkpt lat="45.88416924700141" lon="8.342886585742235">
        <ele>1219.04</ele>
        <time>2021-11-07T12:21:18Z</time>
      </trkpt>
      <trkpt lat="45.884151812642813" lon="8.342911982908845">
        <ele>1219.1400000000001</ele>
        <time>2021-11-07T12:21:32Z</time>
      </trkpt>
      <trkpt lat="45.88413504883647" lon="8.342913575470448">
        <ele>1218.95</ele>
        <time>2021-11-07T12:21:45Z</time>
      </trkpt>
      <trkpt lat="45.884130857884884" lon="8.342906702309847">
        <ele>1219.1500000000001</ele>
        <time>2021-11-07T12:22:05Z</time>
      </trkpt>
      <trkpt lat="45.884132031351328" lon="8.34289513528347">
        <ele>1219.1600000000001</ele>
        <time>2021-11-07T12:22:26Z</time>
      </trkpt>
      <trkpt lat="45.884131360799074" lon="8.342890106141567">
        <ele>1219.24</ele>
        <time>2021-11-07T12:22:40Z</time>
      </trkpt>
      <trkpt lat="45.884131947532296" lon="8.342885915189982">
        <ele>1219.0899999999999</ele>
        <time>2021-11-07T12:23:06Z</time>
      </trkpt>
      <trkpt lat="45.884128510951996" lon="8.342882562428713">
        <ele>1219.1199999999999</ele>
        <time>2021-11-07T12:23:32Z</time>
      </trkpt>
      <trkpt lat="45.884124906733632" lon="8.342919358983636">
        <ele>1219.1500000000001</ele>
        <time>2021-11-07T12:23:41Z</time>
      </trkpt>
      <trkpt lat="45.884102191776037" lon="8.342999992892146">
        <ele>1218.01</ele>
        <time>2021-11-07T12:23:47Z</time>
      </trkpt>
      <trkpt lat="45.884073106572032" lon="8.343157321214676">
        <ele>1217.45</ele>
        <time>2021-11-07T12:24:00Z</time>
      </trkpt>
      <trkpt lat="45.884076291695237" lon="8.343191770836711">
        <ele>1216.99</ele>
        <time>2021-11-07T12:24:02Z</time>
      </trkpt>
      <trkpt lat="45.884033460170031" lon="8.34344775415957">
        <ele>1214.5699999999999</ele>
        <time>2021-11-07T12:24:18Z</time>
      </trkpt>
      <trkpt lat="45.884024742990732" lon="8.34347315132618">
        <ele>1214.49</ele>
        <time>2021-11-07T12:24:26Z</time>
      </trkpt>
      <trkpt lat="45.884017031639814" lon="8.343521431088448">
        <ele>1214.47</ele>
        <time>2021-11-07T12:24:29Z</time>
      </trkpt>
      <trkpt lat="45.883983755484223" lon="8.343721088021994">
        <ele>1213.47</ele>
        <time>2021-11-07T12:24:42Z</time>
      </trkpt>
      <trkpt lat="45.883909994736314" lon="8.343953099101782">
        <ele>1211.6600000000001</ele>
        <time>2021-11-07T12:24:57Z</time>
      </trkpt>
      <trkpt lat="45.883791390806437" lon="8.344133142381907">
        <ele>1210.0599999999999</ele>
        <time>2021-11-07T12:25:11Z</time>
      </trkpt>
      <trkpt lat="45.883704302832484" lon="8.344254596158862">
        <ele>1207.46</ele>
        <time>2021-11-07T12:25:24Z</time>
      </trkpt>
      <trkpt lat="45.883669434115291" lon="8.344284854829311">
        <ele>1206.3099999999999</ele>
        <time>2021-11-07T12:25:29Z</time>
      </trkpt>
      <trkpt lat="45.883646551519632" lon="8.344321483746171">
        <ele>1205.8299999999999</ele>
        <time>2021-11-07T12:25:32Z</time>
      </trkpt>
      <trkpt lat="45.883625261485577" lon="8.344451989978552">
        <ele>1203.8</ele>
        <time>2021-11-07T12:25:42Z</time>
      </trkpt>
      <trkpt lat="45.883636493235826" lon="8.344632368534803">
        <ele>1201.0999999999999</ele>
        <time>2021-11-07T12:25:56Z</time>
      </trkpt>
      <trkpt lat="45.88361956179142" lon="8.344821128994227">
        <ele>1198.54</ele>
        <time>2021-11-07T12:26:10Z</time>
      </trkpt>
      <trkpt lat="45.883606150746346" lon="8.344885418191552">
        <ele>1197.9400000000001</ele>
        <time>2021-11-07T12:26:15Z</time>
      </trkpt>
      <trkpt lat="45.883606988936663" lon="8.344922885298729">
        <ele>1197.5699999999999</ele>
        <time>2021-11-07T12:26:17Z</time>
      </trkpt>
      <trkpt lat="45.883628949522972" lon="8.345102509483695">
        <ele>1196.0899999999999</ele>
        <time>2021-11-07T12:26:28Z</time>
      </trkpt>
      <trkpt lat="45.883641941472888" lon="8.34526252001524">
        <ele>1195.73</ele>
        <time>2021-11-07T12:26:38Z</time>
      </trkpt>
      <trkpt lat="45.883646635338664" lon="8.34531188942492">
        <ele>1195.4000000000001</ele>
        <time>2021-11-07T12:26:41Z</time>
      </trkpt>
      <trkpt lat="45.883702291175723" lon="8.34546678699553">
        <ele>1194.0899999999999</ele>
        <time>2021-11-07T12:26:53Z</time>
      </trkpt>
      <trkpt lat="45.883702374994755" lon="8.34548288024962">
        <ele>1194.05</ele>
        <time>2021-11-07T12:26:54Z</time>
      </trkpt>
      <trkpt lat="45.88365619070828" lon="8.345652613788843">
        <ele>1194.22</ele>
        <time>2021-11-07T12:27:04Z</time>
      </trkpt>
      <trkpt lat="45.88362299837172" lon="8.345828549936414">
        <ele>1194.01</ele>
        <time>2021-11-07T12:27:16Z</time>
      </trkpt>
      <trkpt lat="45.883604809641838" lon="8.345891162753105">
        <ele>1193.96</ele>
        <time>2021-11-07T12:27:20Z</time>
      </trkpt>
      <trkpt lat="45.883585112169385" lon="8.34593340754509">
        <ele>1193.8599999999999</ele>
        <time>2021-11-07T12:27:23Z</time>
      </trkpt>
      <trkpt lat="45.883529204875231" lon="8.345973053947091">
        <ele>1192.9400000000001</ele>
        <time>2021-11-07T12:27:30Z</time>
      </trkpt>
      <trkpt lat="45.883421497419477" lon="8.34600817412138">
        <ele>1192.4100000000001</ele>
        <time>2021-11-07T12:27:41Z</time>
      </trkpt>
      <trkpt lat="45.883333906531334" lon="8.346187211573124">
        <ele>1192.3499999999999</ele>
        <time>2021-11-07T12:27:54Z</time>
      </trkpt>
      <trkpt lat="45.883322088047862" lon="8.346234234049916">
        <ele>1191.8800000000001</ele>
        <time>2021-11-07T12:27:57Z</time>
      </trkpt>
      <trkpt lat="45.883325440809131" lon="8.346502454951406">
        <ele>1190.6600000000001</ele>
        <time>2021-11-07T12:28:13Z</time>
      </trkpt>
      <trkpt lat="45.883326530456543" lon="8.346577556803823">
        <ele>1190.52</ele>
        <time>2021-11-07T12:28:18Z</time>
      </trkpt>
      <trkpt lat="45.883336337283254" lon="8.34678458981216">
        <ele>1189.4100000000001</ele>
        <time>2021-11-07T12:28:31Z</time>
      </trkpt>
      <trkpt lat="45.883344635367393" lon="8.34683102555573">
        <ele>1189.1500000000001</ele>
        <time>2021-11-07T12:28:34Z</time>
      </trkpt>
      <trkpt lat="45.883332900702953" lon="8.347070496529341">
        <ele>1188.1800000000001</ele>
        <time>2021-11-07T12:28:49Z</time>
      </trkpt>
      <trkpt lat="45.883256709203124" lon="8.347346596419811">
        <ele>1187.0699999999999</ele>
        <time>2021-11-07T12:29:06Z</time>
      </trkpt>
      <trkpt lat="45.88323600590229" lon="8.347425805404782">
        <ele>1186.8900000000001</ele>
        <time>2021-11-07T12:29:11Z</time>
      </trkpt>
      <trkpt lat="45.883220247924328" lon="8.34760551340878">
        <ele>1186.73</ele>
        <time>2021-11-07T12:29:23Z</time>
      </trkpt>
      <trkpt lat="45.88316610082984" lon="8.34778044372797">
        <ele>1186.51</ele>
        <time>2021-11-07T12:29:36Z</time>
      </trkpt>
      <trkpt lat="45.88306694291532" lon="8.347875997424126">
        <ele>1185.8099999999999</ele>
        <time>2021-11-07T12:29:47Z</time>
      </trkpt>
      <trkpt lat="45.882918750867248" lon="8.347920002415776">
        <ele>1184.4100000000001</ele>
        <time>2021-11-07T12:30:00Z</time>
      </trkpt>
      <trkpt lat="45.882817832753062" lon="8.34801790304482">
        <ele>1182</ele>
        <time>2021-11-07T12:30:14Z</time>
      </trkpt>
      <trkpt lat="45.882735857740045" lon="8.348208591341972">
        <ele>1181.53</ele>
        <time>2021-11-07T12:30:25Z</time>
      </trkpt>
      <trkpt lat="45.882657067850232" lon="8.348421072587371">
        <ele>1181.5799999999999</ele>
        <time>2021-11-07T12:30:38Z</time>
      </trkpt>
      <trkpt lat="45.8826017472893" lon="8.348638834431768">
        <ele>1181.22</ele>
        <time>2021-11-07T12:30:51Z</time>
      </trkpt>
      <trkpt lat="45.882542990148067" lon="8.348856596276164">
        <ele>1180.76</ele>
        <time>2021-11-07T12:31:06Z</time>
      </trkpt>
      <trkpt lat="45.882504768669605" lon="8.348973942920566">
        <ele>1178.3299999999999</ele>
        <time>2021-11-07T12:31:16Z</time>
      </trkpt>
      <trkpt lat="45.882520526647568" lon="8.349172677844763">
        <ele>1177.01</ele>
        <time>2021-11-07T12:31:30Z</time>
      </trkpt>
      <trkpt lat="45.882531674578786" lon="8.349203187972307">
        <ele>1176.78</ele>
        <time>2021-11-07T12:31:32Z</time>
      </trkpt>
      <trkpt lat="45.882545337080956" lon="8.349272422492504">
        <ele>1176.26</ele>
        <time>2021-11-07T12:31:36Z</time>
      </trkpt>
      <trkpt lat="45.882608452811837" lon="8.349447520449758">
        <ele>1175.4300000000001</ele>
        <time>2021-11-07T12:31:47Z</time>
      </trkpt>
      <trkpt lat="45.882670311257243" lon="8.349546762183309">
        <ele>1174.8699999999999</ele>
        <time>2021-11-07T12:31:55Z</time>
      </trkpt>
      <trkpt lat="45.882745245471597" lon="8.349713562056422">
        <ele>1174.22</ele>
        <time>2021-11-07T12:32:07Z</time>
      </trkpt>
      <trkpt lat="45.882751867175102" lon="8.349728398025036">
        <ele>1174.1600000000001</ele>
        <time>2021-11-07T12:32:08Z</time>
      </trkpt>
      <trkpt lat="45.882783466950059" lon="8.349767625331879">
        <ele>1174.1900000000001</ele>
        <time>2021-11-07T12:32:11Z</time>
      </trkpt>
      <trkpt lat="45.882821520790458" lon="8.349814228713512">
        <ele>1173.99</ele>
        <time>2021-11-07T12:32:15Z</time>
      </trkpt>
      <trkpt lat="45.882912129163742" lon="8.349937694147229">
        <ele>1173.26</ele>
        <time>2021-11-07T12:32:26Z</time>
      </trkpt>
      <trkpt lat="45.882978094741702" lon="8.350022016093135">
        <ele>1173.27</ele>
        <time>2021-11-07T12:32:34Z</time>
      </trkpt>
      <trkpt lat="45.883031403645873" lon="8.350110612809658">
        <ele>1173.1500000000001</ele>
        <time>2021-11-07T12:32:42Z</time>
      </trkpt>
      <trkpt lat="45.883077252656221" lon="8.350249165669084">
        <ele>1172.1300000000001</ele>
        <time>2021-11-07T12:32:52Z</time>
      </trkpt>
      <trkpt lat="45.883087646216154" lon="8.350269617512822">
        <ele>1171.9300000000001</ele>
        <time>2021-11-07T12:32:54Z</time>
      </trkpt>
      <trkpt lat="45.883105415850878" lon="8.350486205890775">
        <ele>1169.8099999999999</ele>
        <time>2021-11-07T12:33:07Z</time>
      </trkpt>
      <trkpt lat="45.883136261254549" lon="8.350642612203956">
        <ele>1169.3900000000001</ele>
        <time>2021-11-07T12:33:17Z</time>
      </trkpt>
      <trkpt lat="45.883160484954715" lon="8.350676223635674">
        <ele>1169</ele>
        <time>2021-11-07T12:33:20Z</time>
      </trkpt>
      <trkpt lat="45.883260061964393" lon="8.350815111771226">
        <ele>1168.1700000000001</ele>
        <time>2021-11-07T12:33:33Z</time>
      </trkpt>
      <trkpt lat="45.88327020406723" lon="8.350855512544513">
        <ele>1168.1400000000001</ele>
        <time>2021-11-07T12:33:36Z</time>
      </trkpt>
      <trkpt lat="45.883300043642521" lon="8.351017283275724">
        <ele>1168.1400000000001</ele>
        <time>2021-11-07T12:33:48Z</time>
      </trkpt>
      <trkpt lat="45.883237514644861" lon="8.351176036521792">
        <ele>1166.5699999999999</ele>
        <time>2021-11-07T12:33:58Z</time>
      </trkpt>
      <trkpt lat="45.88315880857408" lon="8.35138600319624">
        <ele>1166.6300000000001</ele>
        <time>2021-11-07T12:34:12Z</time>
      </trkpt>
      <trkpt lat="45.883137686178088" lon="8.351547522470355">
        <ele>1166.51</ele>
        <time>2021-11-07T12:34:23Z</time>
      </trkpt>
      <trkpt lat="45.883147828280926" lon="8.351682722568512">
        <ele>1165.99</ele>
        <time>2021-11-07T12:34:32Z</time>
      </trkpt>
      <trkpt lat="45.883170794695616" lon="8.351772828027606">
        <ele>1165.71</ele>
        <time>2021-11-07T12:34:39Z</time>
      </trkpt>
      <trkpt lat="45.883179260417819" lon="8.351839715614915">
        <ele>1165.0699999999999</ele>
        <time>2021-11-07T12:34:43Z</time>
      </trkpt>
      <trkpt lat="45.883153695613146" lon="8.352057058364153">
        <ele>1166.0699999999999</ele>
        <time>2021-11-07T12:34:57Z</time>
      </trkpt>
      <trkpt lat="45.883098877966404" lon="8.352129058912396">
        <ele>1167.3499999999999</ele>
        <time>2021-11-07T12:35:08Z</time>
      </trkpt>
      <trkpt lat="45.882966192439198" lon="8.352121012285352">
        <ele>1164.71</ele>
        <time>2021-11-07T12:35:20Z</time>
      </trkpt>
      <trkpt lat="45.882851360365748" lon="8.352178763598204">
        <ele>1162.9400000000001</ele>
        <time>2021-11-07T12:35:30Z</time>
      </trkpt>
      <trkpt lat="45.882735019549727" lon="8.35217859596014">
        <ele>1161.6900000000001</ele>
        <time>2021-11-07T12:35:42Z</time>
      </trkpt>
      <trkpt lat="45.882630664855242" lon="8.352203238755465">
        <ele>1161.1099999999999</ele>
        <time>2021-11-07T12:35:53Z</time>
      </trkpt>
      <trkpt lat="45.882514324039221" lon="8.352246573194861">
        <ele>1161.25</ele>
        <time>2021-11-07T12:36:05Z</time>
      </trkpt>
      <trkpt lat="45.882450537756085" lon="8.35233005695045">
        <ele>1161.8699999999999</ele>
        <time>2021-11-07T12:36:14Z</time>
      </trkpt>
      <trkpt lat="45.882435953244567" lon="8.352350760251284">
        <ele>1161.6400000000001</ele>
        <time>2021-11-07T12:36:16Z</time>
      </trkpt>
      <trkpt lat="45.882375687360764" lon="8.352461317554116">
        <ele>1161.1600000000001</ele>
        <time>2021-11-07T12:36:26Z</time>
      </trkpt>
      <trkpt lat="45.882355906069279" lon="8.352647060528398">
        <ele>1161.21</ele>
        <time>2021-11-07T12:36:40Z</time>
      </trkpt>
      <trkpt lat="45.882333274930716" lon="8.352732136845589">
        <ele>1160.6700000000001</ele>
        <time>2021-11-07T12:36:47Z</time>
      </trkpt>
      <trkpt lat="45.882287593558431" lon="8.352928273379803">
        <ele>1160.4000000000001</ele>
        <time>2021-11-07T12:37:00Z</time>
      </trkpt>
      <trkpt lat="45.882202936336398" lon="8.35298384539783">
        <ele>1159.4100000000001</ele>
        <time>2021-11-07T12:37:12Z</time>
      </trkpt>
      <trkpt lat="45.882192039862275" lon="8.353041093796492">
        <ele>1159.6500000000001</ele>
        <time>2021-11-07T12:37:16Z</time>
      </trkpt>
      <trkpt lat="45.882156249135733" lon="8.353253239765763">
        <ele>1161.0799999999999</ele>
        <time>2021-11-07T12:37:27Z</time>
      </trkpt>
      <trkpt lat="45.882041333243251" lon="8.353322893381119">
        <ele>1161.1099999999999</ele>
        <time>2021-11-07T12:37:41Z</time>
      </trkpt>
      <trkpt lat="45.881928261369467" lon="8.353487011045218">
        <ele>1161.47</ele>
        <time>2021-11-07T12:37:55Z</time>
      </trkpt>
      <trkpt lat="45.881804544478655" lon="8.353625982999802">
        <ele>1161.25</ele>
        <time>2021-11-07T12:38:12Z</time>
      </trkpt>
      <trkpt lat="45.881644366309047" lon="8.353685829788446">
        <ele>1160.8599999999999</ele>
        <time>2021-11-07T12:38:26Z</time>
      </trkpt>
      <trkpt lat="45.881546884775162" lon="8.353637969121337">
        <ele>1160.95</ele>
        <time>2021-11-07T12:38:35Z</time>
      </trkpt>
      <trkpt lat="45.881363824009895" lon="8.353553898632526">
        <ele>1160.48</ele>
        <time>2021-11-07T12:38:50Z</time>
      </trkpt>
      <trkpt lat="45.881327446550131" lon="8.353522466495633">
        <ele>1160.3699999999999</ele>
        <time>2021-11-07T12:38:53Z</time>
      </trkpt>
      <trkpt lat="45.881295930594206" lon="8.353508384898305">
        <ele>1160.52</ele>
        <time>2021-11-07T12:38:55Z</time>
      </trkpt>
      <trkpt lat="45.881133237853646" lon="8.353466307744384">
        <ele>1159.99</ele>
        <time>2021-11-07T12:39:06Z</time>
      </trkpt>
      <trkpt lat="45.881046904250979" lon="8.353435462340713">
        <ele>1159.8299999999999</ele>
        <time>2021-11-07T12:39:13Z</time>
      </trkpt>
      <trkpt lat="45.880923103541136" lon="8.353416100144386">
        <ele>1159.6400000000001</ele>
        <time>2021-11-07T12:39:23Z</time>
      </trkpt>
      <trkpt lat="45.880783628672361" lon="8.353442922234535">
        <ele>1159.74</ele>
        <time>2021-11-07T12:39:35Z</time>
      </trkpt>
      <trkpt lat="45.880731074139476" lon="8.353457003831863">
        <ele>1159.6400000000001</ele>
        <time>2021-11-07T12:39:40Z</time>
      </trkpt>
      <trkpt lat="45.880603501573205" lon="8.353491453453898">
        <ele>1157.8</ele>
        <time>2021-11-07T12:39:53Z</time>
      </trkpt>
      <trkpt lat="45.880467295646667" lon="8.353585749864578">
        <ele>1155.55</ele>
        <time>2021-11-07T12:40:09Z</time>
      </trkpt>
      <trkpt lat="45.880355564877391" lon="8.353680549189448">
        <ele>1153.74</ele>
        <time>2021-11-07T12:40:23Z</time>
      </trkpt>
      <trkpt lat="45.880331760272384" lon="8.35384625941515">
        <ele>1152.96</ele>
        <time>2021-11-07T12:40:34Z</time>
      </trkpt>
      <trkpt lat="45.880279373377562" lon="8.354059075936675">
        <ele>1152.3499999999999</ele>
        <time>2021-11-07T12:40:49Z</time>
      </trkpt>
      <trkpt lat="45.880172839388251" lon="8.354208525270224">
        <ele>1152.3299999999999</ele>
        <time>2021-11-07T12:41:03Z</time>
      </trkpt>
      <trkpt lat="45.880048787221313" lon="8.354389406740665">
        <ele>1152.22</ele>
        <time>2021-11-07T12:41:19Z</time>
      </trkpt>
      <trkpt lat="45.87995926849544" lon="8.354640612378717">
        <ele>1151.76</ele>
        <time>2021-11-07T12:41:36Z</time>
      </trkpt>
      <trkpt lat="45.879948288202286" lon="8.354802969843149">
        <ele>1151.2</ele>
        <time>2021-11-07T12:41:44Z</time>
      </trkpt>
      <trkpt lat="45.879923310130835" lon="8.354963231831789">
        <ele>1150.53</ele>
        <time>2021-11-07T12:41:55Z</time>
      </trkpt>
      <trkpt lat="45.879902606830001" lon="8.355186190456152">
        <ele>1148.54</ele>
        <time>2021-11-07T12:42:11Z</time>
      </trkpt>
      <trkpt lat="45.879825325682759" lon="8.355317870154977">
        <ele>1145.4100000000001</ele>
        <time>2021-11-07T12:42:22Z</time>
      </trkpt>
      <trkpt lat="45.879747290164232" lon="8.355531273409724">
        <ele>1142.3299999999999</ele>
        <time>2021-11-07T12:42:37Z</time>
      </trkpt>
      <trkpt lat="45.879715522751212" lon="8.355644596740603">
        <ele>1139.2</ele>
        <time>2021-11-07T12:42:50Z</time>
      </trkpt>
      <trkpt lat="45.87965969927609" lon="8.355893455445766">
        <ele>1136.72</ele>
        <time>2021-11-07T12:43:07Z</time>
      </trkpt>
      <trkpt lat="45.879586273804307" lon="8.356044245883822">
        <ele>1134.6099999999999</ele>
        <time>2021-11-07T12:43:21Z</time>
      </trkpt>
      <trkpt lat="45.879489379003644" lon="8.356201825663447">
        <ele>1133.1600000000001</ele>
        <time>2021-11-07T12:43:34Z</time>
      </trkpt>
      <trkpt lat="45.879365494474769" lon="8.356269802898169">
        <ele>1132.52</ele>
        <time>2021-11-07T12:43:46Z</time>
      </trkpt>
      <trkpt lat="45.87926491163671" lon="8.356353035196662">
        <ele>1130.4000000000001</ele>
        <time>2021-11-07T12:43:58Z</time>
      </trkpt>
      <trkpt lat="45.879208669066429" lon="8.356514303013682">
        <ele>1127.45</ele>
        <time>2021-11-07T12:44:13Z</time>
      </trkpt>
      <trkpt lat="45.879213865846395" lon="8.35672183893621">
        <ele>1124.8800000000001</ele>
        <time>2021-11-07T12:44:26Z</time>
      </trkpt>
      <trkpt lat="45.879224678501487" lon="8.356844047084451">
        <ele>1123.8099999999999</ele>
        <time>2021-11-07T12:44:33Z</time>
      </trkpt>
      <trkpt lat="45.879228701815009" lon="8.356977235525847">
        <ele>1122.76</ele>
        <time>2021-11-07T12:44:41Z</time>
      </trkpt>
      <trkpt lat="45.879250075668097" lon="8.357103802263737">
        <ele>1120.5899999999999</ele>
        <time>2021-11-07T12:44:51Z</time>
      </trkpt>
      <trkpt lat="45.879347808659077" lon="8.357357103377581">
        <ele>1117.9400000000001</ele>
        <time>2021-11-07T12:45:07Z</time>
      </trkpt>
      <trkpt lat="45.879353424534202" lon="8.357370514422655">
        <ele>1117.75</ele>
        <time>2021-11-07T12:45:08Z</time>
      </trkpt>
      <trkpt lat="45.879254434257746" lon="8.357489788904786">
        <ele>1116.0899999999999</ele>
        <time>2021-11-07T12:45:21Z</time>
      </trkpt>
      <trkpt lat="45.879212440922856" lon="8.357603112235665">
        <ele>1115.8699999999999</ele>
        <time>2021-11-07T12:45:30Z</time>
      </trkpt>
      <trkpt lat="45.879082940518856" lon="8.357709646224976">
        <ele>1115.79</ele>
        <time>2021-11-07T12:45:43Z</time>
      </trkpt>
      <trkpt lat="45.878998199477792" lon="8.357691457495093">
        <ele>1115.6199999999999</ele>
        <time>2021-11-07T12:45:50Z</time>
      </trkpt>
      <trkpt lat="45.878851683810353" lon="8.357626162469387">
        <ele>1113.6600000000001</ele>
        <time>2021-11-07T12:46:04Z</time>
      </trkpt>
      <trkpt lat="45.878688152879477" lon="8.357598334550858">
        <ele>1111.3499999999999</ele>
        <time>2021-11-07T12:46:17Z</time>
      </trkpt>
      <trkpt lat="45.878609698265791" lon="8.357614511623979">
        <ele>1110.4400000000001</ele>
        <time>2021-11-07T12:46:24Z</time>
      </trkpt>
      <trkpt lat="45.878569968044758" lon="8.357627671211958">
        <ele>1109.96</ele>
        <time>2021-11-07T12:46:27Z</time>
      </trkpt>
      <trkpt lat="45.878421775996685" lon="8.357618786394596">
        <ele>1108.05</ele>
        <time>2021-11-07T12:46:39Z</time>
      </trkpt>
      <trkpt lat="45.878376681357622" lon="8.357606045901775">
        <ele>1107.54</ele>
        <time>2021-11-07T12:46:44Z</time>
      </trkpt>
      <trkpt lat="45.878327060490847" lon="8.357607889920473">
        <ele>1107.3199999999999</ele>
        <time>2021-11-07T12:46:47Z</time>
      </trkpt>
      <trkpt lat="45.8781947940588" lon="8.35763362236321">
        <ele>1106.23</ele>
        <time>2021-11-07T12:47:00Z</time>
      </trkpt>
      <trkpt lat="45.878140311688185" lon="8.357667317613959">
        <ele>1105.7</ele>
        <time>2021-11-07T12:47:06Z</time>
      </trkpt>
      <trkpt lat="45.878044087439775" lon="8.357730265706778">
        <ele>1103.49</ele>
        <time>2021-11-07T12:47:17Z</time>
      </trkpt>
      <trkpt lat="45.877951886504889" lon="8.357846522703767">
        <ele>1100.1199999999999</ele>
        <time>2021-11-07T12:47:28Z</time>
      </trkpt>
      <trkpt lat="45.877904277294874" lon="8.357876613736153">
        <ele>1099.23</ele>
        <time>2021-11-07T12:47:42Z</time>
      </trkpt>
      <trkpt lat="45.877824146300554" lon="8.357956828549504">
        <ele>1097.26</ele>
        <time>2021-11-07T12:47:55Z</time>
      </trkpt>
      <trkpt lat="45.877779303118587" lon="8.358073672279716">
        <ele>1095.8499999999999</ele>
        <time>2021-11-07T12:48:02Z</time>
      </trkpt>
      <trkpt lat="45.8777716755867" lon="8.358134441077709">
        <ele>1095.3800000000001</ele>
        <time>2021-11-07T12:48:06Z</time>
      </trkpt>
      <trkpt lat="45.877781482413411" lon="8.35818238556385">
        <ele>1094.3199999999999</ele>
        <time>2021-11-07T12:48:15Z</time>
      </trkpt>
      <trkpt lat="45.877772513777018" lon="8.358199317008257">
        <ele>1094.4400000000001</ele>
        <time>2021-11-07T12:48:29Z</time>
      </trkpt>
      <trkpt lat="45.877799168229103" lon="8.358214823529124">
        <ele>1093.9000000000001</ele>
        <time>2021-11-07T12:48:41Z</time>
      </trkpt>
      <trkpt lat="45.877813920378685" lon="8.358229994773865">
        <ele>1093.73</ele>
        <time>2021-11-07T12:48:43Z</time>
      </trkpt>
      <trkpt lat="45.877944091334939" lon="8.358338456600905">
        <ele>1090.9200000000001</ele>
        <time>2021-11-07T12:48:57Z</time>
      </trkpt>
      <trkpt lat="45.878042997792363" lon="8.358404841274023">
        <ele>1090.5</ele>
        <time>2021-11-07T12:49:09Z</time>
      </trkpt>
      <trkpt lat="45.87812639772892" lon="8.358443146571517">
        <ele>1090.0899999999999</ele>
        <time>2021-11-07T12:49:18Z</time>
      </trkpt>
      <trkpt lat="45.878191022202373" lon="8.358473069965839">
        <ele>1089.1900000000001</ele>
        <time>2021-11-07T12:49:23Z</time>
      </trkpt>
      <trkpt lat="45.878258077427745" lon="8.358611203730106">
        <ele>1085.96</ele>
        <time>2021-11-07T12:49:35Z</time>
      </trkpt>
      <trkpt lat="45.878365198150277" lon="8.358778338879347">
        <ele>1082.78</ele>
        <time>2021-11-07T12:49:49Z</time>
      </trkpt>
      <trkpt lat="45.878452872857451" lon="8.358906246721745">
        <ele>1079.8199999999999</ele>
        <time>2021-11-07T12:50:03Z</time>
      </trkpt>
      <trkpt lat="45.878525879234076" lon="8.359051840379834">
        <ele>1076.75</ele>
        <time>2021-11-07T12:50:17Z</time>
      </trkpt>
      <trkpt lat="45.878466702997684" lon="8.359212353825569">
        <ele>1074.24</ele>
        <time>2021-11-07T12:50:27Z</time>
      </trkpt>
      <trkpt lat="45.878456141799688" lon="8.359263734892011">
        <ele>1073.8299999999999</ele>
        <time>2021-11-07T12:50:30Z</time>
      </trkpt>
      <trkpt lat="45.878423703834414" lon="8.359343698248267">
        <ele>1073.01</ele>
        <time>2021-11-07T12:50:35Z</time>
      </trkpt>
      <trkpt lat="45.878350781276822" lon="8.359550563618541">
        <ele>1071.47</ele>
        <time>2021-11-07T12:50:49Z</time>
      </trkpt>
      <trkpt lat="45.878280876204371" lon="8.359706215560436">
        <ele>1069.22</ele>
        <time>2021-11-07T12:51:02Z</time>
      </trkpt>
      <trkpt lat="45.878191273659468" lon="8.359833117574453">
        <ele>1066.1199999999999</ele>
        <time>2021-11-07T12:51:15Z</time>
      </trkpt>
      <trkpt lat="45.878096390515566" lon="8.359889192506671">
        <ele>1062.5799999999999</ele>
        <time>2021-11-07T12:51:28Z</time>
      </trkpt>
      <trkpt lat="45.878084404394031" lon="8.359891790896654">
        <ele>1061.9200000000001</ele>
        <time>2021-11-07T12:51:30Z</time>
      </trkpt>
      <trkpt lat="45.877991197630763" lon="8.359968150034547">
        <ele>1058.73</ele>
        <time>2021-11-07T12:51:44Z</time>
      </trkpt>
      <trkpt lat="45.877918694168329" lon="8.360134195536375">
        <ele>1055.6600000000001</ele>
        <time>2021-11-07T12:51:59Z</time>
      </trkpt>
      <trkpt lat="45.877883154898882" lon="8.360322955995798">
        <ele>1052.55</ele>
        <time>2021-11-07T12:52:13Z</time>
      </trkpt>
      <trkpt lat="45.877904361113906" lon="8.360507609322667">
        <ele>1050.24</ele>
        <time>2021-11-07T12:52:27Z</time>
      </trkpt>
      <trkpt lat="45.877827079966664" lon="8.360679605975747">
        <ele>1047.21</ele>
        <time>2021-11-07T12:52:42Z</time>
      </trkpt>
      <trkpt lat="45.877710739150643" lon="8.360858056694269">
        <ele>1044.3199999999999</ele>
        <time>2021-11-07T12:52:57Z</time>
      </trkpt>
      <trkpt lat="45.877651060000062" lon="8.361031478270888">
        <ele>1042.3099999999999</ele>
        <time>2021-11-07T12:53:11Z</time>
      </trkpt>
      <trkpt lat="45.877622477710247" lon="8.361213784664869">
        <ele>1039.79</ele>
        <time>2021-11-07T12:53:24Z</time>
      </trkpt>
      <trkpt lat="45.877691544592381" lon="8.361325515434146">
        <ele>1037.25</ele>
        <time>2021-11-07T12:53:35Z</time>
      </trkpt>
      <trkpt lat="45.877735130488873" lon="8.361365832388401">
        <ele>1036.6900000000001</ele>
        <time>2021-11-07T12:53:40Z</time>
      </trkpt>
      <trkpt lat="45.877802604809403" lon="8.361502373591065">
        <ele>1035.1700000000001</ele>
        <time>2021-11-07T12:53:51Z</time>
      </trkpt>
      <trkpt lat="45.877798246219754" lon="8.361582588404417">
        <ele>1034.46</ele>
        <time>2021-11-07T12:53:57Z</time>
      </trkpt>
      <trkpt lat="45.877743931487203" lon="8.361720889806747">
        <ele>1032.79</ele>
        <time>2021-11-07T12:54:07Z</time>
      </trkpt>
      <trkpt lat="45.877691209316254" lon="8.361995816230774">
        <ele>1030.22</ele>
        <time>2021-11-07T12:54:23Z</time>
      </trkpt>
      <trkpt lat="45.877632200717926" lon="8.362220115959644">
        <ele>1028.4400000000001</ele>
        <time>2021-11-07T12:54:36Z</time>
      </trkpt>
      <trkpt lat="45.877557350322604" lon="8.362434608861804">
        <ele>1025.8</ele>
        <time>2021-11-07T12:54:51Z</time>
      </trkpt>
      <trkpt lat="45.877541676163673" lon="8.362498730421066">
        <ele>1024.74</ele>
        <time>2021-11-07T12:54:56Z</time>
      </trkpt>
      <trkpt lat="45.877490798011422" lon="8.36260886862874">
        <ele>1023.02</ele>
        <time>2021-11-07T12:55:04Z</time>
      </trkpt>
      <trkpt lat="45.877464395016432" lon="8.362750774249435">
        <ele>1020.98</ele>
        <time>2021-11-07T12:55:14Z</time>
      </trkpt>
      <trkpt lat="45.877449726685882" lon="8.362827636301518">
        <ele>1020.0599999999999</ele>
        <time>2021-11-07T12:55:19Z</time>
      </trkpt>
      <trkpt lat="45.877434220165014" lon="8.36298312060535">
        <ele>1017.77</ele>
        <time>2021-11-07T12:55:31Z</time>
      </trkpt>
      <trkpt lat="45.87741301394999" lon="8.363200044259429">
        <ele>1014.89</ele>
        <time>2021-11-07T12:55:46Z</time>
      </trkpt>
      <trkpt lat="45.877453749999404" lon="8.363383607938886">
        <ele>1012.0599999999999</ele>
        <time>2021-11-07T12:56:00Z</time>
      </trkpt>
      <trkpt lat="45.877463724464178" lon="8.363468265160918">
        <ele>1010.67</ele>
        <time>2021-11-07T12:56:07Z</time>
      </trkpt>
      <trkpt lat="45.877480236813426" lon="8.363639758899808">
        <ele>1008.28</ele>
        <time>2021-11-07T12:56:18Z</time>
      </trkpt>
      <trkpt lat="45.877471351996064" lon="8.363770935684443">
        <ele>1006.46</ele>
        <time>2021-11-07T12:56:26Z</time>
      </trkpt>
      <trkpt lat="45.877467328682542" lon="8.363873194903135">
        <ele>1005.08</ele>
        <time>2021-11-07T12:56:32Z</time>
      </trkpt>
      <trkpt lat="45.877452408894897" lon="8.364051310345531">
        <ele>1003.08</ele>
        <time>2021-11-07T12:56:43Z</time>
      </trkpt>
      <trkpt lat="45.877474537119269" lon="8.364186258986592">
        <ele>1001.3099999999999</ele>
        <time>2021-11-07T12:56:52Z</time>
      </trkpt>
      <trkpt lat="45.877506136894226" lon="8.364322716370225">
        <ele>999.17999999999995</ele>
        <time>2021-11-07T12:57:02Z</time>
      </trkpt>
      <trkpt lat="45.877503119409084" lon="8.364489935338497">
        <ele>995.88</ele>
        <time>2021-11-07T12:57:13Z</time>
      </trkpt>
      <trkpt lat="45.877552907913923" lon="8.364702081307769">
        <ele>992.82000000000005</ele>
        <time>2021-11-07T12:57:28Z</time>
      </trkpt>
      <trkpt lat="45.877549974247813" lon="8.364851865917444">
        <ele>991.08000000000004</ele>
        <time>2021-11-07T12:57:40Z</time>
      </trkpt>
      <trkpt lat="45.877553997561336" lon="8.365034088492394">
        <ele>987.87</ele>
        <time>2021-11-07T12:57:54Z</time>
      </trkpt>
      <trkpt lat="45.877605378627777" lon="8.365124277770519">
        <ele>986.44000000000005</ele>
        <time>2021-11-07T12:58:02Z</time>
      </trkpt>
      <trkpt lat="45.877714846283197" lon="8.365184795111418">
        <ele>984.66999999999996</ele>
        <time>2021-11-07T12:58:17Z</time>
      </trkpt>
      <trkpt lat="45.877754408866167" lon="8.365186303853989">
        <ele>982.92999999999995</ele>
        <time>2021-11-07T12:58:33Z</time>
      </trkpt>
      <trkpt lat="45.877863205969334" lon="8.365195440128446">
        <ele>981.71000000000004</ele>
        <time>2021-11-07T12:58:49Z</time>
      </trkpt>
      <trkpt lat="45.87788550183177" lon="8.36534128524363">
        <ele>982.02999999999997</ele>
        <time>2021-11-07T12:58:58Z</time>
      </trkpt>
      <trkpt lat="45.877912994474173" lon="8.365541948005557">
        <ele>981.25</ele>
        <time>2021-11-07T12:59:11Z</time>
      </trkpt>
      <trkpt lat="45.877890782430768" lon="8.365773372352123">
        <ele>978.67999999999995</ele>
        <time>2021-11-07T12:59:28Z</time>
      </trkpt>
      <trkpt lat="45.877863708883524" lon="8.365858281031251">
        <ele>977.60000000000002</ele>
        <time>2021-11-07T12:59:33Z</time>
      </trkpt>
      <trkpt lat="45.877796486020088" lon="8.366045700386167">
        <ele>974.87</ele>
        <time>2021-11-07T12:59:46Z</time>
      </trkpt>
      <trkpt lat="45.877646785229445" lon="8.366233287379146">
        <ele>972.90999999999997</ele>
        <time>2021-11-07T13:00:00Z</time>
      </trkpt>
      <trkpt lat="45.877499096095562" lon="8.366343760862947">
        <ele>970.32000000000005</ele>
        <time>2021-11-07T13:00:14Z</time>
      </trkpt>
      <trkpt lat="45.877484763041139" lon="8.366304198279977">
        <ele>970.03999999999996</ele>
        <time>2021-11-07T13:00:24Z</time>
      </trkpt>
      <trkpt lat="45.877534551545978" lon="8.366231443360448">
        <ele>968.80999999999995</ele>
        <time>2021-11-07T13:00:32Z</time>
      </trkpt>
      <trkpt lat="45.877595068886876" lon="8.366141589358449">
        <ele>967.40999999999997</ele>
        <time>2021-11-07T13:00:41Z</time>
      </trkpt>
      <trkpt lat="45.877571348100901" lon="8.366062548011541">
        <ele>966.25</ele>
        <time>2021-11-07T13:00:47Z</time>
      </trkpt>
      <trkpt lat="45.877517117187381" lon="8.366091046482325">
        <ele>965.08000000000004</ele>
        <time>2021-11-07T13:00:54Z</time>
      </trkpt>
      <trkpt lat="45.877482332289219" lon="8.366127088665962">
        <ele>964.27999999999997</ele>
        <time>2021-11-07T13:00:57Z</time>
      </trkpt>
      <trkpt lat="45.877368673682213" lon="8.366183582693338">
        <ele>960.89999999999998</ele>
        <time>2021-11-07T13:01:08Z</time>
      </trkpt>
      <trkpt lat="45.877287285402417" lon="8.366211242973805">
        <ele>957.09000000000003</ele>
        <time>2021-11-07T13:01:16Z</time>
      </trkpt>
      <trkpt lat="45.877193827182055" lon="8.366237729787827">
        <ele>955.38</ele>
        <time>2021-11-07T13:01:28Z</time>
      </trkpt>
      <trkpt lat="45.877124089747667" lon="8.366284416988492">
        <ele>952.14999999999998</ele>
        <time>2021-11-07T13:01:37Z</time>
      </trkpt>
      <trkpt lat="45.877035241574049" lon="8.366407714784145">
        <ele>949.00999999999999</ele>
        <time>2021-11-07T13:01:49Z</time>
      </trkpt>
      <trkpt lat="45.876990146934986" lon="8.366602342575789">
        <ele>946.11000000000001</ele>
        <time>2021-11-07T13:02:03Z</time>
      </trkpt>
      <trkpt lat="45.876975981518626" lon="8.366642743349075">
        <ele>945.23000000000002</ele>
        <time>2021-11-07T13:02:06Z</time>
      </trkpt>
      <trkpt lat="45.87696835398674" lon="8.366787247359753">
        <ele>941.85000000000002</ele>
        <time>2021-11-07T13:02:18Z</time>
      </trkpt>
      <trkpt lat="45.876962738111615" lon="8.366895206272602">
        <ele>939.37</ele>
        <time>2021-11-07T13:02:25Z</time>
      </trkpt>
      <trkpt lat="45.876961648464203" lon="8.367041135206819">
        <ele>935.92999999999995</ele>
        <time>2021-11-07T13:02:34Z</time>
      </trkpt>
      <trkpt lat="45.876967431977391" lon="8.367158733308315">
        <ele>933.10000000000002</ele>
        <time>2021-11-07T13:02:46Z</time>
      </trkpt>
      <trkpt lat="45.87695611640811" lon="8.367166863754392">
        <ele>933.04999999999995</ele>
        <time>2021-11-07T13:02:50Z</time>
      </trkpt>
      <trkpt lat="45.876868860796094" lon="8.367213299497962">
        <ele>932.00999999999999</ele>
        <time>2021-11-07T13:02:57Z</time>
      </trkpt>
      <trkpt lat="45.876843128353357" lon="8.367264261469245">
        <ele>931.00999999999999</ele>
        <time>2021-11-07T13:03:01Z</time>
      </trkpt>
      <trkpt lat="45.87679878808558" lon="8.367481352761388">
        <ele>928.55999999999995</ele>
        <time>2021-11-07T13:03:14Z</time>
      </trkpt>
      <trkpt lat="45.876742377877235" lon="8.367603560909629">
        <ele>927.05999999999995</ele>
        <time>2021-11-07T13:03:24Z</time>
      </trkpt>
      <trkpt lat="45.87665026076138" lon="8.36773700080812">
        <ele>924.77999999999997</ele>
        <time>2021-11-07T13:03:36Z</time>
      </trkpt>
      <trkpt lat="45.876591838896275" lon="8.367886282503605">
        <ele>922.30999999999995</ele>
        <time>2021-11-07T13:03:46Z</time>
      </trkpt>
      <trkpt lat="45.876510450616479" lon="8.368040174245834">
        <ele>919.17999999999995</ele>
        <time>2021-11-07T13:03:57Z</time>
      </trkpt>
      <trkpt lat="45.876485891640186" lon="8.368082586675882">
        <ele>918.51999999999998</ele>
        <time>2021-11-07T13:04:00Z</time>
      </trkpt>
      <trkpt lat="45.876382375136018" lon="8.368234634399414">
        <ele>915.75999999999999</ele>
        <time>2021-11-07T13:04:13Z</time>
      </trkpt>
      <trkpt lat="45.87631800211966" lon="8.368361871689558">
        <ele>913.32000000000005</ele>
        <time>2021-11-07T13:04:26Z</time>
      </trkpt>
      <trkpt lat="45.876198643818498" lon="8.368538646027446">
        <ele>910.22000000000003</ele>
        <time>2021-11-07T13:04:41Z</time>
      </trkpt>
      <trkpt lat="45.876066377386451" lon="8.368702763691545">
        <ele>906.96000000000004</ele>
        <time>2021-11-07T13:04:55Z</time>
      </trkpt>
      <trkpt lat="45.875988677144051" lon="8.368793539702892">
        <ele>904.25999999999999</ele>
        <time>2021-11-07T13:05:05Z</time>
      </trkpt>
      <trkpt lat="45.875899493694305" lon="8.368886830285192">
        <ele>901.10000000000002</ele>
        <time>2021-11-07T13:05:16Z</time>
      </trkpt>
      <trkpt lat="45.875862613320351" lon="8.368939468637109">
        <ele>899.58000000000004</ele>
        <time>2021-11-07T13:05:21Z</time>
      </trkpt>
      <trkpt lat="45.87574627250433" lon="8.369046254083514">
        <ele>896.24000000000001</ele>
        <time>2021-11-07T13:05:34Z</time>
      </trkpt>
      <trkpt lat="45.875673685222864" lon="8.369116494432092">
        <ele>894.25999999999999</ele>
        <time>2021-11-07T13:05:42Z</time>
      </trkpt>
      <trkpt lat="45.875643845647573" lon="8.369152788072825">
        <ele>893.67999999999995</ele>
        <time>2021-11-07T13:05:45Z</time>
      </trkpt>
      <trkpt lat="45.875481488183141" lon="8.369311625137925">
        <ele>891.17999999999995</ele>
        <time>2021-11-07T13:05:58Z</time>
      </trkpt>
      <trkpt lat="45.875323237851262" lon="8.369468115270138">
        <ele>888.95000000000005</ele>
        <time>2021-11-07T13:06:14Z</time>
      </trkpt>
      <trkpt lat="45.87517898529768" lon="8.369565764442086">
        <ele>887.01999999999998</ele>
        <time>2021-11-07T13:06:27Z</time>
      </trkpt>
      <trkpt lat="45.87511301971972" lon="8.369596190750599">
        <ele>886.13</ele>
        <time>2021-11-07T13:06:33Z</time>
      </trkpt>
      <trkpt lat="45.874995924532413" lon="8.369623515754938">
        <ele>885.23000000000002</ele>
        <time>2021-11-07T13:06:45Z</time>
      </trkpt>
      <trkpt lat="45.874979663640261" lon="8.369668778032064">
        <ele>884.76999999999998</ele>
        <time>2021-11-07T13:06:49Z</time>
      </trkpt>
      <trkpt lat="45.87494932115078" lon="8.369754943996668">
        <ele>884.38999999999999</ele>
        <time>2021-11-07T13:06:57Z</time>
      </trkpt>
      <trkpt lat="45.874925348907709" lon="8.369805822148919">
        <ele>883.73000000000002</ele>
        <time>2021-11-07T13:07:01Z</time>
      </trkpt>
      <trkpt lat="45.874911518767476" lon="8.369866507127881">
        <ele>882.90999999999997</ele>
        <time>2021-11-07T13:07:07Z</time>
      </trkpt>
      <trkpt lat="45.874875225126743" lon="8.369979579001665">
        <ele>882.87</ele>
        <time>2021-11-07T13:07:16Z</time>
      </trkpt>
      <trkpt lat="45.874862400814891" lon="8.370006736367941">
        <ele>882.69000000000005</ele>
        <time>2021-11-07T13:07:18Z</time>
      </trkpt>
      <trkpt lat="45.874800039455295" lon="8.370161131024361">
        <ele>881.36000000000001</ele>
        <time>2021-11-07T13:07:30Z</time>
      </trkpt>
      <trkpt lat="45.874705826863647" lon="8.370280070230365">
        <ele>879.25999999999999</ele>
        <time>2021-11-07T13:07:41Z</time>
      </trkpt>
      <trkpt lat="45.874611865729094" lon="8.370363051071763">
        <ele>878.30999999999995</ele>
        <time>2021-11-07T13:07:52Z</time>
      </trkpt>
      <trkpt lat="45.874604992568493" lon="8.370388029143214">
        <ele>878.34000000000003</ele>
        <time>2021-11-07T13:07:54Z</time>
      </trkpt>
      <trkpt lat="45.874578338116407" lon="8.370489533990622">
        <ele>877.61000000000001</ele>
        <time>2021-11-07T13:08:00Z</time>
      </trkpt>
      <trkpt lat="45.874592587351799" lon="8.370749205350876">
        <ele>876.38</ele>
        <time>2021-11-07T13:08:15Z</time>
      </trkpt>
      <trkpt lat="45.874592335894704" lon="8.371036369353533">
        <ele>875.57000000000005</ele>
        <time>2021-11-07T13:08:32Z</time>
      </trkpt>
      <trkpt lat="45.874464176595211" lon="8.371293274685741">
        <ele>873.83000000000004</ele>
        <time>2021-11-07T13:08:50Z</time>
      </trkpt>
      <trkpt lat="45.874276170507073" lon="8.371447836980224">
        <ele>871.32000000000005</ele>
        <time>2021-11-07T13:09:06Z</time>
      </trkpt>
      <trkpt lat="45.874113813042641" lon="8.37155370041728">
        <ele>869.10000000000002</ele>
        <time>2021-11-07T13:09:21Z</time>
      </trkpt>
      <trkpt lat="45.874084895476699" lon="8.371616648510099">
        <ele>868.38999999999999</ele>
        <time>2021-11-07T13:09:28Z</time>
      </trkpt>
      <trkpt lat="45.874044494703412" lon="8.371620001271367">
        <ele>867.88999999999999</ele>
        <time>2021-11-07T13:09:32Z</time>
      </trkpt>
      <trkpt lat="45.873883478343487" lon="8.371680937707424">
        <ele>866.72000000000003</ele>
        <time>2021-11-07T13:09:46Z</time>
      </trkpt>
      <trkpt lat="45.873818099498749" lon="8.371693007647991">
        <ele>865.94000000000005</ele>
        <time>2021-11-07T13:09:53Z</time>
      </trkpt>
      <trkpt lat="45.873802006244659" lon="8.371714213863015">
        <ele>865.67999999999995</ele>
        <time>2021-11-07T13:09:55Z</time>
      </trkpt>
      <trkpt lat="45.873792786151171" lon="8.371740533038974">
        <ele>865.39999999999998</ele>
        <time>2021-11-07T13:09:57Z</time>
      </trkpt>
      <trkpt lat="45.87381768040359" lon="8.371824603527784">
        <ele>865.05999999999995</ele>
        <time>2021-11-07T13:10:03Z</time>
      </trkpt>
      <trkpt lat="45.873874677345157" lon="8.371838349848986">
        <ele>864.53999999999996</ele>
        <time>2021-11-07T13:10:08Z</time>
      </trkpt>
      <trkpt lat="45.874007614329457" lon="8.371870620176196">
        <ele>863.00999999999999</ele>
        <time>2021-11-07T13:10:20Z</time>
      </trkpt>
      <trkpt lat="45.874027982354164" lon="8.371880427002907">
        <ele>862.83000000000004</ele>
        <time>2021-11-07T13:10:22Z</time>
      </trkpt>
      <trkpt lat="45.874051284044981" lon="8.371921833604574">
        <ele>861.91999999999996</ele>
        <time>2021-11-07T13:10:26Z</time>
      </trkpt>
      <trkpt lat="45.87414750829339" lon="8.372030714526773">
        <ele>860.63999999999999</ele>
        <time>2021-11-07T13:10:38Z</time>
      </trkpt>
      <trkpt lat="45.874155638739467" lon="8.372038844972849">
        <ele>860.48000000000002</ele>
        <time>2021-11-07T13:10:39Z</time>
      </trkpt>
      <trkpt lat="45.87420073337853" lon="8.372122077271342">
        <ele>859.65999999999997</ele>
        <time>2021-11-07T13:10:46Z</time>
      </trkpt>
      <trkpt lat="45.87428673170507" lon="8.372265491634607">
        <ele>858.34000000000003</ele>
        <time>2021-11-07T13:10:58Z</time>
      </trkpt>
      <trkpt lat="45.874265441671014" lon="8.372426005080342">
        <ele>857.41999999999996</ele>
        <time>2021-11-07T13:11:10Z</time>
      </trkpt>
      <trkpt lat="45.874274997040629" lon="8.372479900717735">
        <ele>857.37</ele>
        <time>2021-11-07T13:11:15Z</time>
      </trkpt>
      <trkpt lat="45.874303076416254" lon="8.372541088610888">
        <ele>857.28999999999996</ele>
        <time>2021-11-07T13:11:20Z</time>
      </trkpt>
      <trkpt lat="45.874389493837953" lon="8.372633205726743">
        <ele>856.84000000000003</ele>
        <time>2021-11-07T13:11:31Z</time>
      </trkpt>
      <trkpt lat="45.874411622062325" lon="8.37270537391305">
        <ele>856.08000000000004</ele>
        <time>2021-11-07T13:11:41Z</time>
      </trkpt>
      <trkpt lat="45.87438203394413" lon="8.372852727770805">
        <ele>855.52999999999997</ele>
        <time>2021-11-07T13:11:51Z</time>
      </trkpt>
      <trkpt lat="45.874328725039959" lon="8.373004775494337">
        <ele>854.96000000000004</ele>
        <time>2021-11-07T13:12:04Z</time>
      </trkpt>
      <trkpt lat="45.874271476641297" lon="8.373048193752766">
        <ele>854.60000000000002</ele>
        <time>2021-11-07T13:12:12Z</time>
      </trkpt>
      <trkpt lat="45.874129738658667" lon="8.373095970600843">
        <ele>854.03999999999996</ele>
        <time>2021-11-07T13:12:29Z</time>
      </trkpt>
      <trkpt lat="45.874044829979539" lon="8.373106783255935">
        <ele>853.91999999999996</ele>
        <time>2021-11-07T13:12:39Z</time>
      </trkpt>
      <trkpt lat="45.874003758653998" lon="8.37308063171804">
        <ele>853.54999999999995</ele>
        <time>2021-11-07T13:12:48Z</time>
      </trkpt>
      <trkpt lat="45.87386604398489" lon="8.372975438833237">
        <ele>852.50999999999999</ele>
        <time>2021-11-07T13:13:02Z</time>
      </trkpt>
      <trkpt lat="45.873780380934477" lon="8.37285247631371">
        <ele>852.34000000000003</ele>
        <time>2021-11-07T13:13:15Z</time>
      </trkpt>
      <trkpt lat="45.873681474477053" lon="8.372780224308372">
        <ele>849.95000000000005</ele>
        <time>2021-11-07T13:13:24Z</time>
      </trkpt>
      <trkpt lat="45.87355918250978" lon="8.372681653127074">
        <ele>850.75999999999999</ele>
        <time>2021-11-07T13:13:37Z</time>
      </trkpt>
      <trkpt lat="45.873438650742173" lon="8.372595570981503">
        <ele>851.37</ele>
        <time>2021-11-07T13:13:47Z</time>
      </trkpt>
      <trkpt lat="45.873303869739175" lon="8.372551733627915">
        <ele>851.66999999999996</ele>
        <time>2021-11-07T13:14:01Z</time>
      </trkpt>
      <trkpt lat="45.873282663524151" lon="8.372456934303045">
        <ele>851.59000000000003</ele>
        <time>2021-11-07T13:14:08Z</time>
      </trkpt>
      <trkpt lat="45.873251650482416" lon="8.372414438053966">
        <ele>851.32000000000005</ele>
        <time>2021-11-07T13:14:10Z</time>
      </trkpt>
      <trkpt lat="45.873110834509134" lon="8.37232961319387">
        <ele>851.28999999999996</ele>
        <time>2021-11-07T13:14:21Z</time>
      </trkpt>
      <trkpt lat="45.873031122609973" lon="8.372368337586522">
        <ele>851.22000000000003</ele>
        <time>2021-11-07T13:14:32Z</time>
      </trkpt>
      <trkpt lat="45.87296356447041" lon="8.372384179383516">
        <ele>851.03999999999996</ele>
        <time>2021-11-07T13:14:44Z</time>
      </trkpt>
      <trkpt lat="45.872818138450384" lon="8.372363895177841">
        <ele>850.65999999999997</ele>
        <time>2021-11-07T13:14:57Z</time>
      </trkpt>
      <trkpt lat="45.872739935293794" lon="8.372327601537108">
        <ele>850.05999999999995</ele>
        <time>2021-11-07T13:15:07Z</time>
      </trkpt>
      <trkpt lat="45.87270699441433" lon="8.372286027297378">
        <ele>850.01999999999998</ele>
        <time>2021-11-07T13:15:19Z</time>
      </trkpt>
      <trkpt lat="45.872692661359906" lon="8.372280327603221">
        <ele>849.88</ele>
        <time>2021-11-07T13:15:21Z</time>
      </trkpt>
      <trkpt lat="45.872675059363246" lon="8.372278483584523">
        <ele>849.67999999999995</ele>
        <time>2021-11-07T13:15:23Z</time>
      </trkpt>
      <trkpt lat="45.872553940862417" lon="8.372215451672673">
        <ele>849.26999999999998</ele>
        <time>2021-11-07T13:15:36Z</time>
      </trkpt>
      <trkpt lat="45.872474564239383" lon="8.372108666226268">
        <ele>848.95000000000005</ele>
        <time>2021-11-07T13:15:49Z</time>
      </trkpt>
      <trkpt lat="45.872466266155243" lon="8.372082263231278">
        <ele>849.03999999999996</ele>
        <time>2021-11-07T13:16:00Z</time>
      </trkpt>
      <trkpt lat="45.872425446286798" lon="8.372066421434283">
        <ele>848.78999999999996</ele>
        <time>2021-11-07T13:16:04Z</time>
      </trkpt>
      <trkpt lat="45.87229804135859" lon="8.371881684288383">
        <ele>847.86000000000001</ele>
        <time>2021-11-07T13:16:20Z</time>
      </trkpt>
      <trkpt lat="45.872287312522531" lon="8.371873553842306">
        <ele>848.13999999999999</ele>
        <time>2021-11-07T13:16:22Z</time>
      </trkpt>
      <trkpt lat="45.872268369421363" lon="8.371867435052991">
        <ele>847.99000000000001</ele>
        <time>2021-11-07T13:16:24Z</time>
      </trkpt>
      <trkpt lat="45.872162170708179" lon="8.371732989326119">
        <ele>847.45000000000005</ele>
        <time>2021-11-07T13:16:37Z</time>
      </trkpt>
      <trkpt lat="45.872118333354592" lon="8.371687224134803">
        <ele>846.99000000000001</ele>
        <time>2021-11-07T13:16:41Z</time>
      </trkpt>
      <trkpt lat="45.871995957568288" lon="8.37152386084199">
        <ele>846.51999999999998</ele>
        <time>2021-11-07T13:16:55Z</time>
      </trkpt>
      <trkpt lat="45.871884059160948" lon="8.371391845867038">
        <ele>846.05999999999995</ele>
        <time>2021-11-07T13:17:08Z</time>
      </trkpt>
      <trkpt lat="45.871818764135242" lon="8.371334178373218">
        <ele>846.13</ele>
        <time>2021-11-07T13:17:19Z</time>
      </trkpt>
      <trkpt lat="45.871807616204023" lon="8.371346415951848">
        <ele>845.88</ele>
        <time>2021-11-07T13:17:41Z</time>
      </trkpt>
      <trkpt lat="45.871800659224391" lon="8.371342476457357">
        <ele>846.16999999999996</ele>
        <time>2021-11-07T13:18:01Z</time>
      </trkpt>
      <trkpt lat="45.87179915048182" lon="8.371330071240664">
        <ele>846.17999999999995</ele>
        <time>2021-11-07T13:18:18Z</time>
      </trkpt>
      <trkpt lat="45.871802922338247" lon="8.371326383203268">
        <ele>845.70000000000005</ele>
        <time>2021-11-07T13:18:29Z</time>
      </trkpt>
      <trkpt lat="45.871813986450434" lon="8.371344907209277">
        <ele>843.59000000000003</ele>
        <time>2021-11-07T13:18:44Z</time>
      </trkpt>
      <trkpt lat="45.871825134381652" lon="8.371343733742833">
        <ele>847.25</ele>
        <time>2021-11-07T13:19:09Z</time>
      </trkpt>
      <trkpt lat="45.871822955086827" lon="8.371347589418292">
        <ele>847.25</ele>
        <time>2021-11-07T13:19:10Z</time>
      </trkpt>
      <trkpt lat="45.871809544041753" lon="8.371356055140495">
        <ele>846</ele>
        <time>2021-11-07T13:19:32Z</time>
      </trkpt>
      <trkpt lat="45.871807616204023" lon="8.371361754834652">
        <ele>845.89999999999998</ele>
        <time>2021-11-07T13:20:05Z</time>
      </trkpt>
      <trkpt lat="45.871806778013706" lon="8.371347924694419">
        <ele>846.04999999999995</ele>
        <time>2021-11-07T13:20:42Z</time>
      </trkpt>
      <trkpt lat="45.871812393888831" lon="8.371342560276389">
        <ele>845.75999999999999</ele>
        <time>2021-11-07T13:21:16Z</time>
      </trkpt>
      <trkpt lat="45.871797222644091" lon="8.371353959664702">
        <ele>846.02999999999997</ele>
        <time>2021-11-07T13:22:00Z</time>
      </trkpt>
      <trkpt lat="45.871803676709533" lon="8.371361754834652">
        <ele>845.98000000000002</ele>
        <time>2021-11-07T13:22:40Z</time>
      </trkpt>
      <trkpt lat="45.871785655617714" lon="8.371358653530479">
        <ele>846.22000000000003</ele>
        <time>2021-11-07T13:23:27Z</time>
      </trkpt>
      <trkpt lat="45.871801497414708" lon="8.371376758441329">
        <ele>846.39999999999998</ele>
        <time>2021-11-07T13:24:14Z</time>
      </trkpt>
      <trkpt lat="45.871812310069799" lon="8.371332250535488">
        <ele>846.65999999999997</ele>
        <time>2021-11-07T13:25:05Z</time>
      </trkpt>
      <trkpt lat="45.871819769963622" lon="8.371340967714787">
        <ele>846.96000000000004</ele>
        <time>2021-11-07T13:25:55Z</time>
      </trkpt>
      <trkpt lat="45.871800323948264" lon="8.371352702379227">
        <ele>847.13</ele>
        <time>2021-11-07T13:26:41Z</time>
      </trkpt>
      <trkpt lat="45.871803341433406" lon="8.371378518640995">
        <ele>847.38999999999999</ele>
        <time>2021-11-07T13:27:35Z</time>
      </trkpt>
      <trkpt lat="45.871815327554941" lon="8.371348679065704">
        <ele>847.63999999999999</ele>
        <time>2021-11-07T13:28:28Z</time>
      </trkpt>
      <trkpt lat="45.871795881539583" lon="8.371352702379227">
        <ele>847.78999999999996</ele>
        <time>2021-11-07T13:29:18Z</time>
      </trkpt>
      <trkpt lat="45.871797809377313" lon="8.37137047201395">
        <ele>847.75</ele>
        <time>2021-11-07T13:29:59Z</time>
      </trkpt>
      <trkpt lat="45.871813064441085" lon="8.371374914422631">
        <ele>847.82000000000005</ele>
        <time>2021-11-07T13:30:39Z</time>
      </trkpt>
      <trkpt lat="45.87181675247848" lon="8.371355887502432">
        <ele>847.75</ele>
        <time>2021-11-07T13:31:24Z</time>
      </trkpt>
      <trkpt lat="45.871820775792003" lon="8.371356809511781">
        <ele>847.59000000000003</ele>
        <time>2021-11-07T13:32:06Z</time>
      </trkpt>
      <trkpt lat="45.871807616204023" lon="8.371391594409943">
        <ele>847.78999999999996</ele>
        <time>2021-11-07T13:32:57Z</time>
      </trkpt>
      <trkpt lat="45.871811974793673" lon="8.371355384588242">
        <ele>848.04999999999995</ele>
        <time>2021-11-07T13:33:44Z</time>
      </trkpt>
      <trkpt lat="45.871795127168298" lon="8.371345829218626">
        <ele>848.52999999999997</ele>
        <time>2021-11-07T13:34:10Z</time>
      </trkpt>
      <trkpt lat="45.87172731757164" lon="8.371232086792588">
        <ele>847.98000000000002</ele>
        <time>2021-11-07T13:34:23Z</time>
      </trkpt>
      <trkpt lat="45.871710134670138" lon="8.371208617463708">
        <ele>847.83000000000004</ele>
        <time>2021-11-07T13:34:25Z</time>
      </trkpt>
      <trkpt lat="45.871669482439756" lon="8.371230075135827">
        <ele>847.66999999999996</ele>
        <time>2021-11-07T13:34:29Z</time>
      </trkpt>
      <trkpt lat="45.871640145778656" lon="8.371323365718126">
        <ele>845.74000000000001</ele>
        <time>2021-11-07T13:34:37Z</time>
      </trkpt>
      <trkpt lat="45.871710553765297" lon="8.371366029605269">
        <ele>845.30999999999995</ele>
        <time>2021-11-07T13:34:44Z</time>
      </trkpt>
      <trkpt lat="45.871729832142591" lon="8.371400563046336">
        <ele>845.33000000000004</ele>
        <time>2021-11-07T13:34:47Z</time>
      </trkpt>
      <trkpt lat="45.871694795787334" lon="8.371448004618287">
        <ele>845.38999999999999</ele>
        <time>2021-11-07T13:34:57Z</time>
      </trkpt>
      <trkpt lat="45.871706362813711" lon="8.371478850021958">
        <ele>845.45000000000005</ele>
        <time>2021-11-07T13:35:10Z</time>
      </trkpt>
    </trkseg>
  </trk>

</gpx>